[[{"header":{"parameterUnit":"m.s-1","parameterCategory":1,"la1":30.6,"la2":29.2853,"lo1":-89.7004,"lo2":-87.6739,"dy":0.0162,"dx":0.0183,"nx":112,"ny":82,"refTime":"2023-06-14T12:00:00:Z","depth":0,"parameterNumber":2,"parameterNumberName":"U-component_of_WINDS"},"data":[0.0,0.0,0.0,0.0,0.0,0.0,0.0,0.0,0.0,0.0,0.0,0.0,0.0,0.0,0.0,0.0,0.0,0.0,0.0,0.0,0.0,0.0,0.0,0.0,0.0,0.0,0.0,0.0,0.0,0.0,0.0,0.0,0.0,0.0,0.0,0.0,0.0,0.0,0.0,0.0,0.0,0.0,0.0,0.0,0.0,0.0,0.0,0.0,0.0,0.0,0.0,0.0,0.0,0.0,0.0,0.0,0.0,0.0,0.0,0.0,0.0,0.0,0.0,0.0,0.0,0.0,0.0,0.0,0.0,0.0,0.0,0.0,0.0,0.0,0.0,0.0,0.0,0.0,0.0,0.0,0.0,0.0,0.0,0.0,0.0,0.0,0.0,0.0,0.0,0.0,-2.5654,-2.7867,-2.8989,-2.9364,-2.8745,-2.8245,-2.7414,-2.6141,0.0,0.0,0.0,0.0,0.0,0.0,0.0,0.0,0.0,0.0,0.0,0.0,0.0,0.0,0.0,0.0,0.0,0.0,0.0,0.0,0.0,0.0,0.0,0.0,0.0,0.0,0.0,0.0,0.0,0.0,0.0,0.0,0.0,0.0,0.0,0.0,0.0,0.0,0.0,0.0,0.0,0.0,0.0,0.0,0.0,0.0,0.0,0.0,0.0,0.0,0.0,0.0,0.0,0.0,0.0,0.0,0.0,0.0,0.0,0.0,0.0,0.0,0.0,0.0,0.0,0.0,0.0,0.0,0.0,0.0,0.0,0.0,0.0,0.0,0.0,0.0,0.0,0.0,0.0,0.0,0.0,0.0,0.0,0.0,0.0,0.0,0.0,0.0,0.0,0.0,0.0,0.0,0.0,0.0,0.0,0.0,0.0,0.0,0.0,0.0,0.0,0.0,0.0,0.0,-2.6565,-2.8398,-2.9181,-2.9364,-2.8745,-2.8157,-2.7299,-2.6005,0.0,0.0,0.0,0.0,0.0,0.0,0.0,0.0,0.0,0.0,0.0,0.0,0.0,0.0,0.0,0.0,0.0,0.0,0.0,0.0,0.0,0.0,0.0,0.0,0.0,0.0,0.0,0.0,0.0,0.0,0.0,0.0,0.0,0.0,0.0,0.0,0.0,0.0,0.0,0.0,0.0,0.0,0.0,0.0,0.0,0.0,0.0,0.0,0.0,0.0,0.0,0.0,0.0,0.0,0.0,0.0,0.0,0.0,0.0,0.0,0.0,0.0,0.0,0.0,0.0,0.0,0.0,0.0,0.0,0.0,0.0,0.0,0.0,0.0,0.0,0.0,0.0,0.0,0.0,0.0,0.0,0.0,0.0,0.0,0.0,0.0,0.0,0.0,0.0,0.0,0.0,0.0,0.0,0.0,0.0,0.0,0.0,0.0,0.0,0.0,0.0,0.0,0.0,-2.6351,-2.7426,-2.8414,-2.91,-2.9366,-2.9086,-2.8204,-2.7436,-2.6947,-2.5253,0.0,0.0,0.0,0.0,0.0,0.0,0.0,0.0,0.0,0.0,0.0,0.0,0.0,0.0,0.0,0.0,0.0,0.0,0.0,0.0,0.0,0.0,0.0,0.0,0.0,0.0,0.0,0.0,0.0,0.0,0.0,0.0,0.0,0.0,0.0,0.0,0.0,0.0,0.0,0.0,0.0,0.0,0.0,0.0,0.0,0.0,0.0,0.0,0.0,0.0,0.0,0.0,0.0,0.0,0.0,0.0,0.0,0.0,0.0,0.0,0.0,0.0,0.0,0.0,0.0,0.0,0.0,0.0,0.0,0.0,0.0,0.0,0.0,0.0,0.0,0.0,0.0,0.0,0.0,0.0,0.0,0.0,0.0,0.0,0.0,0.0,0.0,0.0,0.0,0.0,0.0,0.0,0.0,0.0,0.0,0.0,0.0,0.0,0.0,0.0,0.0,0.0,-2.7215,-2.7968,-2.8574,-2.9059,-2.932,-2.932,-2.8177,-2.7541,-2.7717,-2.539,0.0,0.0,0.0,0.0,0.0,0.0,0.0,0.0,0.0,0.0,0.0,0.0,0.0,0.0,0.0,0.0,0.0,0.0,0.0,0.0,0.0,0.0,0.0,0.0,0.0,0.0,0.0,0.0,0.0,0.0,0.0,0.0,0.0,0.0,0.0,0.0,0.0,0.0,0.0,0.0,0.0,0.0,0.0,0.0,0.0,0.0,0.0,0.0,0.0,0.0,0.0,0.0,0.0,0.0,0.0,0.0,0.0,0.0,0.0,0.0,0.0,0.0,0.0,0.0,0.0,0.0,0.0,0.0,0.0,0.0,0.0,0.0,0.0,0.0,0.0,0.0,0.0,0.0,0.0,0.0,0.0,0.0,0.0,0.0,0.0,0.0,0.0,0.0,0.0,0.0,0.0,0.0,0.0,0.0,0.0,0.0,0.0,0.0,0.0,0.0,0.0,0.0,-2.7603,-2.7987,-2.9188,-2.9198,-2.9131,-2.9131,-2.7994,-2.7363,-2.7511,-2.5187,0.0,0.0,0.0,0.0,0.0,0.0,0.0,0.0,0.0,0.0,0.0,0.0,0.0,0.0,0.0,0.0,0.0,0.0,0.0,0.0,0.0,0.0,0.0,0.0,0.0,0.0,0.0,0.0,0.0,0.0,0.0,0.0,0.0,0.0,0.0,0.0,0.0,0.0,0.0,0.0,0.0,0.0,0.0,0.0,0.0,0.0,0.0,0.0,0.0,0.0,0.0,0.0,0.0,0.0,0.0,0.0,0.0,0.0,0.0,0.0,0.0,0.0,0.0,0.0,0.0,0.0,0.0,0.0,0.0,0.0,0.0,0.0,0.0,0.0,0.0,0.0,0.0,0.0,0.0,0.0,0.0,0.0,0.0,0.0,0.0,0.0,0.0,0.0,0.0,0.0,0.0,0.0,0.0,0.0,0.0,0.0,0.0,0.0,0.0,0.0,0.0,0.0,-2.7541,-2.788,0.0,-2.8972,-2.8908,-2.8908,-2.7827,-2.7187,-2.7349,0.0,0.0,0.0,0.0,0.0,0.0,0.0,0.0,0.0,0.0,0.0,0.0,0.0,0.0,0.0,0.0,0.0,0.0,0.0,0.0,0.0,0.0,0.0,0.0,0.0,0.0,0.0,0.0,0.0,0.0,0.0,0.0,0.0,0.0,0.0,0.0,0.0,0.0,0.0,0.0,0.0,0.0,0.0,0.0,0.0,0.0,0.0,0.0,0.0,0.0,0.0,0.0,0.0,0.0,0.0,0.0,0.0,0.0,0.0,0.0,0.0,0.0,0.0,0.0,0.0,0.0,0.0,0.0,0.0,0.0,0.0,0.0,0.0,0.0,0.0,0.0,0.0,0.0,0.0,0.0,0.0,0.0,0.0,0.0,0.0,0.0,0.0,0.0,0.0,0.0,0.0,0.0,0.0,0.0,0.0,0.0,0.0,0.0,0.0,0.0,0.0,0.0,-2.7191,-2.7409,-2.7729,0.0,-2.8748,-2.8748,-2.8748,-2.7643,-2.7007,-2.7187,0.0,0.0,0.0,0.0,0.0,0.0,0.0,0.0,0.0,0.0,0.0,0.0,0.0,0.0,0.0,0.0,0.0,0.0,0.0,0.0,0.0,0.0,0.0,0.0,0.0,0.0,0.0,0.0,0.0,0.0,0.0,0.0,0.0,0.0,0.0,0.0,0.0,0.0,0.0,0.0,0.0,0.0,0.0,0.0,0.0,0.0,0.0,0.0,0.0,0.0,0.0,0.0,0.0,0.0,0.0,0.0,0.0,0.0,0.0,0.0,0.0,0.0,0.0,0.0,0.0,0.0,0.0,0.0,0.0,0.0,0.0,0.0,0.0,0.0,0.0,0.0,0.0,0.0,0.0,0.0,0.0,0.0,0.0,0.0,0.0,0.0,0.0,0.0,0.0,0.0,0.0,0.0,0.0,0.0,0.0,0.0,0.0,0.0,0.0,0.0,0.0,0.0,-2.7191,-2.7216,-2.7458,-2.8689,-2.8683,-2.8587,-2.8587,-2.7515,-2.687,0.0,0.0,0.0,0.0,0.0,0.0,0.0,0.0,0.0,0.0,0.0,0.0,0.0,0.0,0.0,0.0,0.0,0.0,0.0,0.0,0.0,0.0,0.0,0.0,0.0,0.0,0.0,0.0,0.0,0.0,0.0,0.0,0.0,0.0,0.0,0.0,0.0,0.0,0.0,0.0,0.0,0.0,0.0,0.0,0.0,0.0,0.0,0.0,0.0,0.0,0.0,0.0,0.0,0.0,0.0,0.0,0.0,0.0,0.0,0.0,0.0,0.0,0.0,0.0,0.0,0.0,0.0,0.0,0.0,0.0,0.0,0.0,0.0,0.0,0.0,0.0,0.0,0.0,0.0,0.0,0.0,0.0,0.0,0.0,0.0,0.0,0.0,0.0,0.0,0.0,0.0,0.0,0.0,0.0,0.0,0.0,0.0,0.0,0.0,0.0,0.0,0.0,0.0,-2.7098,-2.7498,-2.7888,-2.8583,-2.8619,-2.8587,-2.8587,-2.7881,-2.7271,-2.6897,0.0,0.0,0.0,0.0,0.0,0.0,0.0,0.0,0.0,0.0,0.0,0.0,0.0,0.0,0.0,0.0,0.0,0.0,0.0,0.0,0.0,0.0,0.0,0.0,0.0,0.0,0.0,0.0,0.0,0.0,0.0,0.0,0.0,0.0,0.0,0.0,0.0,0.0,0.0,0.0,0.0,0.0,0.0,0.0,0.0,0.0,0.0,0.0,0.0,0.0,0.0,0.0,0.0,0.0,0.0,0.0,0.0,0.0,0.0,0.0,0.0,0.0,0.0,0.0,0.0,0.0,0.0,0.0,0.0,0.0,0.0,0.0,0.0,0.0,0.0,0.0,0.0,0.0,0.0,0.0,0.0,0.0,0.0,0.0,0.0,0.0,0.0,0.0,0.0,0.0,0.0,0.0,0.0,0.0,0.0,0.0,0.0,0.0,0.0,0.0,0.0,0.0,-2.6978,-2.7745,-2.8352,-2.8787,-2.9058,-2.9065,-2.8737,-2.8236,-2.7674,-2.708,0.0,0.0,0.0,0.0,0.0,0.0,0.0,0.0,0.0,0.0,0.0,0.0,0.0,0.0,0.0,0.0,0.0,0.0,0.0,0.0,0.0,0.0,0.0,0.0,0.0,0.0,0.0,0.0,0.0,0.0,0.0,0.0,0.0,0.0,0.0,0.0,0.0,0.0,0.0,0.0,0.0,0.0,0.0,0.0,0.0,0.0,0.0,0.0,0.0,0.0,0.0,0.0,0.0,0.0,0.0,0.0,0.0,0.0,0.0,0.0,0.0,0.0,0.0,0.0,0.0,0.0,0.0,0.0,0.0,0.0,0.0,0.0,0.0,0.0,0.0,0.0,0.0,0.0,0.0,0.0,0.0,0.0,0.0,0.0,0.0,0.0,0.0,0.0,0.0,0.0,0.0,0.0,0.0,0.0,0.0,0.0,0.0,0.0,0.0,0.0,0.0,0.0,-2.7023,-2.8057,-2.8801,-2.9228,-2.9779,-2.977,-2.9044,-2.8592,-2.8101,-2.7502,0.0,0.0,0.0,0.0,0.0,0.0,0.0,0.0,0.0,0.0,0.0,0.0,0.0,0.0,0.0,0.0,0.0,0.0,0.0,0.0,0.0,0.0,0.0,0.0,0.0,0.0,0.0,0.0,0.0,0.0,0.0,0.0,0.0,0.0,0.0,0.0,0.0,0.0,0.0,0.0,0.0,0.0,0.0,0.0,0.0,0.0,0.0,0.0,0.0,0.0,0.0,0.0,0.0,0.0,0.0,0.0,0.0,0.0,0.0,0.0,-2.2398,0.0,0.0,0.0,0.0,0.0,0.0,0.0,0.0,0.0,0.0,0.0,0.0,0.0,0.0,0.0,0.0,0.0,0.0,0.0,0.0,0.0,0.0,0.0,0.0,0.0,0.0,0.0,0.0,0.0,0.0,0.0,0.0,0.0,0.0,0.0,0.0,0.0,0.0,0.0,0.0,0.0,-2.8265,-2.8812,-2.9289,-2.9847,-2.9883,-2.9806,-2.9616,-2.9105,-2.8505,-2.7925,-2.6703,0.0,0.0,0.0,0.0,0.0,0.0,0.0,0.0,0.0,0.0,0.0,0.0,0.0,0.0,0.0,0.0,0.0,0.0,0.0,0.0,0.0,0.0,0.0,0.0,0.0,0.0,0.0,0.0,0.0,0.0,0.0,0.0,0.0,0.0,0.0,0.0,0.0,0.0,0.0,0.0,0.0,0.0,0.0,0.0,0.0,0.0,0.0,0.0,0.0,0.0,0.0,0.0,0.0,0.0,0.0,0.0,0.0,0.0,0.0,0.0,-2.3858,0.0,0.0,0.0,0.0,0.0,0.0,0.0,0.0,0.0,0.0,0.0,0.0,0.0,0.0,0.0,0.0,0.0,0.0,0.0,0.0,0.0,0.0,0.0,0.0,0.0,0.0,0.0,0.0,0.0,0.0,0.0,0.0,0.0,0.0,0.0,0.0,0.0,0.0,0.0,0.0,-2.8505,-2.945,-3.0127,-3.0246,-3.0419,-3.0364,-2.9992,-2.976,-2.9239,-2.8398,-2.7561,0.0,0.0,0.0,0.0,0.0,0.0,0.0,0.0,0.0,0.0,0.0,0.0,0.0,0.0,0.0,0.0,0.0,0.0,0.0,0.0,0.0,0.0,0.0,0.0,0.0,0.0,0.0,0.0,0.0,0.0,0.0,0.0,0.0,0.0,0.0,0.0,0.0,0.0,0.0,0.0,0.0,0.0,0.0,0.0,0.0,0.0,0.0,0.0,0.0,0.0,0.0,0.0,0.0,0.0,0.0,-2.7736,-2.7985,-2.847,-2.8985,-2.7274,-2.6452,-2.6259,0.0,0.0,0.0,0.0,0.0,0.0,0.0,0.0,0.0,0.0,0.0,0.0,0.0,0.0,0.0,0.0,0.0,0.0,0.0,0.0,0.0,0.0,0.0,0.0,0.0,-2.7442,-2.6962,0.0,0.0,0.0,0.0,0.0,0.0,0.0,0.0,0.0,0.0,0.0,0.0,-2.8771,-3.0019,-3.0832,-3.0692,-3.1048,-3.1016,-3.0427,-3.0351,-2.9934,-2.9021,-2.8291,-2.7483,0.0,0.0,0.0,0.0,0.0,0.0,0.0,0.0,0.0,0.0,0.0,0.0,0.0,0.0,0.0,0.0,0.0,0.0,0.0,0.0,0.0,0.0,0.0,0.0,0.0,0.0,0.0,0.0,0.0,0.0,0.0,0.0,-1.9954,-2.0435,0.0,0.0,0.0,0.0,0.0,0.0,0.0,0.0,0.0,0.0,0.0,0.0,0.0,0.0,-2.6235,-2.6405,-2.681,-2.7453,-2.8099,-2.8585,-2.9,-2.9544,-2.9929,-3.0181,-3.0009,0.0,-2.8802,-2.8864,0.0,0.0,0.0,0.0,0.0,0.0,0.0,0.0,0.0,0.0,0.0,0.0,0.0,0.0,0.0,0.0,0.0,0.0,0.0,0.0,0.0,0.0,-2.9066,-2.9024,-2.8865,-2.8671,0.0,-2.7702,-2.701,-2.6837,0.0,0.0,0.0,0.0,0.0,0.0,0.0,0.0,-3.0465,-3.0534,-3.0834,-3.1762,-3.1386,-3.1194,-3.1536,-3.0699,-3.0072,-2.9915,-2.8446,-2.7491,-2.7347,-2.5782,0.0,0.0,0.0,0.0,0.0,0.0,0.0,0.0,0.0,0.0,0.0,0.0,0.0,0.0,0.0,0.0,0.0,0.0,0.0,0.0,0.0,0.0,0.0,0.0,0.0,0.0,0.0,0.0,0.0,-2.0813,-2.155,-2.2048,-2.2322,-2.2673,0.0,0.0,0.0,0.0,0.0,0.0,0.0,0.0,0.0,-2.6386,-2.6713,-2.7151,-2.7661,-2.8001,-2.8459,-2.9118,-2.9473,-3.0148,-3.1074,-3.1424,-3.1878,-3.2363,-3.2422,-3.229,-3.1949,-3.0835,-3.0308,-3.0199,0.0,0.0,0.0,0.0,0.0,-2.9076,-2.8851,0.0,0.0,0.0,0.0,0.0,0.0,0.0,0.0,0.0,0.0,0.0,0.0,0.0,0.0,-3.0713,-3.0908,-3.1055,-3.0952,-3.0286,-2.9449,0.0,-2.8191,-2.8302,-2.8551,0.0,0.0,0.0,0.0,0.0,-3.099,-3.1254,-3.1619,-3.2345,-3.2136,-3.2045,-3.2293,-3.1523,-3.0923,-3.0634,-2.9467,-2.8369,-2.7442,-2.6557,-2.5523,0.0,0.0,0.0,0.0,0.0,0.0,0.0,0.0,0.0,0.0,0.0,0.0,0.0,0.0,0.0,0.0,0.0,0.0,0.0,0.0,0.0,0.0,0.0,0.0,0.0,0.0,0.0,0.0,-2.2191,-2.3054,-2.3589,-2.3916,-2.4282,0.0,0.0,0.0,0.0,0.0,0.0,-2.6452,-2.717,-2.7758,-2.8142,-2.8752,-2.9118,-2.9261,-2.9706,-3.0228,-3.079,-3.0926,-3.1561,-3.265,-3.2762,-3.3208,-3.3844,-3.4032,-3.4215,-3.4219,-3.264,-3.1917,-3.1847,-3.1983,-3.164,0.0,-3.1232,-3.1016,-3.0654,-3.0786,-3.0849,-3.0849,-3.0849,0.0,-3.0786,-3.0786,0.0,0.0,0.0,0.0,-3.1271,-3.1104,0.0,-3.2396,-3.2396,-3.2703,-3.296,-3.274,-3.2336,-3.155,0.0,-2.9452,-2.946,-2.9832,0.0,0.0,0.0,0.0,-3.1209,-3.1615,-3.2014,-3.2423,-3.2895,-3.2777,-3.2751,-3.2908,-3.2176,-3.1538,-3.1146,-3.0243,-2.9112,-2.7739,-2.7233,-2.6312,-2.486,0.0,0.0,0.0,0.0,0.0,0.0,0.0,0.0,0.0,0.0,0.0,0.0,0.0,0.0,0.0,0.0,0.0,0.0,0.0,0.0,0.0,0.0,0.0,0.0,0.0,0.0,0.0,0.0,0.0,-2.4835,-2.5869,0.0,0.0,0.0,0.0,-2.732,-2.7889,-2.825,-2.8289,-2.9304,-2.9944,-2.997,-3.0555,-3.1117,-3.1628,-3.1667,-3.1967,-3.2568,-3.2568,-3.2699,-3.2987,-3.3183,-3.3404,-3.3639,-3.4426,-3.4748,-3.4733,-3.4233,-3.3806,-3.3482,-3.3482,-3.3109,-3.2607,-3.282,-3.2876,-3.2848,-3.3059,-3.3129,-3.3129,-3.3129,-3.2989,-3.2848,-3.2848,-3.2707,0.0,0.0,-3.2958,-3.3427,-3.3427,-3.3747,-3.4077,-3.4077,-3.3952,-3.3774,-3.3596,-3.353,-3.303,0.0,-3.0703,-3.0337,-3.0351,0.0,-3.0438,-3.1545,-3.1429,-3.1604,-3.2763,-3.2778,-3.2881,-3.3483,-3.3038,-3.2921,-3.3496,-3.2279,-3.1487,-3.15,-3.0238,-2.9254,-2.8662,-2.7588,-2.6683,-2.603,-2.4911,0.0,0.0,0.0,0.0,0.0,0.0,0.0,0.0,0.0,0.0,0.0,0.0,0.0,0.0,0.0,0.0,0.0,0.0,0.0,0.0,0.0,0.0,0.0,0.0,0.0,0.0,0.0,0.0,-2.6543,-2.7301,0.0,0.0,-2.8869,-2.9174,-2.9174,-2.9732,-3.0215,-3.0557,-3.0962,-3.1367,-3.1771,-3.198,-3.2189,-3.2385,-3.2385,-3.2685,-3.3273,-3.3626,-3.4103,-3.4703,-3.5143,-3.5578,-3.595,-3.6235,-3.6412,-3.651,-3.6375,-3.587,-3.5164,-3.5281,-3.522,-3.5027,-3.5103,-3.5103,-3.5086,-3.4774,-3.4635,-3.458,-3.4178,-3.4016,-3.3979,-3.3979,-3.3905,-3.3951,-3.4337,-3.4499,-3.467,-3.5055,-3.5446,-3.5696,-3.5561,-3.5777,-3.5965,-3.5703,-3.5368,-3.4794,-3.3844,-3.2932,-3.2252,-3.2252,-3.2201,-3.2259,-3.2545,-3.2458,-3.2593,-3.3289,-3.3314,-3.3483,-3.4045,-3.3914,-3.3875,-3.4097,-3.3188,-3.2458,-3.2096,-3.1035,-3.0012,-2.907,-2.8174,-2.7268,-2.638,-2.5575,-2.4918,0.0,0.0,0.0,0.0,0.0,0.0,0.0,0.0,0.0,0.0,0.0,0.0,0.0,0.0,0.0,0.0,0.0,0.0,0.0,0.0,0.0,0.0,0.0,0.0,0.0,0.0,-2.7348,-2.8101,-2.8768,-2.9389,-2.9975,-3.0623,-3.0999,-3.0999,-3.1352,-3.181,-3.2359,-3.2567,-3.2973,-3.3548,-3.3744,-3.3849,-3.3849,-3.3849,-3.4045,-3.445,-3.4803,-3.5267,-3.5789,-3.627,-3.6658,-3.6986,-3.7359,-3.7583,-3.7725,-3.8,-3.7692,-3.7098,-3.6811,-3.6688,-3.6728,-3.6796,-3.6796,-3.6781,-3.6436,-3.6338,-3.6269,-3.5868,-3.5691,-3.5613,-3.5613,-3.5574,-3.5591,-3.5989,-3.6018,-3.5993,-3.6307,-3.6619,-3.675,-3.6525,-3.6777,-3.7016,-3.6744,-3.6396,-3.5955,-3.546,-3.4431,-3.3541,-3.3341,-3.3263,-3.3237,-3.3265,-3.3265,-3.3356,-3.3824,-3.3862,-3.4005,-3.4358,-3.4397,-3.4397,-3.4397,-3.3586,-3.2866,-3.2339,-3.1349,-3.0288,-2.9151,-2.8648,-2.7871,-2.6788,-2.5988,-2.5335,-2.4788,0.0,0.0,0.0,0.0,0.0,0.0,0.0,0.0,0.0,0.0,0.0,0.0,0.0,0.0,0.0,0.0,0.0,0.0,0.0,0.0,0.0,0.0,0.0,-2.7041,-2.754,-2.8273,-2.9422,-3.025,-3.0931,-3.15,-3.2254,-3.2751,-3.2777,-3.279,-3.3051,-3.3639,-3.4162,-3.4724,-3.5312,-3.5835,-3.6109,-3.6109,-3.6109,-3.6109,-3.6109,-3.6123,-3.6136,-3.6136,-3.6437,-3.6537,-3.6607,-3.7628,-3.8101,-3.8186,-3.8986,-3.9305,-3.9139,-3.8,-3.7553,-3.7582,-3.7753,-3.7823,-3.7852,-3.8131,-3.8172,-3.82,-3.82,-3.8006,-3.7769,-3.7769,-3.767,-3.7499,-3.7512,-3.7526,-3.7483,-3.7284,-3.7254,-3.7169,-3.6927,-3.6827,-3.6784,-3.6581,-3.6537,-3.6481,-3.6179,-3.5139,-3.41,-3.3475,-3.3238,-3.3304,-3.3898,-3.3775,0.0,-3.4358,-3.441,-3.4397,-3.4397,-3.4397,-3.4397,-3.4397,-3.3475,-3.2703,-3.2138,-3.1162,-3.0104,-2.8988,-2.8913,-2.8411,-2.7331,-2.6214,-2.5385,-2.4838,0.0,0.0,0.0,0.0,0.0,0.0,0.0,0.0,0.0,0.0,0.0,0.0,0.0,0.0,0.0,0.0,0.0,0.0,0.0,0.0,0.0,0.0,-2.8931,-2.8237,-2.9001,-2.9883,-3.065,-3.1265,-3.1856,-3.2446,-3.3245,-3.3861,-3.4276,-3.4849,-3.5247,-3.5404,-3.5547,-3.5704,-3.5874,-3.6018,-3.6109,-3.6109,-3.6109,-3.6109,-3.6109,-3.6541,-3.6763,-3.6776,-3.7252,-3.7584,-3.7738,-3.8045,-3.8304,-3.8465,-3.8715,-3.8782,-3.8787,-3.882,-3.8817,-3.8817,-3.8847,-3.8619,-3.8252,-3.8295,-3.8065,-3.7697,-3.7697,-3.7655,-3.7557,-3.7557,-3.7528,-3.758,-3.7841,-3.7919,-3.7984,-3.8194,-3.8212,-3.8167,-3.7873,-3.7828,-3.7783,-3.7539,-3.7507,-3.7376,-3.6841,-3.6472,-3.6048,-3.5444,-3.5296,-3.5306,-3.5463,0.0,0.0,-3.5025,-3.4672,-3.4397,-3.4397,-3.4397,-3.4356,-3.4202,-3.3753,-3.321,-3.2495,-3.165,-3.0871,-3.0181,-2.9327,-2.8562,-2.7896,-2.718,-2.6553,0.0,0.0,0.0,0.0,0.0,0.0,0.0,0.0,0.0,0.0,0.0,0.0,0.0,0.0,0.0,0.0,0.0,0.0,0.0,0.0,0.0,0.0,-2.9265,-3.0313,-3.0455,-3.0849,-3.1318,-3.1902,-3.253,-3.3173,-3.376,-3.4405,-3.4943,-3.5236,-3.5796,-3.6214,-3.6462,-3.6488,-3.6593,-3.6854,-3.6854,-3.6854,-3.6854,-3.6854,-3.6854,-3.6867,-3.7207,-3.7377,-3.739,-3.7743,-3.7979,0.0,-3.8167,-3.8449,-3.8838,-3.8903,-3.9095,0.0,0.0,0.0,0.0,0.0,-3.9011,-3.86,-3.86,-3.8458,-3.8231,-3.8131,-3.8263,-3.8421,-3.8334,-3.8464,-3.8733,-3.8948,-3.8996,-3.9031,-3.9136,-3.9124,-3.9091,-3.8859,-3.8766,-3.8733,-3.8665,-3.8619,-3.8436,-3.7835,0.0,0.0,-3.6959,-3.6436,-3.6109,-3.6109,-3.5835,-3.5639,0.0,-3.5325,-3.5025,-3.4803,-3.4776,-3.4588,-3.4144,-3.3852,0.0,0.0,0.0,-3.1399,-3.0645,-2.949,0.0,0.0,0.0,-2.741,0.0,0.0,0.0,0.0,-2.5724,-2.5787,0.0,0.0,0.0,0.0,0.0,0.0,0.0,0.0,0.0,0.0,0.0,0.0,0.0,0.0,0.0,0.0,-3.0495,-3.1424,-3.2955,-3.283,-3.2754,-3.3206,-3.3858,-3.4508,-3.5091,-3.5558,-3.5851,-3.596,-3.6155,-3.6496,-3.7077,0.0,0.0,0.0,0.0,-3.79,-3.79,-3.79,-3.79,-3.79,-3.79,-3.79,-3.79,-3.7965,-3.7991,-3.7991,-3.826,-3.8668,-3.9169,-3.9362,-3.9761,-4.0146,-3.9156,-3.9095,-3.9475,-3.9475,-3.9325,0.0,0.0,0.0,0.0,-3.9123,-3.9441,-3.9838,-3.9581,-3.9861,-4.0287,-4.0239,-4.0239,-4.0192,-3.9942,-3.9894,-3.9799,-3.9647,-3.9612,-3.9612,-3.9564,-3.9551,-3.9407,-3.8812,-3.8721,-3.8538,-3.799,-3.7006,-3.6305,-3.6305,-3.6253,0.0,-3.6201,-3.6149,-3.5913,-3.5443,0.0,0.0,-3.4218,-3.3891,-3.3381,-3.2688,-3.2378,-3.1763,-3.0746,-2.964,-2.9076,-2.9038,-2.8301,-2.7952,-2.8124,-2.7902,-2.7927,-2.8135,-2.713,-2.7014,0.0,0.0,0.0,0.0,0.0,0.0,0.0,0.0,0.0,0.0,0.0,0.0,0.0,0.0,0.0,-3.0909,-3.1938,-3.2867,-3.3633,-3.4367,-3.4731,-3.4449,-3.4544,-3.4821,-3.5374,-3.5699,-3.6151,-3.6808,-3.7077,-3.7358,-3.773,-3.773,0.0,-3.79,-3.79,-3.79,-3.79,-3.79,-3.79,-3.79,0.0,0.0,-3.7913,-3.8357,-3.8553,-3.8579,-3.911,-3.9385,-3.949,-3.9524,-3.9638,-3.9764,-3.9919,-4.002,-4.0127,-4.0127,-4.0094,-4.0047,-4.0047,-4.0047,-4.0094,-4.0047,-4.0114,-4.0174,-4.0161,-4.0207,0.0,-4.0037,-3.9976,-3.9942,-3.9729,-3.9647,-3.9647,-3.9612,-3.9612,-3.9551,-3.9297,-3.9297,-3.9175,-3.883,-3.8756,-3.8576,-3.7985,-3.7727,-3.7547,-3.7547,-3.7142,-3.6828,-3.6828,-3.6397,-3.607,-3.5966,-3.5561,-3.5076,-3.4529,-3.3995,-3.3505,-3.3046,-3.252,-3.1926,-3.1273,-3.0633,-3.0202,-3.0032,-2.901,-2.8387,-2.8248,-2.7928,-2.8052,-2.8475,-2.8011,-2.8335,0.0,0.0,0.0,0.0,0.0,0.0,0.0,0.0,0.0,0.0,0.0,-2.8811,0.0,0.0,-3.1612,-3.2152,-3.3169,-3.4085,-3.465,-3.5157,-3.5395,-3.5119,-3.5378,-3.5655,-3.5931,-3.6164,-3.651,-3.7036,-3.7624,-3.8072,-3.8305,-3.8593,-3.8762,-3.8762,-3.8762,-3.8762,-3.8762,-3.8762,-3.8762,-3.8762,-3.8762,-3.8762,-3.8762,-3.9037,-3.9155,-3.9181,-3.9481,-3.9756,-4.003,-4.0344,-4.0461,-4.0461,-4.0693,-4.0434,-3.996,-4.0237,-4.024,-4.0084,-4.0084,-4.0192,-4.03,-4.0145,-4.0296,-4.0547,-4.039,-4.0553,-4.079,-4.0631,-4.0582,-4.0582,-4.0461,-4.0461,-4.0412,-4.0301,-4.0252,-4.0153,-3.9906,-3.9857,-3.9717,-3.9287,-3.9173,-3.9007,-3.8444,-3.8363,-3.8178,-3.7748,-3.7456,-3.7306,-3.7456,-3.7194,-3.6894,-3.6593,-3.6305,-3.5856,-3.5089,-3.4265,-3.3617,-3.3136,-3.2528,-3.2089,-3.1813,-3.1176,-3.0807,-3.0714,-2.9899,-2.9496,-2.9496,-2.9239,-2.9357,-2.9841,-2.9697,-2.9813,0.0,0.0,0.0,0.0,0.0,0.0,0.0,0.0,-2.8154,-2.8913,-2.9628,-3.0306,-3.0972,-3.2177,-3.3181,-3.3508,-3.4299,-3.5031,-3.5583,-3.5658,-3.5658,-3.5658,-3.6094,-3.6405,-3.6405,-3.6534,-3.6819,-3.7228,-3.7947,-3.8493,-3.888,-3.9351,-3.9612,-3.9612,-3.9612,-3.9612,-3.9612,-3.9612,-3.9612,-3.9612,-3.9612,-3.9612,-3.9612,-3.9716,-3.9769,-3.9769,-3.9886,-4.0187,-4.0631,-4.1115,-4.1311,-4.1311,-4.1311,-4.0749,-3.9991,-4.0435,-4.0389,-4.0175,-4.0175,-4.0333,-4.0442,-4.0223,-4.0505,-4.0864,-4.0641,-4.0932,-4.1311,-4.1311,-4.1311,-4.1311,-4.1311,-4.1261,-4.1161,-4.0933,-4.0833,-4.0744,-4.0491,-4.0402,-4.0262,-3.9738,-3.9649,-3.947,-3.8898,-3.8796,-3.8559,-3.7702,-3.7568,-3.7635,-3.7821,-3.7808,-3.7671,-3.7233,-3.7019,-3.6495,-3.5449,-3.4534,-3.3822,-3.3269,-3.2805,-3.2491,-3.239,-3.1656,-3.1245,-3.1203,-3.0648,-3.0474,-3.0575,-3.0516,-3.0682,-3.1055,-3.1236,-3.1173,-2.7344,-2.7637,0.0,-2.7844,-2.7869,-2.7894,0.0,0.0,-2.9579,-2.9666,-3.0507,-3.1537,-3.2604,-3.2955,-3.3558,-3.4981,-3.532,-3.5596,-3.6241,-3.6317,-3.6317,-3.6317,-3.6367,-3.6405,-3.6405,-3.6405,-3.6855,-3.7804,-3.8002,-3.8497,-3.9433,-3.9573,-3.9612,-3.9612,-3.9612,-3.9612,-3.9612,-3.9612,-3.9612,-3.9612,-3.9612,-3.9612,-3.9625,-4.0109,-4.0331,-4.0357,-4.0893,-4.1154,-4.1219,-4.1285,-4.1311,-4.1311,-4.1311,-4.1232,-4.1141,-4.1193,-4.118,-4.1165,-4.1165,-4.1165,-4.1165,-4.1165,-4.1217,-4.1219,-4.1219,-4.1259,-4.1311,-4.1311,-4.1311,-4.1311,-4.1311,-4.1097,-4.0933,-4.0883,-4.0744,-4.044,-4.0185,-4.0134,-4.0058,-3.9763,-3.9699,-3.9523,-3.8969,-3.8881,-3.864,-3.7983,-3.7864,-3.7779,-3.757,-3.7551,-3.7631,-3.7763,-3.7131,-3.6212,-3.5226,-3.481,-3.4399,-3.3847,-3.3746,-3.3495,-3.3006,-3.2229,-3.1732,-3.1533,-3.0814,-3.0307,-3.017,-3.0558,-3.0778,-3.0831,-3.1705,-3.2047,-2.7545,0.0,0.0,0.0,-2.8449,-2.8771,-2.9093,-2.9762,-3.0419,-3.0728,-3.1286,-3.2017,-3.3127,-3.3734,-3.4361,0.0,-3.5805,-3.6094,-3.6367,-3.6405,-3.6405,-3.6405,-3.6694,-3.6883,-3.6883,-3.6883,-3.7314,-3.8367,-3.8774,-3.93,-4.0021,-4.0409,-4.0605,-4.0605,-4.0605,-4.0605,-4.0605,-4.0605,-4.0605,-4.0605,-4.0605,-4.0605,-4.0605,-4.084,-4.0932,-4.0958,-4.1206,-4.1311,-4.1311,-4.1311,-4.1311,-4.1311,-4.1311,-4.1311,-4.1311,-4.1311,-4.1311,-4.1311,-4.1311,-4.1311,-4.1311,-4.1311,-4.1311,-4.1311,-4.1311,-4.1311,-4.1311,-4.1311,-4.1211,-4.1047,-4.1047,-4.0846,-4.0643,-4.0478,-4.0338,-4.0185,-3.9942,-3.989,-3.9839,-3.9749,-3.9697,-3.9622,-3.9383,-3.9346,-3.9183,-3.8576,-3.8051,-3.7734,-3.7728,-3.7466,-3.7307,-3.7413,-3.6983,-3.6381,-3.5651,-3.5327,-3.4919,-3.4412,-3.4374,-3.4274,-3.4048,-3.3158,-3.2611,-3.2523,-3.1636,-3.1098,-3.1043,-3.1369,-3.1596,-3.1724,-3.2264,-3.2752,-2.785,0.0,0.0,-2.8637,-2.914,-2.9644,-3.0036,-3.054,-3.1031,-3.1424,-3.1803,-3.2376,-3.3524,-3.4225,-3.4873,-3.5608,-3.6094,-3.6405,-3.6405,-3.6405,-3.6405,-3.6405,-3.6895,-3.7249,-3.74,-3.7412,-3.7882,-3.8979,-3.9477,-3.9971,-4.0608,-4.1076,-4.1311,-4.1311,-4.1311,-4.1311,-4.1311,-4.1311,-4.1311,-4.1311,-4.1311,-4.1311,-4.1311,-4.1311,-4.1311,-4.1311,-4.1311,-4.1311,-4.1311,-4.1311,-4.1311,-4.1311,-4.1311,-4.1311,-4.1311,-4.1311,-4.1311,-4.1311,-4.1311,-4.1311,-4.1311,-4.1311,-4.1311,-4.1311,-4.1311,-4.1261,-4.1211,-4.1211,-4.0997,-4.0795,-4.0795,-4.0593,-4.0338,-4.0134,-4.0032,-3.9929,-3.9736,-3.9697,-3.9697,-3.9697,-3.9697,-3.9697,-3.9697,-3.9697,-3.9559,-3.9157,-3.8477,-3.799,-3.8018,-3.7638,-3.7241,-3.7028,-3.6815,-3.651,-3.6058,-3.586,-3.5483,-3.4944,-3.4906,-3.4831,-3.4726,-3.39,-3.342,-3.342,-3.258,-3.209,-3.1934,-3.2358,-3.258,-3.2621,-3.3064,-3.3558,0.0,0.0,-2.9828,-2.984,-3.0245,-3.0663,-3.0675,-3.1092,-3.1485,-3.1509,-3.1982,-3.2783,-3.4107,-3.4375,-3.4828,-3.6157,-3.6405,-3.6405,-3.6405,-3.6405,-3.6405,-3.6405,-3.6895,-3.74,0.0,-3.799,-3.8463,-3.9594,-3.9708,-4.0151,-4.1209,-4.1311,-4.1311,-4.1311,-4.1311,-4.1311,-4.1311,-4.1311,-4.1311,-4.1311,-4.1311,-4.1311,-4.1311,-4.1311,-4.1311,-4.1311,-4.1311,-4.1311,-4.1311,-4.1311,-4.1311,-4.1311,-4.1311,-4.1311,-4.1311,-4.1311,-4.1311,-4.1311,-4.1311,-4.1311,-4.1311,-4.1311,-4.1311,-4.1311,-4.1311,-4.111,-4.0883,-4.0883,-4.0744,-4.0504,-4.0504,-4.0287,-4.0121,-4.007,-3.989,-3.9697,-3.9697,-3.9697,-3.9697,-3.9697,-3.9697,-3.9697,-3.9697,-3.9697,-3.9685,-3.9672,-3.9182,-3.8768,-3.8423,-3.8082,-3.7568,-3.6772,-3.6709,-3.6615,-3.638,-3.638,-3.6107,-3.5508,-3.547,-3.5232,-3.4705,-3.4214,-3.3986,-3.3986,-3.3514,-3.2996,-3.2478,-3.3475,-3.3691,-3.3187,-3.42,-3.4643,-2.9052,0.0,-2.9581,-2.9932,-3.0428,-3.0816,-3.0816,-3.1227,-3.1615,-3.1615,-3.1904,-3.2377,-3.3175,-3.3934,-3.4657,-3.546,-3.6072,-3.6405,-3.6405,-3.6405,-3.6543,-3.6908,-3.74,0.0,0.0,0.0,0.0,-4.0133,-4.0222,-4.0551,-4.1248,-4.1311,-4.1311,-4.1311,-4.1311,-4.1311,-4.1311,-4.1311,-4.1311,-4.1311,-4.1311,-4.1311,-4.1311,-4.1311,-4.1311,-4.1311,-4.1311,-4.1311,-4.1311,-4.1311,-4.1311,-4.1311,-4.1311,-4.1311,-4.1311,-4.1311,-4.1311,-4.1311,-4.1311,-4.1311,-4.1311,-4.1311,-4.1311,-4.1261,-4.1097,-4.0997,-4.0833,-4.0694,-4.044,-4.0236,-4.0236,-4.0032,-3.9839,-3.9839,-3.9788,-3.9697,-3.9697,-3.9697,-3.9697,-3.9697,-3.9697,-3.9697,-3.9697,-3.9697,-3.9697,-3.9697,-3.922,-3.8705,-3.8189,-3.8048,-3.7707,-3.7104,-3.7041,-3.6842,-3.6443,-3.6405,-3.6329,-3.6094,-3.6094,-3.6006,-3.5818,-3.5003,-3.4539,-3.4539,-3.3744,-3.32,-3.302,-3.3695,-3.3912,-3.374,-3.4412,-3.4868,-2.9208,-2.9581,-2.9941,-3.029,-3.0814,-3.1199,-3.1199,-3.1464,-3.1705,-3.1705,-3.1805,-3.2095,-3.2694,-3.3355,-3.4119,-3.5034,-3.5631,-3.6085,-3.638,-3.6405,-3.6619,-3.7123,-3.7663,-3.8228,0.0,0.0,0.0,-4.0427,-4.0504,-4.0707,-4.1261,-4.1311,-4.1311,-4.1311,-4.1311,-4.1311,-4.1311,-4.1311,-4.1311,-4.1311,-4.1311,-4.1311,-4.1311,-4.1311,-4.1311,-4.1311,-4.1311,-4.1311,-4.1311,-4.1311,-4.1311,-4.1311,-4.1311,-4.1311,-4.1311,-4.1311,-4.1311,-4.1311,-4.1311,-4.1311,-4.1311,-4.1311,-4.1261,-4.1097,-4.0933,-4.0782,-4.0593,-4.0389,-4.0134,-3.9981,-3.9981,-3.9839,-3.9697,-3.9697,-3.9697,-3.9697,-3.9697,-3.9697,-3.9697,-3.9697,-3.9697,-3.9697,-3.9697,-3.9697,-3.9697,-3.9697,-3.9396,-3.8969,-3.8391,-3.8316,-3.8103,-3.7538,-3.7475,-3.7262,-3.6744,-3.6707,-3.6619,-3.6417,-3.6405,-3.6405,-3.6405,-3.5655,-3.5199,-3.5104,-3.4349,-3.3882,-3.3701,-3.4257,-3.4524,-3.4419,-3.5032,-3.5491,-2.9328,-3.0086,-3.0922,-3.0946,-3.1332,-3.1705,-3.1705,-3.1681,-3.1669,-3.1669,-3.1645,-3.1821,0.0,0.0,-3.3277,-3.4851,-3.5155,-3.5472,-3.6245,-3.6392,-3.6619,0.0,0.0,0.0,0.0,0.0,0.0,-4.0453,0.0,-4.0707,-4.1261,-4.1261,-4.1311,-4.1311,-4.1311,-4.1311,-4.1311,-4.1311,-4.1311,-4.1311,-4.1311,-4.1311,-4.1311,-4.1311,-4.1311,-4.1311,-4.1311,-4.1311,-4.1311,-4.1311,-4.1311,-4.1311,-4.1311,-4.1311,-4.1311,-4.1311,-4.1311,-4.1311,-4.1311,-4.1311,-4.1311,-4.1261,-4.1097,-4.0883,-4.0883,-4.0478,-4.007,-4.007,-3.989,-3.9697,-3.9697,-3.9697,-3.9697,-3.9697,-3.9722,-3.9735,-3.9735,-3.9735,-3.9735,-3.9735,-3.971,-3.9697,-3.9697,-3.9697,-3.9697,-3.9697,-3.9697,-3.9509,-3.9032,-3.8957,-3.8693,-3.8115,-3.8052,-3.7826,-3.7274,-3.7224,-3.6998,-3.648,-3.6455,-3.6443,-3.6405,-3.6146,-3.5872,-3.562,-3.5368,-3.4968,-3.4469,-3.5219,-3.5493,-3.5254,-3.6025,-3.6405,-2.9785,-3.0374,-3.1019,-3.1404,-3.1609,-3.1705,-3.1705,-3.1404,-3.1115,-3.1115,-3.0814,-3.0694,0.0,0.0,0.0,-3.3527,-3.4545,0.0,-3.5683,-3.6107,0.0,-3.7688,0.0,-3.8391,-3.9383,-3.9609,0.0,0.0,-4.0389,-4.0656,-4.0997,-4.1211,-4.1311,-4.1311,-4.1311,-4.1311,-4.1311,-4.1311,-4.1311,-4.1311,-4.1311,-4.1411,-4.1597,-4.1411,-4.1411,-4.1597,-4.1411,-4.1311,-4.1311,-4.1311,-4.1311,-4.1311,-4.1311,-4.1311,-4.1311,-4.1311,-4.1311,-4.1311,-4.1311,-4.1311,-4.1261,-4.1047,-4.0946,-4.0846,-4.044,-4.0236,-4.0083,-3.9839,-3.9736,-3.9697,-3.9697,-3.9697,-3.9697,-3.9697,-4.0011,-4.0312,-4.0312,-4.0312,-4.0312,-4.0312,-3.9973,-3.9697,-3.9697,-3.9697,-3.9697,-3.9697,-3.9697,-3.9647,-3.9496,-3.9484,-3.927,-3.8718,-3.8655,-3.8417,-3.7852,-3.7801,-3.7563,-3.701,-3.6973,-3.6832,-3.643,-3.6146,-3.5968,-3.592,-3.562,-3.5451,-3.5316,-3.5702,-3.5833,-3.5804,-3.6213,-3.6499,-3.0013,-3.0639,-3.1332,-3.1633,-3.1536,-3.1356,-3.1356,-3.0946,-3.053,-3.053,-3.029,0.0,-3.047,0.0,0.0,0.0,0.0,0.0,-3.5386,-3.5805,-3.6496,0.0,-3.8002,0.0,-3.9584,-3.9697,-3.9736,0.0,-4.03,-4.0593,-4.0883,-4.1147,-4.1311,-4.1311,-4.1311,-4.1311,-4.1311,-4.1311,-4.1311,-4.1311,-4.1411,-4.1547,-4.1696,-4.1647,-4.1647,-4.1696,0.0,-4.1411,-4.1311,-4.1311,-4.1311,-4.1311,-4.1311,-4.1311,-4.1311,-4.1311,-4.1311,-4.1311,-4.1311,-4.1311,-4.1261,-4.0997,-4.0846,-4.0643,-4.0224,-4.0032,-3.989,-3.9736,-3.9697,-3.9697,-3.9697,-3.9873,-4.0061,-4.0061,-4.0475,-4.0824,-4.0824,-4.0689,-4.0438,-4.0199,-3.991,-3.9697,-3.9697,-3.9697,-3.9697,-3.9697,-3.9697,-3.9697,-3.9697,-3.9697,-3.9572,-3.927,-3.9233,-3.9007,-3.8429,-3.8379,-3.814,-3.7575,-3.755,-3.7299,-3.6795,-3.6591,-3.6347,-3.6015,-3.586,-3.5764,-3.5764,-3.592,-3.6051,-3.6193,-3.6323,-3.6499,-3.0074,-3.085,-3.1609,-3.1609,-3.1259,-3.0898,-3.0826,-3.0362,-2.9977,-2.9977,0.0,-2.9893,-2.9965,-3.0549,-3.126,-3.2142,0.0,-3.3849,-3.5186,-3.5458,-3.611,-3.7814,-3.8002,-3.8454,-3.9584,-3.9697,-3.9697,-3.9736,-4.0198,-4.0605,-4.0846,-4.1161,-4.1311,-4.1311,-4.1311,-4.1311,-4.1311,-4.1311,-4.1311,-4.1311,-4.1547,-4.1696,-4.1746,-4.198,-4.2033,-4.1865,0.0,0.0,-4.1428,-4.1428,-4.1376,-4.1311,-4.1311,-4.1311,-4.1311,-4.1311,-4.1311,-4.1311,-4.1311,-4.1311,-4.1261,-4.0946,-4.0694,-4.0453,-4.0134,-3.989,-3.9697,-3.9697,-3.9747,-3.9798,-3.9798,-4.0212,-4.0626,-4.0626,-4.0987,-4.1388,-4.1388,-4.1015,-4.0438,-3.9823,-3.9697,-3.9697,-3.9697,-3.9697,-3.9697,-3.9697,-3.9697,-3.9697,-3.9697,-3.9697,-3.9697,-3.9697,-3.9697,-3.9496,-3.907,-3.9032,-3.873,-3.8165,-3.8115,-3.7864,-3.7312,-3.7224,-3.6877,-3.6175,-3.6088,-3.6063,-3.6063,-3.6063,-3.6193,-3.6405,-3.6405,-3.6546,-2.9965,-3.0585,-3.1055,-3.1055,-3.0995,-3.0802,-3.0326,-2.9809,0.0,0.0,-2.9088,-2.8919,-2.9352,-2.9702,-3.0284,-3.1552,0.0,0.0,0.0,0.0,-3.611,0.0,0.0,0.0,0.0,0.0,0.0,0.0,0.0,0.0,-4.0555,-4.101,-4.1311,-4.1311,-4.1311,-4.1311,-4.1311,-4.1311,-4.1311,-4.1311,-4.1547,-4.1845,-4.2029,-4.2079,-4.2358,-4.2738,0.0,0.0,-4.2017,-4.2017,-4.1742,-4.1311,-4.1311,-4.1311,-4.1311,-4.1311,-4.1311,-4.1311,-4.1311,-4.1311,-4.1211,-4.0757,-4.0555,-4.0402,-3.9942,-3.9736,-3.9697,-3.9697,-4.0023,-4.0375,-4.0375,-4.0777,-4.115,-4.115,-4.1618,-4.2062,-4.2062,-4.158,-4.0902,-3.9885,-3.9697,-3.9697,-3.9697,-3.9697,-3.9697,-3.9697,-3.9697,-3.9697,-3.9697,-3.9697,-3.9697,-3.9697,-3.9697,-3.9647,-3.9559,-3.9546,-3.932,-3.8755,-3.8718,-3.8467,-3.7889,-3.7425,-3.7136,-3.7,-3.6549,-3.6323,-3.6323,-3.6323,-3.637,-3.6405,-3.6405,-3.664,-2.9605,-3.0062,-3.0458,-3.0458,-3.0254,-2.9989,-2.9737,0.0,0.0,0.0,-2.8026,-2.7849,-2.8524,0.0,0.0,0.0,0.0,0.0,0.0,0.0,0.0,0.0,0.0,0.0,0.0,0.0,0.0,0.0,0.0,0.0,0.0,-4.106,-4.1311,-4.1311,-4.1311,-4.1311,-4.1311,-4.1311,-4.1311,-4.1311,-4.1696,-4.2153,-4.2608,-4.2843,-4.3228,-4.364,0.0,0.0,-4.2862,-4.2393,-4.2004,-4.1729,-4.1428,-4.1311,-4.1311,-4.1311,-4.1311,-4.1311,-4.1311,-4.1311,-4.1211,-4.0846,-4.0605,-4.0402,-3.9852,-3.9885,-4.0124,-4.0124,-4.0513,-4.094,-4.094,-4.1354,-4.1769,-4.1769,-4.2183,-4.2421,-4.1856,-4.1517,-4.0962,-3.991,-3.9697,-3.9697,-3.9697,-3.9697,-3.9697,-3.9697,-3.9697,-3.9697,-3.9697,-3.9697,-3.9697,-3.9697,-3.9697,-3.9697,-3.9697,-3.9697,-3.9584,-3.932,-3.9295,-3.9044,-3.8479,-3.7914,-3.7475,-3.7199,-3.6681,-3.6405,-3.6405,-3.6405,-3.6405,-3.6405,-3.6499,-3.6769,-2.9268,-2.9605,-2.9917,-2.9917,-2.9605,-2.9232,-2.9015,-2.8318,0.0,0.0,-2.7224,-2.7119,-2.772,0.0,-2.9287,0.0,-3.1201,0.0,0.0,0.0,0.0,0.0,0.0,0.0,0.0,0.0,0.0,0.0,0.0,0.0,0.0,-4.1211,-4.1311,-4.1311,-4.1311,-4.1311,-4.1311,-4.1311,-4.1311,-4.1324,-4.1964,-4.2532,-4.2998,-4.3669,-4.4148,-4.4447,0.0,0.0,0.0,-4.2877,-4.2434,-4.2172,-4.1677,-4.1415,-4.1311,-4.1311,-4.1311,-4.1311,-4.1311,-4.1311,-4.1261,-4.0997,-4.0744,-4.0428,-4.0081,-4.0226,-4.0538,-4.0664,-4.1091,-4.1517,-4.1517,-4.1919,-4.2389,-4.2389,-4.266,-4.2672,-4.1526,-4.1288,-4.0962,-3.991,-3.9697,-3.9697,-3.9697,-3.9697,-3.9697,-3.9697,-3.9697,-3.9697,-3.9697,-3.9697,-3.9697,-3.9697,-3.9697,-3.9697,-3.9697,-3.9697,-3.9697,-3.9697,-3.9697,-3.9496,-3.9069,-3.8379,-3.7801,-3.7362,-3.6744,-3.6405,-3.6405,-3.6405,-3.6405,-3.6452,-3.6628,-3.6862,-2.9172,-2.9328,-2.9364,-2.9364,-2.934,-2.9039,-2.8089,0.0,0.0,-2.7066,-2.7072,-2.7185,-2.7259,-2.8012,-2.8821,-2.9406,-3.0613,-3.1838,0.0,0.0,0.0,0.0,0.0,0.0,0.0,0.0,0.0,0.0,0.0,0.0,0.0,-4.1261,-4.1311,-4.1311,-4.1311,-4.1311,-4.1311,-4.1311,-4.1311,-4.1324,-4.2401,-4.2944,-4.3061,-4.4115,-4.4783,-4.5,0.0,0.0,0.0,-4.3887,-4.3154,-4.2211,-4.2159,-4.1768,-4.1311,-4.1311,-4.1311,-4.1311,-4.1311,-4.1311,-4.1261,-4.0997,-4.0744,-4.0555,-4.0731,-4.0673,-4.0626,-4.1075,-4.1656,-4.2137,-4.2137,-4.2539,-4.2898,-4.2898,-4.2936,-4.2672,-4.1526,-4.1288,-4.0962,-3.991,-3.9697,-3.9697,-3.9697,-3.9697,-3.9697,-3.9697,-3.9697,-3.9697,-3.9697,-3.9697,-3.9697,-3.9697,-3.9697,-3.9697,-3.9697,-3.9697,-3.9697,-3.9697,-3.9697,-3.9672,-3.9622,-3.858,-3.799,-3.7939,-3.6945,-3.6405,-3.6405,-3.6405,-3.6499,-3.6675,-3.6675,-3.6956,-2.8679,-2.8823,-2.8823,-2.8823,-2.8582,-2.8246,-2.7813,0.0,-2.672,-2.6626,-2.6396,-2.6407,-2.6991,-2.7371,-2.7952,-2.895,-3.0115,0.0,-3.1951,0.0,0.0,0.0,0.0,0.0,0.0,0.0,0.0,0.0,0.0,0.0,0.0,0.0,-4.1311,-4.1311,-4.1311,-4.1311,-4.1311,-4.1311,-4.1481,-4.1834,-4.2626,-4.3357,-4.4075,-4.4857,-4.5508,0.0,0.0,0.0,0.0,-4.4229,-4.3651,-4.318,-4.2486,-4.2081,-4.1794,-4.1442,-4.1311,-4.1311,-4.1311,-4.1311,-4.1261,-4.1161,-4.0946,-4.0746,-4.0847,-4.0951,-4.1128,-4.1668,-4.2233,-4.2703,-4.2703,-4.2811,-4.2974,-4.2974,-4.2974,-4.2773,-4.1995,-4.158,-4.1062,-4.0337,-3.9923,-3.9697,-3.9697,-3.9697,-3.9697,-3.9697,-3.9697,-3.9697,-3.9697,-3.9697,-3.9697,-3.9697,-3.9697,-3.9697,-3.9697,-3.9697,-3.9697,-3.9697,-3.9697,-3.9697,-3.9697,-3.8605,-3.8002,-3.8002,-3.6971,-3.6452,-3.6581,-3.6581,-3.6675,-3.6956,-3.7121,-3.7307,-2.8174,-2.839,-2.8474,-2.8318,-2.7993,-2.7633,0.0,0.0,-2.6166,-2.6166,-2.5944,-2.5974,-2.6638,-2.6943,-2.7426,-2.8487,-2.9641,-3.0608,-3.1298,-3.3169,0.0,0.0,0.0,0.0,0.0,0.0,0.0,0.0,0.0,0.0,0.0,0.0,-4.1311,-4.1311,-4.1311,-4.1402,-4.1559,-4.1572,-4.186,-4.2473,-4.3156,-4.3917,-4.4742,-4.5491,-4.6075,0.0,0.0,0.0,0.0,-4.4558,-4.4029,-4.3847,-4.3036,-4.2512,-4.2172,-4.1716,-4.1455,-4.1311,-4.1311,-4.1311,-4.1311,-4.1311,-4.111,-4.0885,-4.1002,-4.1208,-4.155,-4.2049,-4.2602,-4.2974,-4.2974,-4.2974,-4.2974,-4.2974,-4.2974,-4.2823,-4.2326,-4.1856,-4.1417,-4.0865,-4.0438,-4.0174,-4.0174,-4.0049,-3.9936,-3.9936,-3.9798,-3.9697,-3.9697,-3.9697,-3.9697,-3.9697,-3.9697,-3.9697,-3.9697,-3.9697,-3.9697,-3.9697,-3.9697,-3.9697,-3.9697,-3.8831,-3.829,-3.8114,-3.7291,-3.6865,-3.6815,-3.6815,-3.6968,-3.7214,-3.758,-3.7948,-2.769,-2.8114,-2.8378,-2.7822,-2.769,-2.7402,0.0,0.0,-2.625,-2.5727,-2.591,-2.6213,-2.6213,-2.6789,-2.7457,-2.8021,-2.9063,-3.0168,-3.1235,-3.2842,0.0,0.0,0.0,0.0,0.0,0.0,0.0,0.0,0.0,0.0,0.0,0.0,-4.1311,-4.1311,-4.1311,-4.1585,-4.2198,-4.2211,-4.2448,-4.3023,-4.4136,-4.4676,-4.4755,-4.5961,0.0,0.0,0.0,0.0,0.0,-4.4938,-4.4382,-4.3926,-4.3912,-4.3219,-4.2211,-4.2211,-4.1794,-4.1311,-4.1311,-4.1311,-4.1311,-4.1311,-4.111,-4.0949,-4.1222,-4.1459,-4.1752,-4.2104,-4.2602,-4.2974,-4.2974,-4.2974,-4.2974,-4.2974,-4.2974,-4.2823,-4.2326,-4.2213,-4.2037,-4.1388,-4.1275,-4.1263,-4.1263,-4.0811,-4.0513,-4.0513,-4.0036,-3.9697,-3.9697,-3.9697,-3.9697,-3.9697,-3.9697,-3.9697,-3.9697,-3.9697,-3.9697,-3.9697,-3.9697,-3.9697,-3.9697,-3.9424,-3.9018,-3.8434,-3.8117,-3.7698,-3.7108,-3.7108,-3.7214,-3.7518,-3.8122,-3.8977,-2.7256,-2.7372,-2.7354,-2.7186,-2.6974,-2.6711,-2.6372,0.0,-2.6037,-2.6017,-2.6097,-2.6236,-2.6361,-2.6615,-2.7065,-2.7959,-2.8725,-2.9716,-3.1185,0.0,0.0,0.0,0.0,0.0,0.0,0.0,0.0,0.0,0.0,0.0,0.0,0.0,0.0,-4.1311,-4.169,-4.199,-4.2211,-4.2552,-4.3036,-4.3598,-4.419,-4.4758,-4.5315,0.0,0.0,0.0,0.0,0.0,0.0,-4.4951,-4.4617,-4.4421,-4.4029,-4.3415,-4.2709,-4.2368,-4.1808,-4.1311,-4.1311,-4.1311,-4.1311,-4.1311,-4.1261,-4.1136,-4.1065,-4.1093,-4.1311,-4.2003,-4.2602,-4.2974,-4.2974,-4.2974,-4.2974,-4.2974,-4.2974,-4.2924,-4.2748,-4.2476,-4.215,-4.1932,-4.1593,-4.1288,-4.1288,-4.1137,-4.1025,-4.1025,-4.0759,-4.0498,-4.0498,-4.0376,-4.0249,-4.0249,-4.0249,-4.0147,-3.9981,-3.9981,-4.0032,-4.0249,-4.0249,-4.0249,-4.0249,-3.9815,-3.9482,-3.929,-3.8777,-3.8537,-3.8562,-3.8562,-3.8752,-3.9239,-3.9598,-4.0232,0.0,-2.7065,-2.7074,-2.6868,-2.6676,0.0,0.0,0.0,0.0,-2.6166,-2.627,-2.6339,-2.6499,-2.6663,-2.7102,-2.7959,-2.875,-2.9754,-3.1185,0.0,0.0,0.0,0.0,0.0,0.0,0.0,0.0,0.0,0.0,0.0,0.0,0.0,0.0,-4.1638,-4.1977,-4.2421,-4.2853,-4.3167,-4.3637,-4.4199,-4.4519,-4.4917,-4.5448,0.0,0.0,0.0,0.0,0.0,0.0,-4.4897,-4.4668,-4.4696,-4.433,-4.3846,-4.3271,-4.2709,-4.2134,-4.1611,-4.1389,-4.1311,-4.1311,-4.1311,-4.1211,-4.111,-4.0933,-4.0875,-4.1045,-4.1701,-4.2246,-4.2728,-4.2728,-4.2879,-4.2974,-4.2974,-4.2974,-4.2974,-4.2974,-4.2766,-4.2514,-4.2624,-4.2347,-4.2108,-4.2242,-4.2106,-4.1913,-4.1913,-4.1646,-4.1382,-4.1382,-4.1054,-4.0824,-4.0824,-4.0632,-4.044,-4.0427,-4.0338,-4.0338,-4.0504,-4.0504,-4.0504,-4.0504,-4.0259,-4.0026,-3.9807,-3.9532,-3.9443,-3.949,-3.9621,-3.993,-4.0442,-4.0714,-4.1307,0.0,-2.7029,-2.7287,-2.6783,-2.666,0.0,0.0,0.0,0.0,0.0,0.0,0.0,-2.6499,-2.6952,-2.7469,-2.8009,-2.9051,-3.0207,0.0,0.0,0.0,0.0,0.0,0.0,0.0,0.0,0.0,0.0,0.0,0.0,0.0,0.0,0.0,0.0,-4.2316,-4.2853,-4.3912,-4.3912,-4.4199,-4.4668,-4.5018,-4.5193,-4.518,0.0,0.0,0.0,0.0,0.0,0.0,-4.4843,-4.4668,-4.4668,-4.4668,-4.4382,-4.3807,-4.3232,-4.2657,-4.2133,-4.152,-4.1311,-4.1311,-4.1311,-4.1161,-4.0933,-4.0896,-4.0927,-4.0969,-4.1235,-4.1735,-4.2217,-4.2255,-4.2645,-4.2979,-4.303,-4.303,-4.303,-4.303,-4.303,-4.3141,-4.3406,-4.3449,-4.3517,-4.3832,-4.3438,-4.3079,-4.3079,-4.2592,-4.2287,-4.2287,-4.1851,-4.1479,-4.1453,-4.0978,-4.0695,-4.0896,-4.0694,-4.0555,-4.0555,-4.0555,-4.0555,-4.0555,-4.0795,-4.0687,-4.0119,-4.0389,-4.0421,-4.0148,-4.042,-4.0794,-4.1328,-4.1603,-4.2139,-2.6719,0.0,-2.6254,-2.6131,-2.6212,-2.6293,0.0,0.0,0.0,0.0,0.0,0.0,0.0,0.0,-2.7469,-2.8009,-2.9202,-3.0429,-3.1531,0.0,0.0,0.0,0.0,0.0,0.0,0.0,0.0,0.0,0.0,0.0,0.0,0.0,0.0,0.0,-4.3245,-4.3651,-4.3926,-4.4304,-4.4591,-4.4668,-4.4789,-4.4951,0.0,0.0,0.0,0.0,0.0,0.0,0.0,-4.4843,-4.4668,-4.4668,-4.4668,-4.4382,-4.3807,-4.3232,-4.2657,-4.2133,-4.152,-4.1311,-4.1311,-4.1311,-4.1261,-4.1161,-4.0933,-4.1029,-4.1219,-4.1295,-4.1688,-4.221,-4.2684,-4.2901,-4.3118,-4.3564,-4.3666,-4.3666,-4.3666,-4.3666,-4.3721,-4.3776,-4.3776,-4.3832,-4.3899,-4.3784,-4.3694,-4.3694,-4.3344,-4.3119,-4.3119,-4.2852,-4.2489,-4.2059,-4.189,-4.1629,-4.125,-4.0946,-4.0896,-4.111,-4.111,-4.111,-4.111,-4.1161,-4.1246,-4.1301,-4.1571,-4.1652,-4.163,-4.1887,-4.2051,-4.2199,-4.267,-4.3026,-2.6875,-2.6555,-2.6245,-2.6188,-2.6258,-2.6339,-2.6339,0.0,0.0,0.0,0.0,0.0,0.0,0.0,0.0,-2.8656,-3.0025,0.0,0.0,0.0,0.0,0.0,0.0,0.0,0.0,0.0,0.0,0.0,0.0,0.0,0.0,0.0,0.0,0.0,0.0,-4.4264,-4.4264,-4.4565,-4.4789,-4.4897,-4.4789,-4.4897,0.0,0.0,0.0,0.0,0.0,0.0,-4.4951,-4.4789,-4.4668,-4.4668,-4.4668,-4.4539,-4.416,-4.3323,-4.2827,-4.2448,-4.1598,-4.1311,-4.1311,-4.1311,-4.1311,-4.1261,-4.1161,-4.1167,-4.126,-4.1004,-4.131,-4.1874,-4.249,-4.2823,-4.3169,-4.3759,-4.3899,-4.3899,-4.3899,-4.3899,-4.3955,-4.4052,-4.4052,-4.4107,-4.4258,-4.4258,-4.4258,-4.4258,-4.4082,-4.3983,-4.3983,-4.3649,-4.3284,-4.3036,-4.2525,-4.2094,-4.1729,-4.1455,-4.1298,-4.1311,-4.1311,-4.1361,-4.1461,-4.1461,-4.1597,-4.1881,-4.2141,-4.2289,-4.2289,-4.2693,-4.2887,-4.2887,-4.3259,-4.3499,-2.7045,-2.6909,-2.676,-2.6589,-2.6665,-2.6728,-2.6728,0.0,0.0,0.0,0.0,0.0,0.0,0.0,0.0,0.0,0.0,0.0,0.0,0.0,0.0,0.0,0.0,0.0,0.0,0.0,0.0,0.0,0.0,0.0,0.0,0.0,0.0,0.0,0.0,0.0,-4.4668,-4.4735,-4.4897,-4.518,-4.4951,-4.4951,-4.5193,-4.491,0.0,0.0,0.0,0.0,-4.4789,-4.483,-4.4843,-4.483,-4.4776,-4.4789,-4.4645,-4.3441,-4.3023,-4.2866,-4.1716,-4.1311,-4.1311,-4.1311,-4.1311,-4.1311,-4.1311,-4.1311,-4.1211,-4.0757,-4.0952,-4.1466,-4.2161,-4.2635,-4.3162,-4.3843,-4.3997,-4.3997,-4.3997,-4.3997,-4.4107,-4.4313,-4.4367,-4.4422,-4.4681,-4.4668,-4.4668,-4.4668,-4.4668,-4.4668,-4.4668,-4.4304,-4.3964,-4.3939,-4.2918,-4.2316,-4.2276,-4.1939,-4.1597,-4.1411,-4.1411,-4.1511,-4.1746,-4.1796,-4.1944,-4.2177,-4.24,-4.2609,-4.2595,-4.308,-4.3321,-4.3355,-4.3566,-4.3757,-2.7268,-2.7235,-2.7167,-2.6977,-2.7301,-2.7694,-2.7694,0.0,0.0,0.0,0.0,0.0,0.0,0.0,0.0,0.0,0.0,0.0,0.0,0.0,0.0,0.0,0.0,0.0,0.0,0.0,0.0,0.0,0.0,0.0,0.0,0.0,0.0,0.0,0.0,0.0,0.0,-4.4951,-4.5126,-4.518,-4.5395,-4.5395,-4.518,-4.5126,-4.4964,0.0,0.0,0.0,-4.5126,-4.5395,-4.5435,-4.5435,-4.5234,-4.5126,-4.4928,-4.3507,-4.3023,-4.2866,-4.1716,-4.1311,-4.1311,-4.1311,-4.1311,-4.1311,-4.1311,-4.1311,-4.1261,-4.1211,-4.1226,-4.1538,-4.2593,-4.2931,-4.3257,-4.4325,-4.4572,-4.4572,-4.4572,-4.4572,-4.4572,-4.4626,-4.4626,-4.4681,-4.4668,-4.4668,-4.4668,-4.4668,-4.4668,-4.4668,-4.4668,-4.4657,-4.4408,-4.3925,-4.3284,-4.2813,-4.2545,-4.204,-4.1796,-4.198,-4.198,-4.198,-4.2029,-4.2253,-4.2413,-4.2449,-4.2693,-4.2935,-4.3177,-4.3273,-4.3403,-4.3566,-4.3818,-4.3974,-2.759,-2.7725,-2.7858,-2.779,-2.7825,-2.7969,-2.8277,0.0,0.0,0.0,0.0,0.0,0.0,0.0,0.0,0.0,0.0,0.0,0.0,0.0,0.0,0.0,0.0,0.0,0.0,0.0,0.0,0.0,0.0,0.0,0.0,0.0,0.0,0.0,0.0,0.0,0.0,-4.4914,-4.5287,-4.5448,-4.5555,-4.5555,-4.5395,-4.5287,-4.5126,0.0,0.0,-4.5287,-4.5448,-4.5542,-4.5595,-4.5595,-4.5448,-4.5341,-4.5048,-4.3546,-4.2631,-4.203,-4.1494,-4.1311,-4.1311,-4.1311,-4.1311,-4.1311,-4.1311,-4.1311,-4.1311,-4.1311,-4.1311,-4.1572,-4.2722,-4.3023,-4.331,-4.4407,-4.4668,-4.4668,-4.4668,-4.4668,-4.4668,-4.4668,-4.4668,-4.4668,-4.4668,-4.4668,-4.4668,-4.4668,-4.4668,-4.4668,-4.4668,-4.4668,-4.45,-4.3938,-4.3507,-4.3046,-4.266,-4.2302,-4.2092,-4.2079,-4.2239,-4.2302,-4.2302,-4.2595,-4.2693,-4.2693,-4.2984,-4.3177,-4.3321,-4.356,-4.3737,-4.3818,-4.4068,-4.4223,-2.7855,-2.8144,-2.8494,-2.8625,-2.8525,-2.8499,-2.8936,0.0,0.0,0.0,0.0,0.0,0.0,0.0,0.0,0.0,0.0,0.0,0.0,0.0,0.0,0.0,0.0,0.0,0.0,0.0,0.0,0.0,0.0,0.0,0.0,0.0,0.0,0.0,0.0,0.0,0.0,-4.444,-4.5023,-4.5502,-4.5542,-4.5542,-4.5502,-4.5341,-4.5234,-4.518,-4.5341,-4.5502,-4.5702,-4.5768,-4.5822,-4.5808,-4.5555,-4.513,-4.4481,-4.3258,-4.2186,-4.1311,-4.1311,-4.1311,-4.1311,-4.1311,-4.1311,-4.1311,-4.1311,-4.1311,-4.1311,-4.1311,-4.1415,-4.1742,-4.2762,-4.3114,-4.348,-4.4487,-4.4668,-4.4668,-4.4668,-4.4668,-4.4668,-4.4668,-4.4668,-4.4668,-4.4668,-4.4668,-4.4668,-4.4668,-4.4668,-4.467,-4.4552,-4.4526,-4.4304,-4.3742,-4.3414,-4.3054,-4.2587,-4.257,-4.2498,-4.2275,-4.2498,-4.2609,-4.2609,-4.279,-4.2935,-4.2984,-4.3225,-4.3369,-4.3465,-4.3846,-4.4035,-4.4082,-4.4317,-4.4411,-2.8079,-2.8372,-2.8818,-2.9289,-2.9686,0.0,-2.9986,-3.044,0.0,-3.0818,0.0,0.0,0.0,0.0,0.0,0.0,0.0,0.0,0.0,0.0,0.0,0.0,0.0,0.0,0.0,0.0,0.0,0.0,0.0,0.0,0.0,0.0,0.0,0.0,0.0,0.0,0.0,0.0,-4.4177,-4.5234,-4.5502,-4.5448,-4.5234,-4.5448,-4.5448,-4.5234,-4.5755,-4.5967,-4.602,-4.6311,-4.6416,-4.6362,-4.5481,-4.4182,-4.2728,-4.2367,-4.1847,-4.1311,-4.1311,-4.1311,-4.1311,-4.1311,-4.1311,-4.1311,-4.1311,-4.1311,-4.1311,-4.1311,-4.169,-4.2252,-4.2866,-4.3415,-4.3964,-4.4578,-4.4668,-4.4668,-4.4668,-4.4668,-4.4668,-4.4668,-4.4668,-4.4668,-4.4668,-4.4668,-4.4668,-4.4668,-4.4668,-4.4539,-4.4003,-4.3938,-4.3716,-4.3141,-4.2836,-4.2624,-4.2534,-4.272,-4.2887,-4.2838,-4.2838,-4.2887,-4.2887,-4.2887,-4.3032,-4.3273,-4.3273,-4.3512,-4.394,-4.3988,-4.4129,-4.4364,-4.4411,-4.4411,-2.8685,-2.9085,-2.9499,-2.994,0.0,0.0,0.0,0.0,0.0,-3.1967,-3.2215,0.0,0.0,0.0,0.0,0.0,0.0,0.0,0.0,0.0,0.0,0.0,0.0,0.0,0.0,0.0,0.0,0.0,0.0,0.0,0.0,0.0,0.0,0.0,0.0,0.0,0.0,0.0,-4.3402,-4.3835,-4.4308,-4.4425,-4.4177,-4.4268,-4.4308,-4.4333,-4.4542,-4.4866,-4.5202,-4.5318,-4.537,-4.5305,-4.4573,-4.3677,-4.2796,-4.2377,-4.1808,-4.1311,-4.1311,-4.1311,-4.1311,-4.1311,-4.1311,-4.1311,-4.1311,-4.1311,-4.1311,-4.1311,-4.1716,-4.2291,-4.2879,-4.3441,-4.4016,-4.4591,-4.4668,-4.4668,-4.4668,-4.4668,-4.4668,-4.4668,-4.4668,-4.4617,-4.4251,-4.4199,-4.4081,-4.3716,-4.3663,-4.3585,-4.3376,-4.3337,-4.3127,-4.2552,-4.2369,-4.2395,-4.2706,-4.2838,-4.2887,-4.2887,-4.2887,-4.2887,-4.2887,-4.2887,-4.3032,-4.3273,-4.3437,-4.3675,-4.3988,-4.4176,-4.4121,-4.3849,-4.3849,-4.3638,-2.912,-2.9577,-3.0006,0.0,0.0,0.0,0.0,0.0,0.0,0.0,0.0,0.0,0.0,0.0,0.0,0.0,0.0,0.0,0.0,0.0,0.0,0.0,0.0,0.0,0.0,0.0,0.0,0.0,0.0,0.0,0.0,0.0,0.0,0.0,0.0,0.0,0.0,0.0,-4.2487,-4.2487,-4.2897,-4.3146,-4.3348,-4.3465,-4.3593,-4.3824,-4.3926,-4.4259,-4.4705,-4.4705,-4.4546,-4.4256,-4.3723,-4.316,-4.2504,-4.2102,-4.1651,-4.1311,-4.1311,-4.1311,-4.1311,-4.1311,-4.1311,-4.1311,-4.1311,-4.1311,-4.1311,-4.1311,-4.1716,-4.2252,-4.2657,-4.331,-4.4016,-4.4591,-4.4668,-4.4668,-4.4668,-4.4668,-4.4668,-4.4668,-4.4578,-4.433,-4.3938,-4.3716,-4.348,-4.3075,-4.3023,-4.2958,-4.2775,-4.2748,-4.2578,-4.2205,-4.2133,-4.2324,-4.2838,-4.2887,-4.2887,-4.2887,-4.2887,-4.2887,-4.2887,-4.2887,-4.3032,-4.3273,-4.3471,-4.3626,-4.3695,-4.399,-4.3807,-4.3216,-4.3216,-4.2978,-2.9352,-2.9815,0.0,0.0,0.0,0.0,0.0,0.0,0.0,0.0,0.0,0.0,0.0,0.0,0.0,0.0,0.0,0.0,0.0,0.0,0.0,0.0,0.0,0.0,0.0,0.0,0.0,0.0,0.0,0.0,0.0,0.0,0.0,0.0,0.0,0.0,0.0,0.0,-4.1311,-4.1311,-4.1311,-4.1912,-4.301,-4.3335,-4.358,-4.3797,-4.413,-4.4411,-4.4691,-4.4691,-4.4175,-4.3372,-4.3085,-4.2475,-4.1647,-4.1411,-4.1311,-4.1311,-4.1311,-4.1311,-4.1311,-4.1311,-4.1311,-4.1311,-4.1311,-4.1311,-4.1311,-4.1311,-4.1716,-4.2211,-4.2211,-4.3062,-4.4003,-4.4578,-4.4668,-4.4668,-4.4668,-4.4668,-4.4668,-4.4668,-4.4251,-4.3926,-4.3912,-4.3389,-4.301,-4.2997,-4.2997,-4.2801,-4.229,-4.2211,-4.2192,-4.2096,-4.2079,-4.2324,-4.2838,-4.2887,-4.2887,-4.2887,-4.2873,-4.2873,-4.2887,-4.2873,-4.3032,-4.3307,-4.3457,-4.3405,-4.3115,-4.3346,-4.3174,-4.257,-4.257,-4.257,-2.9849,0.0,0.0,0.0,0.0,0.0,0.0,0.0,0.0,0.0,0.0,0.0,0.0,0.0,0.0,0.0,0.0,0.0,0.0,0.0,0.0,0.0,0.0,0.0,0.0,0.0,0.0,0.0,0.0,0.0,0.0,0.0,0.0,0.0,0.0,0.0,0.0,0.0,0.0,-4.1311,-4.1311,-4.1494,-4.1821,-4.1935,-4.2073,-4.2348,-4.2412,-4.2611,-4.286,-4.286,-4.2703,-4.2444,-4.221,-4.1905,-4.1647,-4.1411,-4.1311,-4.1311,-4.1311,-4.1311,-4.1311,-4.1311,-4.1311,-4.1311,-4.1311,-4.1311,-4.1311,-4.1311,-4.1442,-4.1651,-4.2107,-4.2473,-4.297,-4.3899,-4.4134,-4.4238,-4.4643,-4.4668,-4.4604,-4.4199,-4.399,-4.3677,-4.2866,-4.2539,-4.2278,-4.1886,-4.1821,-4.1755,-4.1585,-4.1572,-4.1695,-4.2043,-4.2079,-4.2324,-4.2838,-4.2887,-4.2887,-4.2887,-4.2493,-4.2453,-4.2873,-4.248,-4.2406,-4.2643,-4.2312,-4.2228,-4.2447,-4.2538,-4.2365,-4.191,-4.191,-4.1671,0.0,0.0,0.0,0.0,0.0,0.0,0.0,0.0,0.0,0.0,0.0,0.0,0.0,0.0,0.0,0.0,0.0,0.0,0.0,0.0,0.0,0.0,0.0,0.0,0.0,0.0,0.0,0.0,0.0,0.0,0.0,0.0,0.0,0.0,0.0,0.0,0.0,0.0,0.0,0.0,-4.1461,-4.1461,-4.1461,-4.1361,-4.1461,-4.1696,-4.1796,-4.1931,-4.2079,-4.2079,-4.2029,-4.1931,-4.1746,-4.1647,-4.1511,-4.1361,-4.1311,-4.1311,-4.1311,-4.1311,-4.1311,-4.1311,-4.1311,-4.1311,-4.1311,-4.1311,-4.1311,-4.1311,-4.1311,-4.1389,-4.1742,-4.1821,-4.2121,-4.3258,-4.3533,-4.3624,-4.3977,-4.4002,-4.3951,-4.3598,-4.335,-4.3023,-4.2342,-4.1977,-4.1716,-4.1363,-4.1311,-4.1311,-4.1311,-4.1311,-4.1511,-4.2029,-4.2079,-4.2324,-4.2838,-4.2887,-4.2792,-4.2548,-4.2195,-4.2059,-4.2181,-4.1842,-4.1699,-4.1887,-4.1625,-4.154,-4.155,-4.173,-4.1602,-4.1147,-4.122,-4.1053,0.0,0.0,0.0,0.0,0.0,0.0,0.0,0.0,0.0,0.0,0.0,0.0,0.0,0.0,0.0,0.0,0.0,0.0,0.0,0.0,0.0,0.0,0.0,0.0,0.0,0.0,0.0,0.0,0.0,0.0,0.0,0.0,0.0,0.0,0.0,0.0,0.0,0.0,0.0,0.0,0.0,-4.1588,-4.1588,-4.1408,-4.1461,-4.1696,-4.198,-4.2029,-4.2029,-4.2029,-4.1881,-4.1647,-4.1647,-4.1511,-4.1311,-4.1311,-4.1311,-4.1311,-4.1311,-4.1311,-4.1311,-4.1311,-4.1311,-4.1311,-4.1311,-4.1311,-4.1311,-4.1311,-4.1361,-4.1361,-4.1361,-4.1361,-4.1623,-4.2669,-4.2905,-4.2958,-4.301,-4.3023,-4.301,-4.2958,-4.2526,-4.2198,-4.2146,-4.1651,-4.1311,-4.1311,-4.1311,-4.1311,-4.1311,-4.1311,-4.1511,-4.2029,-4.2079,-4.2324,-4.2838,-4.2833,-4.2575,-4.2032,-4.1896,-4.1598,-4.1055,-4.1042,-4.1042,-4.1042,-4.1205,-4.1055,-4.0508,-4.0955,-4.0898,-4.0356,-4.0544,-4.0659,0.0,0.0,0.0,0.0,0.0,0.0,0.0,0.0,0.0,0.0,0.0,0.0,0.0,0.0,0.0,0.0,0.0,0.0,0.0,0.0,0.0,0.0,0.0,0.0,0.0,0.0,0.0,0.0,0.0,0.0,0.0,0.0,0.0,0.0,0.0,0.0,0.0,0.0,0.0,0.0,-4.0625,-4.0625,-4.0603,-4.1274,-4.1647,-4.1696,-4.1746,-4.1647,-4.1461,-4.1461,-4.1461,-4.1411,-4.1411,-4.1361,-4.1311,-4.1311,-4.1311,-4.1311,-4.1311,-4.1311,-4.1311,-4.1311,-4.1311,-4.1311,-4.1311,-4.1311,-4.1361,-4.1547,-4.1597,-4.1647,-4.1881,-4.1931,-4.1997,-4.2249,-4.2308,-4.2474,-4.2931,-4.3023,-4.2892,-4.2435,-4.2303,-4.2081,-4.1585,-4.1402,-4.1311,-4.1311,-4.1311,-4.1311,-4.1311,-4.1311,-4.1511,-4.2029,-4.2079,-4.2324,-4.2838,-4.2466,-4.2141,-4.2019,-4.111,-4.0526,-4.039,-4.039,-4.039,-4.039,-3.9974,-3.9823,-3.9891,-3.998,-4.0074,-4.0097,-4.014,-4.0126,0.0,0.0,0.0,0.0,0.0,0.0,0.0,0.0,0.0,0.0,0.0,0.0,0.0,0.0,0.0,0.0,0.0,0.0,0.0,0.0,0.0,0.0,0.0,0.0,0.0,0.0,0.0,0.0,0.0,0.0,0.0,0.0,0.0,0.0,0.0,0.0,-4.0676,-4.0676,-4.0629,-4.0475,-4.0475,-4.0475,-4.0502,-4.0877,-4.1011,-4.1011,-4.1011,-4.0865,-4.0621,-4.0621,-4.0572,-4.0527,-4.0788,-4.088,-4.0919,-4.1206,-4.1311,-4.1311,-4.1311,-4.1311,-4.1311,-4.1311,-4.1311,-4.1311,-4.1311,-4.1411,-4.1511,-4.1647,-4.1796,-4.1931,-4.2079,-4.2079,-4.2079,-4.2079,-4.212,-4.2174,-4.2338,-4.2404,-4.2261,-4.1871,-4.1755,-4.1664,-4.1363,-4.1311,-4.1311,-4.1311,-4.1311,-4.1311,-4.1311,-4.1311,-4.1511,-4.2029,-4.2079,-4.2324,-4.2838,-4.2344,-4.1883,-4.1598,-4.0703,-4.0051,-3.978,-3.9766,-3.9766,-3.9766,-3.9454,-3.9349,-3.9496,-3.9656,-3.973,-3.9848,-3.9966,-3.9996,0.0,0.0,0.0,0.0,0.0,0.0,0.0,0.0,0.0,0.0,0.0,0.0,0.0,0.0,0.0,0.0,0.0,0.0,0.0,0.0,0.0,0.0,0.0,0.0,0.0,0.0,0.0,0.0,0.0,0.0,0.0,0.0,0.0,0.0,0.0,0.0,-4.0811,-4.0811,-4.0659,-4.0447,-4.0447,-4.0447,-4.0447,-4.0228,-4.0194,-4.0381,-4.0381,-4.0239,-3.9989,-3.9928,-3.9799,-3.9699,-4.0095,-4.0278,-4.0331,-4.084,-4.1089,-4.1154,-4.1154,-4.1219,-4.1311,-4.1311,-4.1311,-4.1311,-4.1311,-4.1511,-4.1696,-4.1746,-4.1944,-4.2177,-4.2226,-4.2226,-4.2226,-4.2226,-4.2226,-4.2128,-4.1845,-4.1746,-4.1647,-4.1411,-4.1311,-4.1311,-4.1311,-4.1311,-4.1311,-4.1311,-4.1311,-4.1311,-4.1311,-4.1311,-4.1511,-4.2029,-4.2079,-4.2324,-4.2838,-4.2249,-4.1639,-4.115,-4.0431,-3.9807,-3.9319,-3.9305,-3.9305,-3.9305,-3.9305,-3.9305,-3.9305,-3.9496,-3.9642,-3.9642,-3.9791,-3.9865,0.0,0.0,0.0,0.0,0.0,0.0,0.0,0.0,0.0,0.0,0.0,0.0,0.0,0.0,0.0,0.0,0.0,0.0,0.0,0.0,0.0,0.0,0.0,0.0,0.0,0.0,0.0,0.0,0.0,0.0,0.0,0.0,0.0,0.0,0.0,0.0,-3.9536,-3.9536,-3.9505,-3.9491,-3.9491,-3.9491,-3.9491,-3.9446,-3.9878,-4.0663,-4.0663,-4.0475,-4.0239,-3.9989,-3.9881,-3.9846,-3.9773,-3.9716,-3.973,-3.9808,-4.0135,-4.054,-4.054,-4.088,-4.1311,-4.1311,-4.1311,-4.1311,-4.1311,-4.1511,-4.1746,-4.198,-4.2239,-4.2498,-4.2741,-4.2776,-4.2776,-4.2776,-4.2776,-4.2679,-4.2128,-4.1832,-4.1696,-4.1647,-4.1461,-4.1311,-4.1311,-4.1311,-4.1311,-4.1311,-4.1311,-4.1311,-4.1311,-4.1311,-4.1511,-4.2029,-4.2079,-4.2324,-4.2838,-4.1869,-4.1205,-4.1123,-4.0051,-3.9386,-3.9305,-3.9305,-3.9305,-3.9305,-3.9305,-3.9305,-3.9305,-3.9349,-3.9349,-3.9349,-3.9394,-3.9394,0.0,0.0,0.0,0.0,0.0,0.0,0.0,0.0,0.0,0.0,0.0,0.0,0.0,0.0,0.0,0.0,0.0,0.0,0.0,0.0,0.0,0.0,0.0,0.0,0.0,0.0,0.0,0.0,0.0,0.0,0.0,-3.9305,-3.9305,-3.9305,-3.9305,0.0,-3.9305,-3.9305,-3.9305,-3.9305,-3.9305,-3.9305,-3.9305,-3.9305,-3.9545,-3.991,-3.991,-3.976,-3.9518,-3.9367,-3.9289,-3.9203,-3.9381,-3.9433,-3.9344,-3.9659,-3.9839,-3.9965,-3.9965,-4.0135,-4.0409,-4.071,-4.0814,-4.088,-4.1356,-4.1696,-4.1993,-4.2239,-4.2498,-4.2741,-4.2887,-4.2887,-4.2887,-4.2887,-4.2887,-4.2838,-4.2582,-4.2351,-4.2056,-4.1746,-4.1461,-4.1311,-4.1311,-4.1311,-4.1311,-4.1311,-4.1311,-4.1311,-4.1311,-4.1311,-4.1461,-4.1845,-4.1881,-4.2029,-4.2435,-4.1361,-4.0629,-4.0629,-3.9562,-3.8904,-3.8904,-3.9024,-3.9056,-3.9056,-3.9203,-3.9305,-3.9305,-3.9305,-3.9305,-3.9305,-3.9305,-3.9305,0.0,0.0,0.0,0.0,0.0,0.0,0.0,0.0,0.0,0.0,0.0,0.0,0.0,0.0,0.0,0.0,0.0,0.0,0.0,0.0,0.0,0.0,0.0,0.0,0.0,0.0,0.0,0.0,0.0,0.0,0.0,-3.9305,-3.9305,-3.9305,-3.9305,-3.9305,-3.9305,-3.9305,-3.9305,-3.9305,-3.9305,-3.9305,-3.9305,-3.9305,-3.9305,-3.9305,-3.9305,-3.9203,-3.9011,-3.8908,-3.8832,-3.8719,-3.9055,-3.909,-3.9031,-3.9441,-3.9551,-3.952,-3.9485,-3.9577,-3.9712,-4.0069,-4.0213,-4.034,-4.1018,-4.1444,-4.1688,-4.1944,-4.2247,-4.2439,-4.2439,-4.2439,-4.2439,-4.2439,-4.2548,-4.2697,-4.2763,-4.2644,-4.2351,-4.1796,-4.1547,-4.1361,-4.1311,-4.1311,-4.1311,-4.1311,-4.1311,-4.1311,-4.1311,-4.1311,-4.1411,-4.1647,-4.1696,-4.1796,-4.2079,-4.1146,-4.0446,-4.03,-3.9375,-3.8749,-3.8615,-3.8756,-3.8832,-3.8832,-3.9024,-3.9172,-3.9305,-3.9305,-3.9305,-3.9305,-3.9305,-3.9305,0.0,0.0,0.0,0.0,0.0,0.0,0.0,0.0,0.0,0.0,0.0,0.0,0.0,0.0,0.0,0.0,0.0,0.0,0.0,0.0,0.0,0.0,0.0,0.0,0.0,0.0,0.0,0.0,0.0,0.0,-3.9305,-3.9305,-3.9305,-3.9305,-3.9305,-3.9305,-3.9305,-3.9305,-3.9305,-3.9305,-3.9305,-3.9305,-3.9305,-3.9305,-3.9305,-3.9305,-3.9305,-3.9305,-3.9247,-3.8997,-3.8908,-3.8863,-3.8719,-3.8655,-3.8655,-3.8682,-3.8983,-3.9389,-3.9196,-3.9446,-3.9846,-3.9673,-3.9651,-3.9699,-3.9925,-4.0177,-4.0427,-4.071,-4.1004,-4.1205,-4.1205,-4.1205,-4.1205,-4.1205,-4.1639,-4.21,-4.2439,-4.2511,-4.2351,-4.1796,-4.1696,-4.1597,-4.1361,-4.1311,-4.1311,-4.1311,-4.1311,-4.1311,-4.1311,-4.1311,-4.1411,-4.1647,-4.1696,-4.1796,-4.2079,-4.1519,-4.0933,-4.0326,-3.9688,-3.9148,-3.8629,-3.8602,-3.8602,-3.8602,-3.8647,-3.8859,-3.9305,-3.9305,-3.9305,-3.9305,-3.9305,-3.9305,-2.8696,0.0,0.0,0.0,0.0,0.0,0.0,0.0,0.0,0.0,0.0,0.0,0.0,0.0,0.0,0.0,0.0,0.0,0.0,0.0,0.0,0.0,0.0,0.0,0.0,0.0,0.0,0.0,0.0,0.0,-3.9305,-3.9305,-3.9305,-3.9305,-3.9305,-3.9305,-3.9305,-3.9305,-3.9305,-3.9305,-3.9305,-3.9305,-3.9305,-3.9305,-3.9305,-3.9305,-3.9305,-3.9305,-3.9305,-3.9203,-3.9158,-3.9158,-3.9083,-3.8935,-3.8787,-3.8787,-3.8844,-3.8863,-3.8817,-3.8904,-3.9084,-3.9362,-3.9481,-3.9594,-4.0201,-4.0462,-4.0616,-4.0863,-4.1017,-4.1123,-4.1123,-4.1123,-4.1123,-4.1123,-4.1286,-4.1551,-4.2052,-4.2339,-4.24,-4.2043,-4.1845,-4.1597,-4.1361,-4.1311,-4.1311,-4.1311,-4.1311,-4.1311,-4.1311,-4.1311,-4.1361,-4.1411,-4.1461,-4.1461,-4.1597,-4.1057,-4.0574,-4.0377,-3.9825,-3.9417,-3.9233,-3.9381,-3.9256,-3.8945,-3.9057,-3.9039,-3.8872,-3.8872,-3.8872,-3.8872,-3.8872,-3.8872,-2.8521,0.0,0.0,0.0,0.0,0.0,0.0,0.0,0.0,0.0,0.0,0.0,0.0,0.0,0.0,0.0,0.0,0.0,0.0,0.0,0.0,0.0,0.0,0.0,0.0,0.0,0.0,0.0,0.0,0.0,-3.9305,-3.9305,-3.9305,-3.9305,-3.9305,-3.9305,-3.9305,-3.9102,-3.9007,-3.9007,-3.8803,-3.8708,-3.8708,-3.8925,-3.9007,-3.902,-3.921,-3.9305,-3.9305,-3.9305,-3.9305,-3.9305,-3.9305,-3.9203,-3.9056,-3.9056,-3.8935,-3.8814,-3.8724,-3.8724,-3.8732,-3.9028,-3.9148,-3.9261,-3.9892,-4.0105,-4.0151,-4.0407,-4.0513,-4.0513,-4.0513,-4.0513,-4.0553,-4.0757,-4.0811,-4.0974,-4.1571,-4.2025,-4.2318,-4.2137,-4.198,-4.1696,-4.1361,-4.1311,-4.1311,-4.1311,-4.1311,-4.1311,-4.1311,-4.1311,-4.1311,-4.1311,-4.1311,-4.1311,-4.1311,-4.0945,-4.0631,-4.0422,-4.0082,-3.9795,-3.9625,-3.9729,-3.9641,-3.9273,-3.9387,-3.9283,-3.8926,-3.8711,-3.8602,-3.8602,-3.8602,-3.8557,0.0,0.0,0.0,0.0,0.0,0.0,0.0,0.0,0.0,0.0,0.0,0.0,0.0,0.0,0.0,0.0,0.0,0.0,0.0,0.0,0.0,0.0,0.0,0.0,0.0,0.0,0.0,0.0,0.0,0.0,-3.9305,-3.9305,-3.9292,-3.9278,-3.9278,-3.9264,-3.9251,-3.8681,-3.8383,-3.8383,-3.777,-3.7485,-3.7512,-3.8095,-3.8383,-3.8423,-3.8993,-3.9251,-3.9251,-3.9292,-3.9305,-3.9305,-3.9305,-3.9305,-3.9305,-3.9305,-3.9305,-3.9247,-3.8997,-3.8908,-3.8863,-3.8679,-3.8602,-3.8647,-3.8877,-3.8908,-3.8953,-3.9247,-3.9305,-3.9305,-3.9305,-3.9305,-3.9454,-4.0024,-4.016,-4.0336,-4.096,-4.1544,-4.1984,-4.203,-4.2065,-4.1931,-4.1411,-4.1311,-4.1311,-4.1311,-4.1311,-4.1311,-4.1311,-4.1311,-4.1311,-4.1311,-4.1311,-4.1311,-4.1311,-4.1311,-4.1063,-4.0474,-4.0448,-4.0213,-3.9677,-3.9664,-3.9651,-3.9638,-3.9638,-3.9625,-3.9612,-3.8939,-3.861,-3.861,-3.8597,-3.848,-2.8407,0.0,0.0,0.0,0.0,0.0,0.0,0.0,0.0,0.0,0.0,0.0,0.0,0.0,0.0,0.0,0.0,0.0,0.0,0.0,0.0,0.0,0.0,0.0,0.0,0.0,0.0,0.0,0.0,-3.9305,-3.9305,-3.9305,-3.9102,-3.8667,-3.8667,-3.845,-3.7987,-3.7811,-3.7743,-3.7743,-3.7567,-3.7485,-3.7499,-3.7662,-3.7743,-3.7743,-3.7919,-3.7987,-3.8055,-3.8952,-3.9305,-3.9305,-3.9305,-3.9305,-3.9305,-3.9305,-3.9305,-3.9305,-3.9203,-3.9203,-3.9158,-3.9127,-3.9127,-3.9127,-3.9158,-3.9203,-3.9203,-3.9305,-3.9305,-3.9305,-3.9305,-3.9305,-3.9346,-3.9509,-3.9549,-3.9712,-4.0309,-4.0443,-4.0629,-4.1301,-4.1786,-4.1931,-4.1411,-4.1311,-4.1311,-4.1311,-4.1311,-4.1311,-4.1311,-4.1311,-4.1311,-4.1311,-4.1311,-4.1311,-4.1311,-4.1311,-4.1246,-4.1076,-4.1063,-4.0997,-4.0853,-4.084,-4.0644,-4.02,-4.0187,-4.0004,-3.9612,-3.9428,-3.9318,-3.9304,-3.8871,-3.8615,-2.8571,-2.9042,-2.9568,-3.0247,0.0,0.0,0.0,0.0,0.0,0.0,0.0,0.0,0.0,0.0,0.0,0.0,0.0,0.0,0.0,0.0,0.0,0.0,0.0,0.0,0.0,0.0,0.0,0.0,-3.8559,-3.8559,-3.8559,-3.8559,-3.841,-3.8027,-3.8,-3.7851,-3.7485,-3.7228,-3.7134,-3.7134,-3.6848,-3.674,-3.674,-3.6984,-3.7134,-3.7161,-3.7377,-3.7485,-3.754,-3.8274,-3.8708,-3.8952,-3.921,-3.9305,-3.9305,-3.9305,-3.9305,-3.9305,-3.9305,-3.9305,-3.9305,-3.9305,-3.9305,-3.9305,-3.9305,-3.9305,-3.9305,-3.9305,-3.9305,-3.9305,-3.9305,-3.9305,-3.9305,-3.9305,-3.9305,-3.94,-3.9739,-3.9829,-4.0012,-4.0667,-4.1223,-4.1425,-4.0981,-4.1141,-4.1311,-4.1311,-4.1311,-4.1311,-4.1311,-4.1311,-4.1311,-4.1311,-4.1311,-4.1311,-4.1311,-4.1311,-4.1311,-4.1311,-4.1311,-4.1311,-4.1311,-4.1311,-4.1154,-4.0788,-4.0788,-4.0631,-4.0318,-3.9847,-3.9612,-3.9599,-3.9246,-3.9089,-2.8884,-2.9194,-2.9491,-3.0021,-3.0746,0.0,-3.2008,-3.2652,0.0,0.0,0.0,0.0,0.0,0.0,0.0,0.0,0.0,0.0,0.0,0.0,0.0,0.0,0.0,0.0,0.0,0.0,0.0,-3.7485,-3.7485,-3.7485,-3.7485,-3.7485,-3.7458,-3.739,-3.739,-3.7363,-3.7296,-3.6782,-3.6497,-3.6497,-3.5967,-3.571,-3.5737,-3.6266,-3.6497,-3.6537,-3.7052,-3.7296,-3.7296,-3.7363,-3.7743,-3.8369,-3.8898,-3.9102,-3.9102,-3.9102,-3.9102,-3.9102,-3.9102,-3.9142,-3.921,-3.921,-3.9251,-3.9305,-3.9305,-3.9305,-3.9305,-3.9305,-3.9305,-3.9305,-3.9305,-3.9305,-3.9305,-3.9305,-3.9305,-3.9305,-3.9247,-3.9456,-3.9752,-3.9994,-4.0442,-4.0662,-4.0458,-4.0853,-4.1232,-4.1311,-4.1311,-4.1311,-4.1311,-4.1311,-4.1311,-4.1311,-4.1311,-4.1311,-4.1311,-4.1311,-4.1311,-4.1311,-4.1311,-4.1311,-4.1311,-4.1311,-4.1311,-4.1311,-4.1311,-4.1311,-4.1311,-4.0292,-3.9795,-3.9795,-3.973,-3.9655,-2.8785,-2.8876,-2.8967,-2.9251,-2.9831,0.0,-3.0441,-3.13,0.0,0.0,0.0,0.0,0.0,0.0,0.0,0.0,0.0,0.0,0.0,0.0,0.0,0.0,0.0,0.0,0.0,0.0,0.0,-3.7485,-3.7485,-3.7485,-3.7485,-3.7485,-3.7255,-3.6795,-3.6782,-3.6551,-3.6076,-3.594,-3.5886,-3.5886,-3.5778,-3.571,-3.571,-3.5832,-3.5886,-3.5886,-3.6022,-3.6076,-3.6103,-3.6592,-3.7148,-3.7675,-3.7797,-3.7838,-3.7838,-3.7838,-3.7838,-3.7838,-3.7838,-3.8149,-3.86,-3.86,-3.8912,-3.9305,-3.9305,-3.9305,-3.9305,-3.9305,-3.9305,-3.9305,-3.9305,-3.9305,-3.9305,-3.9305,-3.9305,-3.9247,-3.9011,-3.8894,-3.8802,-3.8621,-3.9461,-4.0189,-4.0393,-4.0514,-4.0762,-4.1246,-4.1311,-4.1311,-4.1311,-4.1311,-4.1311,-4.1311,-4.1311,-4.1311,-4.1311,-4.1311,-4.1311,-4.1311,-4.1311,-4.1311,-4.1311,-4.1311,-4.1311,-4.1311,-4.1311,-4.1311,-4.1311,-4.1089,-4.0984,-4.0971,-4.0488,-4.0119,-2.9562,-2.943,-2.925,-2.9379,-2.9711,0.0,0.0,-3.0701,0.0,0.0,0.0,0.0,0.0,0.0,0.0,0.0,0.0,0.0,0.0,0.0,0.0,0.0,0.0,0.0,0.0,0.0,-3.6577,-3.6577,-3.6577,-3.6577,-3.6577,-3.6577,-3.6442,-3.6171,-3.6157,-3.6022,-3.571,-3.571,-3.571,-3.571,-3.571,-3.571,-3.571,-3.571,-3.571,-3.571,-3.571,-3.571,-3.5737,-3.6035,-3.6347,-3.6645,-3.7255,-3.7485,-3.7485,-3.7485,-3.7485,-3.7485,-3.7485,-3.7689,-3.7933,-3.7933,-3.8136,-3.8423,-3.8423,-3.8423,-3.8423,-3.8423,-3.8423,-3.8423,-3.8423,-3.8423,-3.8423,-3.8423,-3.8566,-3.8637,-3.8536,-3.8465,-3.8349,-3.8213,-3.8609,-3.9061,-3.9468,-3.9808,-4.0213,-4.0788,-4.0867,-4.0971,-4.1272,-4.1311,-4.1311,-4.1311,-4.1311,-4.1311,-4.1311,-4.1311,-4.1311,-4.1311,-4.1311,-4.1311,-4.1311,-4.1311,-4.1311,-4.1311,-4.1311,-4.1311,-4.1311,-4.1161,-4.1161,-4.1311,-4.0848,-4.0556,-3.0405,-3.0106,-2.9812,-2.9812,-2.9863,-2.9898,0.0,0.0,0.0,0.0,0.0,0.0,0.0,0.0,0.0,0.0,0.0,0.0,0.0,0.0,0.0,0.0,0.0,0.0,0.0,0.0,0.0,-3.5331,-3.5439,-3.5547,-3.5547,-3.5655,-3.571,-3.571,-3.571,-3.571,-3.571,-3.571,-3.571,-3.571,-3.571,-3.571,-3.571,-3.571,-3.571,-3.571,-3.571,-3.571,-3.571,-3.571,-3.571,-3.5818,-3.6754,-3.7133,-3.7133,-3.7133,-3.7133,-3.7133,-3.7133,-3.7214,-3.7309,-3.7309,-3.739,-3.7485,-3.7485,-3.7485,-3.7485,-3.7485,-3.7485,-3.7485,-3.7485,-3.7485,-3.7485,-3.7456,-3.7679,-3.794,-3.796,-3.8007,-3.8081,-3.8154,-3.8011,-3.807,-3.8619,-3.9115,-3.9625,-4.0174,-4.0344,-4.0592,-4.1076,-4.1246,-4.1311,-4.1311,-4.1311,-4.1311,-4.1311,-4.1311,-4.1311,-4.1311,-4.1311,-4.1311,-4.1311,-4.1311,-4.1311,-4.1311,-4.1261,-4.1211,-4.1211,-4.0946,-4.0946,-4.1211,-4.0946,-4.0795,-3.0405,-3.0351,-3.033,-3.033,-2.9957,-2.9568,0.0,0.0,0.0,0.0,0.0,0.0,0.0,0.0,0.0,0.0,0.0,0.0,0.0,0.0,0.0,0.0,0.0,0.0,0.0,0.0,0.0,0.0,-3.4599,-3.4897,-3.4897,-3.5385,-3.571,-3.571,-3.571,-3.571,-3.571,-3.571,-3.571,-3.571,-3.571,-3.571,-3.571,-3.571,-3.571,-3.571,-3.571,-3.571,-3.571,-3.571,-3.571,-3.5723,-3.5873,-3.5886,-3.5886,-3.5886,-3.5886,-3.5886,-3.5886,-3.6266,-3.67,-3.67,-3.7038,-3.7485,-3.7485,-3.7485,-3.7485,-3.7485,-3.7485,-3.7485,-3.7485,-3.7485,-3.7443,-3.7286,-3.7254,-3.7313,-3.7453,-3.7492,-3.7601,-3.7887,-3.79,-3.807,-3.8619,-3.8762,-3.9011,-3.9612,-4.0109,-4.0435,-4.0501,-4.0984,-4.1311,-4.1311,-4.1311,-4.1311,-4.1311,-4.1311,-4.1311,-4.1311,-4.1311,-4.1311,-4.1311,-4.1311,-4.1311,-4.1311,-4.1047,-4.0946,-4.0933,-4.0707,-4.0694,-4.0933,-4.0643,-4.044,-3.1436,-3.1192,0.0,0.0,0.0,0.0,-2.9515,0.0,-2.8967,0.0,0.0,0.0,0.0,0.0,0.0,0.0,0.0,0.0,0.0,0.0,0.0,0.0,0.0,0.0,0.0,0.0,0.0,0.0,0.0,-3.4287,-3.4287,-3.4517,-3.4653,-3.4653,-3.4653,-3.4653,-3.4653,-3.4653,-3.4653,-3.4653,-3.4653,-3.4653,-3.4653,-3.4653,-3.4653,-3.468,-3.5019,-3.5168,-3.5181,-3.5574,-3.571,-3.571,-3.571,-3.571,-3.571,-3.571,-3.571,-3.571,-3.571,-3.5886,-3.609,-3.609,-3.6266,-3.6442,-3.6442,-3.6442,-3.6442,-3.6442,-3.6442,-3.6442,-3.6442,-3.6359,-3.6276,-3.6194,-3.6211,-3.6276,-3.6356,-3.6762,-3.7224,-3.7338,-3.7665,-3.7978,-3.82,-3.824,-3.8436,-3.8998,-3.9285,-3.9664,-4.0331,-4.0644,-4.0932,-4.1272,-4.1311,-4.1311,-4.1311,-4.1311,-4.1311,-4.1311,-4.1311,-4.1211,-4.1047,-4.1047,-4.0997,-4.0858,-4.0757,-4.0643,-4.0643,-4.0389,-4.0338,-4.0427,-4.0338,-4.0236,-3.2218,0.0,0.0,0.0,0.0,0.0,0.0,0.0,0.0,0.0,0.0,0.0,0.0,0.0,-2.9257,-2.9257,0.0,0.0,0.0,0.0,0.0,0.0,0.0,0.0,0.0,0.0,0.0,0.0,0.0,0.0,-3.3664,-3.3826,-3.3908,-3.3908,-3.3908,-3.3908,-3.3908,-3.3908,-3.3908,-3.3908,-3.3908,-3.3908,-3.3908,-3.3908,-3.3908,-3.3935,-3.4355,-3.4545,-3.4585,-3.5019,-3.5276,-3.5425,-3.5425,-3.5574,-3.571,-3.571,-3.571,-3.571,-3.571,-3.571,-3.571,-3.571,-3.571,-3.571,-3.571,-3.571,-3.571,-3.571,-3.571,-3.5669,-3.5642,-3.5521,-3.5358,-3.5277,-3.5322,-3.5387,-3.5516,-3.6027,-3.6632,-3.6946,-3.7351,-3.7704,-3.7874,-3.79,-3.8031,-3.8436,-3.8619,-3.9011,-3.9847,-4.0226,-4.0592,-4.1023,-4.1219,-4.1311,-4.1311,-4.1211,-4.1161,-4.106,-4.106,-4.101,-4.0795,-4.0795,-4.0694,-4.0504,-4.0453,-4.0389,-4.0389,-4.0134,-3.9981,-3.9981,-3.9981,-3.9981,0.0,0.0,0.0,-3.2191,0.0,0.0,0.0,0.0,-2.9325,0.0,0.0,-2.8587,-2.8587,-2.8614,-2.8627,-2.8627,-2.8641,0.0,0.0,0.0,0.0,0.0,0.0,0.0,0.0,0.0,0.0,0.0,-3.1911,0.0,-3.3088,-3.3634,-3.3908,-3.3908,-3.3908,-3.3908,-3.3908,-3.3908,-3.3908,-3.3908,-3.3908,-3.3908,-3.3908,-3.3908,-3.3908,-3.3908,-3.3935,-3.3935,-3.3935,-3.3962,-3.4301,-3.4816,-3.4816,-3.5181,-3.571,-3.571,-3.571,-3.571,-3.571,-3.571,-3.571,-3.571,-3.571,-3.571,-3.571,-3.571,-3.571,-3.571,-3.571,-3.5669,-3.548,-3.5399,-3.5318,-3.4921,-3.481,-3.4899,-3.5224,-3.5325,-3.5678,-3.6789,-3.7024,-3.722,-3.7808,-3.79,-3.7913,-3.7926,-3.8383,-3.8723,-3.8762,-3.973,-4.0422,-4.0448,-4.0971,-4.1311,-4.1311,-4.1047,-4.0795,-4.0555,-4.0504,-4.0504,-4.0504,-4.0504,-4.0504,-4.0504,-4.0236,-4.0121,-4.0121,-3.9839,-3.9697,-3.9697,-3.9697,-3.9697,0.0,0.0,-3.2218,-3.2218,0.0,0.0,0.0,0.0,0.0,0.0,0.0,0.0,-2.8587,-2.8587,-2.8587,-2.8587,-2.8261,-2.8003,0.0,-2.7664,0.0,0.0,0.0,0.0,0.0,0.0,0.0,-3.069,-3.0893,0.0,0.0,-3.187,-3.2196,-3.2196,-3.2576,-3.2779,-3.2779,-3.2779,-3.2779,-3.2779,-3.2779,-3.2779,-3.2779,-3.2779,-3.2779,-3.2793,-3.3186,-3.3363,-3.339,-3.3745,-3.403,-3.4206,-3.4206,-3.4328,-3.4612,-3.5385,-3.571,-3.571,-3.571,-3.571,-3.571,-3.571,-3.571,-3.571,-3.571,-3.571,-3.571,-3.571,-3.571,-3.5642,-3.544,-3.5318,-3.5127,-3.4839,-3.466,-3.4588,-3.4701,-3.5012,-3.5417,-3.5796,-3.6488,-3.7063,-3.7273,-3.7639,-3.79,-3.79,-3.8057,-3.8305,-3.8658,-3.905,-3.9573,-4.0331,-4.0592,-4.078,-4.1021,-4.0795,-4.0605,-4.0504,-4.0504,-4.0402,-4.0236,-4.0236,-4.0134,-3.9942,-3.989,-3.9839,-3.9839,-3.9736,-3.9697,-3.9697,-3.9697,-3.9697,-3.2218,-3.2218,0.0,-3.2218,-3.1897,0.0,-3.1341,0.0,0.0,0.0,0.0,0.0,-2.8627,-2.8587,-2.8519,-2.8302,-2.7949,-2.7637,0.0,-2.7037,0.0,0.0,0.0,0.0,0.0,0.0,-2.9536,-2.974,-2.9957,-3.014,0.0,0.0,-3.0856,-3.0786,-3.1199,-3.1388,-3.1388,-3.1388,-3.1496,-3.1676,-3.1748,-3.1893,-3.2109,-3.2182,-3.2218,-3.2232,-3.2612,-3.2789,-3.2816,-3.3159,-3.3406,-3.3634,-3.3634,-3.3718,-3.403,-3.4992,-3.5533,-3.571,-3.571,-3.571,-3.571,-3.571,-3.571,-3.571,-3.571,-3.571,-3.571,-3.571,-3.5642,-3.5562,-3.5358,-3.5113,-3.4921,-3.4714,-3.4535,-3.4397,-3.4397,-3.4711,-3.5038,-3.526,-3.5887,-3.6528,-3.6933,-3.7325,-3.7652,-3.7874,-3.79,-3.8031,-3.8383,-3.8593,-3.8985,-3.973,-4.0004,-4.021,-4.0434,-4.0196,-4.0096,-4.0185,-4.0198,-4.0147,-3.9981,-3.9981,-3.989,-3.9697,-3.9697,-3.9697,-3.9697,-3.9697,-3.9697,-3.9697,-3.9697,-3.9697]},{"header":{"parameterUnit":"m.s-1","parameterCategory":1,"la1":30.6,"la2":29.2853,"lo1":-89.7004,"lo2":-87.6739,"dy":0.0162,"dx":0.0183,"nx":112,"ny":82,"refTime":"2023-06-14T12:00:00:Z","depth":0,"parameterNumber":3,"parameterNumberName":"V-component_of_WINDS"},"data":[0.0,0.0,0.0,0.0,0.0,0.0,0.0,0.0,0.0,0.0,0.0,0.0,0.0,0.0,0.0,0.0,0.0,0.0,0.0,0.0,0.0,0.0,0.0,0.0,0.0,0.0,0.0,0.0,0.0,0.0,0.0,0.0,0.0,0.0,0.0,0.0,0.0,0.0,0.0,0.0,0.0,0.0,0.0,0.0,0.0,0.0,0.0,0.0,0.0,0.0,0.0,0.0,0.0,0.0,0.0,0.0,0.0,0.0,0.0,0.0,0.0,0.0,0.0,0.0,0.0,0.0,0.0,0.0,0.0,0.0,0.0,0.0,0.0,0.0,0.0,0.0,0.0,0.0,0.0,0.0,0.0,0.0,0.0,0.0,0.0,0.0,0.0,0.0,0.0,0.0,-2.3923,-2.6502,-2.7872,-2.8356,-2.7759,-2.7039,-2.6129,-2.4916,0.0,0.0,0.0,0.0,0.0,0.0,0.0,0.0,0.0,0.0,0.0,0.0,0.0,0.0,0.0,0.0,0.0,0.0,0.0,0.0,0.0,0.0,0.0,0.0,0.0,0.0,0.0,0.0,0.0,0.0,0.0,0.0,0.0,0.0,0.0,0.0,0.0,0.0,0.0,0.0,0.0,0.0,0.0,0.0,0.0,0.0,0.0,0.0,0.0,0.0,0.0,0.0,0.0,0.0,0.0,0.0,0.0,0.0,0.0,0.0,0.0,0.0,0.0,0.0,0.0,0.0,0.0,0.0,0.0,0.0,0.0,0.0,0.0,0.0,0.0,0.0,0.0,0.0,0.0,0.0,0.0,0.0,0.0,0.0,0.0,0.0,0.0,0.0,0.0,0.0,0.0,0.0,0.0,0.0,0.0,0.0,0.0,0.0,0.0,0.0,0.0,0.0,0.0,0.0,-2.5264,-2.7304,-2.818,-2.8356,-2.7759,-2.7131,-2.6248,-2.5058,0.0,0.0,0.0,0.0,0.0,0.0,0.0,0.0,0.0,0.0,0.0,0.0,0.0,0.0,0.0,0.0,0.0,0.0,0.0,0.0,0.0,0.0,0.0,0.0,0.0,0.0,0.0,0.0,0.0,0.0,0.0,0.0,0.0,0.0,0.0,0.0,0.0,0.0,0.0,0.0,0.0,0.0,0.0,0.0,0.0,0.0,0.0,0.0,0.0,0.0,0.0,0.0,0.0,0.0,0.0,0.0,0.0,0.0,0.0,0.0,0.0,0.0,0.0,0.0,0.0,0.0,0.0,0.0,0.0,0.0,0.0,0.0,0.0,0.0,0.0,0.0,0.0,0.0,0.0,0.0,0.0,0.0,0.0,0.0,0.0,0.0,0.0,0.0,0.0,0.0,0.0,0.0,0.0,0.0,0.0,0.0,0.0,0.0,0.0,0.0,0.0,0.0,0.0,-2.5007,-2.637,-2.768,-2.8348,-2.8607,-2.8334,-2.7475,-2.6669,-2.6022,-2.4121,0.0,0.0,0.0,0.0,0.0,0.0,0.0,0.0,0.0,0.0,0.0,0.0,0.0,0.0,0.0,0.0,0.0,0.0,0.0,0.0,0.0,0.0,0.0,0.0,0.0,0.0,0.0,0.0,0.0,0.0,0.0,0.0,0.0,0.0,0.0,0.0,0.0,0.0,0.0,0.0,0.0,0.0,0.0,0.0,0.0,0.0,0.0,0.0,0.0,0.0,0.0,0.0,0.0,0.0,0.0,0.0,0.0,0.0,0.0,0.0,0.0,0.0,0.0,0.0,0.0,0.0,0.0,0.0,0.0,0.0,0.0,0.0,0.0,0.0,0.0,0.0,0.0,0.0,0.0,0.0,0.0,0.0,0.0,0.0,0.0,0.0,0.0,0.0,0.0,0.0,0.0,0.0,0.0,0.0,0.0,0.0,0.0,0.0,0.0,0.0,0.0,0.0,-2.6223,-2.7186,-2.8019,-2.8557,-2.8876,-2.8876,-2.781,-2.7064,-2.6884,-2.4626,0.0,0.0,0.0,0.0,0.0,0.0,0.0,0.0,0.0,0.0,0.0,0.0,0.0,0.0,0.0,0.0,0.0,0.0,0.0,0.0,0.0,0.0,0.0,0.0,0.0,0.0,0.0,0.0,0.0,0.0,0.0,0.0,0.0,0.0,0.0,0.0,0.0,0.0,0.0,0.0,0.0,0.0,0.0,0.0,0.0,0.0,0.0,0.0,0.0,0.0,0.0,0.0,0.0,0.0,0.0,0.0,0.0,0.0,0.0,0.0,0.0,0.0,0.0,0.0,0.0,0.0,0.0,0.0,0.0,0.0,0.0,0.0,0.0,0.0,0.0,0.0,0.0,0.0,0.0,0.0,0.0,0.0,0.0,0.0,0.0,0.0,0.0,0.0,0.0,0.0,0.0,0.0,0.0,0.0,0.0,0.0,0.0,0.0,0.0,0.0,0.0,0.0,-2.6889,-2.7502,-2.8621,-2.8944,-2.9067,-2.9067,-2.7994,-2.7244,-2.7094,-2.4806,0.0,0.0,0.0,0.0,0.0,0.0,0.0,0.0,0.0,0.0,0.0,0.0,0.0,0.0,0.0,0.0,0.0,0.0,0.0,0.0,0.0,0.0,0.0,0.0,0.0,0.0,0.0,0.0,0.0,0.0,0.0,0.0,0.0,0.0,0.0,0.0,0.0,0.0,0.0,0.0,0.0,0.0,0.0,0.0,0.0,0.0,0.0,0.0,0.0,0.0,0.0,0.0,0.0,0.0,0.0,0.0,0.0,0.0,0.0,0.0,0.0,0.0,0.0,0.0,0.0,0.0,0.0,0.0,0.0,0.0,0.0,0.0,0.0,0.0,0.0,0.0,0.0,0.0,0.0,0.0,0.0,0.0,0.0,0.0,0.0,0.0,0.0,0.0,0.0,0.0,0.0,0.0,0.0,0.0,0.0,0.0,0.0,0.0,0.0,0.0,0.0,0.0,-2.7064,-2.7638,0.0,-2.9226,-2.9289,-2.9289,-2.8133,-2.7365,-2.723,0.0,0.0,0.0,0.0,0.0,0.0,0.0,0.0,0.0,0.0,0.0,0.0,0.0,0.0,0.0,0.0,0.0,0.0,0.0,0.0,0.0,0.0,0.0,0.0,0.0,0.0,0.0,0.0,0.0,0.0,0.0,0.0,0.0,0.0,0.0,0.0,0.0,0.0,0.0,0.0,0.0,0.0,0.0,0.0,0.0,0.0,0.0,0.0,0.0,0.0,0.0,0.0,0.0,0.0,0.0,0.0,0.0,0.0,0.0,0.0,0.0,0.0,0.0,0.0,0.0,0.0,0.0,0.0,0.0,0.0,0.0,0.0,0.0,0.0,0.0,0.0,0.0,0.0,0.0,0.0,0.0,0.0,0.0,0.0,0.0,0.0,0.0,0.0,0.0,0.0,0.0,0.0,0.0,0.0,0.0,0.0,0.0,0.0,0.0,0.0,0.0,0.0,-2.6779,-2.7171,-2.779,0.0,-2.9446,-2.9446,-2.9446,-2.8314,-2.7542,-2.7365,0.0,0.0,0.0,0.0,0.0,0.0,0.0,0.0,0.0,0.0,0.0,0.0,0.0,0.0,0.0,0.0,0.0,0.0,0.0,0.0,0.0,0.0,0.0,0.0,0.0,0.0,0.0,0.0,0.0,0.0,0.0,0.0,0.0,0.0,0.0,0.0,0.0,0.0,0.0,0.0,0.0,0.0,0.0,0.0,0.0,0.0,0.0,0.0,0.0,0.0,0.0,0.0,0.0,0.0,0.0,0.0,0.0,0.0,0.0,0.0,0.0,0.0,0.0,0.0,0.0,0.0,0.0,0.0,0.0,0.0,0.0,0.0,0.0,0.0,0.0,0.0,0.0,0.0,0.0,0.0,0.0,0.0,0.0,0.0,0.0,0.0,0.0,0.0,0.0,0.0,0.0,0.0,0.0,0.0,0.0,0.0,0.0,0.0,0.0,0.0,0.0,0.0,-2.6779,-2.7335,-2.8003,-2.9258,-2.9509,-2.9602,-2.9602,-2.8493,-2.7703,0.0,0.0,0.0,0.0,0.0,0.0,0.0,0.0,0.0,0.0,0.0,0.0,0.0,0.0,0.0,0.0,0.0,0.0,0.0,0.0,0.0,0.0,0.0,0.0,0.0,0.0,0.0,0.0,0.0,0.0,0.0,0.0,0.0,0.0,0.0,0.0,0.0,0.0,0.0,0.0,0.0,0.0,0.0,0.0,0.0,0.0,0.0,0.0,0.0,0.0,0.0,0.0,0.0,0.0,0.0,0.0,0.0,0.0,0.0,0.0,0.0,0.0,0.0,0.0,0.0,0.0,0.0,0.0,0.0,0.0,0.0,0.0,0.0,0.0,0.0,0.0,0.0,0.0,0.0,0.0,0.0,0.0,0.0,0.0,0.0,0.0,0.0,0.0,0.0,0.0,0.0,0.0,0.0,0.0,0.0,0.0,0.0,0.0,0.0,0.0,0.0,0.0,0.0,-2.7039,-2.7799,-2.8566,-2.947,-2.9571,-2.9602,-2.9602,-2.8872,-2.824,-2.7731,0.0,0.0,0.0,0.0,0.0,0.0,0.0,0.0,0.0,0.0,0.0,0.0,0.0,0.0,0.0,0.0,0.0,0.0,0.0,0.0,0.0,0.0,0.0,0.0,0.0,0.0,0.0,0.0,0.0,0.0,0.0,0.0,0.0,0.0,0.0,0.0,0.0,0.0,0.0,0.0,0.0,0.0,0.0,0.0,0.0,0.0,0.0,0.0,0.0,0.0,0.0,0.0,0.0,0.0,0.0,0.0,0.0,0.0,0.0,0.0,0.0,0.0,0.0,0.0,0.0,0.0,0.0,0.0,0.0,0.0,0.0,0.0,0.0,0.0,0.0,0.0,0.0,0.0,0.0,0.0,0.0,0.0,0.0,0.0,0.0,0.0,0.0,0.0,0.0,0.0,0.0,0.0,0.0,0.0,0.0,0.0,0.0,0.0,0.0,0.0,0.0,0.0,-2.7214,-2.8296,-2.9232,-3.0006,-3.0288,-3.0362,-3.0216,-2.956,-2.8909,-2.8288,0.0,0.0,0.0,0.0,0.0,0.0,0.0,0.0,0.0,0.0,0.0,0.0,0.0,0.0,0.0,0.0,0.0,0.0,0.0,0.0,0.0,0.0,0.0,0.0,0.0,0.0,0.0,0.0,0.0,0.0,0.0,0.0,0.0,0.0,0.0,0.0,0.0,0.0,0.0,0.0,0.0,0.0,0.0,0.0,0.0,0.0,0.0,0.0,0.0,0.0,0.0,0.0,0.0,0.0,0.0,0.0,0.0,0.0,0.0,0.0,0.0,0.0,0.0,0.0,0.0,0.0,0.0,0.0,0.0,0.0,0.0,0.0,0.0,0.0,0.0,0.0,0.0,0.0,0.0,0.0,0.0,0.0,0.0,0.0,0.0,0.0,0.0,0.0,0.0,0.0,0.0,0.0,0.0,0.0,0.0,0.0,0.0,0.0,0.0,0.0,0.0,0.0,-2.7499,-2.8865,-3.002,-3.08,-3.1381,-3.1578,-3.1214,-3.0461,-2.9742,-2.9045,0.0,0.0,0.0,0.0,0.0,0.0,0.0,0.0,0.0,0.0,0.0,0.0,0.0,0.0,0.0,0.0,0.0,0.0,0.0,0.0,0.0,0.0,0.0,0.0,0.0,0.0,0.0,0.0,0.0,0.0,0.0,0.0,0.0,0.0,0.0,0.0,0.0,0.0,0.0,0.0,0.0,0.0,0.0,0.0,0.0,0.0,0.0,0.0,0.0,0.0,0.0,0.0,0.0,0.0,0.0,0.0,0.0,0.0,0.0,0.0,-2.2155,0.0,0.0,0.0,0.0,0.0,0.0,0.0,0.0,0.0,0.0,0.0,0.0,0.0,0.0,0.0,0.0,0.0,0.0,0.0,0.0,0.0,0.0,0.0,0.0,0.0,0.0,0.0,0.0,0.0,0.0,0.0,0.0,0.0,0.0,0.0,0.0,0.0,0.0,0.0,0.0,0.0,-2.8825,-2.9901,-3.0796,-3.1452,-3.1767,-3.1893,-3.1829,-3.1211,-3.0568,-2.9881,-2.851,0.0,0.0,0.0,0.0,0.0,0.0,0.0,0.0,0.0,0.0,0.0,0.0,0.0,0.0,0.0,0.0,0.0,0.0,0.0,0.0,0.0,0.0,0.0,0.0,0.0,0.0,0.0,0.0,0.0,0.0,0.0,0.0,0.0,0.0,0.0,0.0,0.0,0.0,0.0,0.0,0.0,0.0,0.0,0.0,0.0,0.0,0.0,0.0,0.0,0.0,0.0,0.0,0.0,0.0,0.0,0.0,0.0,0.0,0.0,0.0,-2.3344,0.0,0.0,0.0,0.0,0.0,0.0,0.0,0.0,0.0,0.0,0.0,0.0,0.0,0.0,0.0,0.0,0.0,0.0,0.0,0.0,0.0,0.0,0.0,0.0,0.0,0.0,0.0,0.0,0.0,0.0,0.0,0.0,0.0,0.0,0.0,0.0,0.0,0.0,0.0,0.0,-2.9518,-3.0831,-3.1886,-3.2364,-3.2763,-3.292,-3.2731,-3.2335,-3.1699,-3.0721,-2.9686,0.0,0.0,0.0,0.0,0.0,0.0,0.0,0.0,0.0,0.0,0.0,0.0,0.0,0.0,0.0,0.0,0.0,0.0,0.0,0.0,0.0,0.0,0.0,0.0,0.0,0.0,0.0,0.0,0.0,0.0,0.0,0.0,0.0,0.0,0.0,0.0,0.0,0.0,0.0,0.0,0.0,0.0,0.0,0.0,0.0,0.0,0.0,0.0,0.0,0.0,0.0,0.0,0.0,0.0,0.0,-2.9227,-2.9233,-2.9417,-2.9624,-2.7333,-2.6165,-2.5917,0.0,0.0,0.0,0.0,0.0,0.0,0.0,0.0,0.0,0.0,0.0,0.0,0.0,0.0,0.0,0.0,0.0,0.0,0.0,0.0,0.0,0.0,0.0,0.0,0.0,-2.6212,-2.5867,0.0,0.0,0.0,0.0,0.0,0.0,0.0,0.0,0.0,0.0,0.0,0.0,-3.0318,-3.1772,-3.2992,-3.3494,-3.3883,-3.4071,-3.3867,-3.3487,-3.2811,-3.174,-3.074,-2.9731,0.0,0.0,0.0,0.0,0.0,0.0,0.0,0.0,0.0,0.0,0.0,0.0,0.0,0.0,0.0,0.0,0.0,0.0,0.0,0.0,0.0,0.0,0.0,0.0,0.0,0.0,0.0,0.0,0.0,0.0,0.0,0.0,-2.1823,-2.2547,0.0,0.0,0.0,0.0,0.0,0.0,0.0,0.0,0.0,0.0,0.0,0.0,0.0,0.0,-2.9073,-2.9262,-2.958,-3.0025,-3.0598,-3.0788,-3.0559,-3.1065,-3.1265,-3.1185,-3.0671,0.0,-2.8428,-2.8365,0.0,0.0,0.0,0.0,0.0,0.0,0.0,0.0,0.0,0.0,0.0,0.0,0.0,0.0,0.0,0.0,0.0,0.0,0.0,0.0,0.0,0.0,-2.813,-2.8397,-2.8614,-2.8671,0.0,-2.7402,-2.6601,-2.672,0.0,0.0,0.0,0.0,0.0,0.0,0.0,0.0,-3.2103,-3.2816,-3.3576,-3.4738,-3.4553,-3.4569,-3.5101,-3.4095,-3.3398,-3.3224,-3.1524,-3.0465,-3.0306,-2.8508,0.0,0.0,0.0,0.0,0.0,0.0,0.0,0.0,0.0,0.0,0.0,0.0,0.0,0.0,0.0,0.0,0.0,0.0,0.0,0.0,0.0,0.0,0.0,0.0,0.0,0.0,0.0,0.0,0.0,-2.2863,-2.3777,-2.4433,-2.4791,-2.5236,0.0,0.0,0.0,0.0,0.0,0.0,0.0,0.0,0.0,-2.9305,-2.9668,-3.0088,-3.0654,-3.1031,-3.1538,-3.2127,-3.2306,-3.2614,-3.3033,-3.3186,-3.3374,-3.3586,-3.3501,-3.3003,-3.2159,-3.0567,-2.9654,-2.929,0.0,0.0,0.0,0.0,0.0,-2.7412,-2.7081,0.0,0.0,0.0,0.0,0.0,0.0,0.0,0.0,0.0,0.0,0.0,0.0,0.0,0.0,-3.0579,-3.0908,-3.1259,-3.136,-3.0618,-2.9578,0.0,-2.8377,-2.8487,-2.8927,0.0,0.0,0.0,0.0,0.0,-3.3378,-3.3959,-3.4658,-3.5687,-3.5613,-3.559,-3.5865,-3.5087,-3.4419,-3.4022,-3.2943,-3.1855,-3.0746,-3.0017,-2.8975,0.0,0.0,0.0,0.0,0.0,0.0,0.0,0.0,0.0,0.0,0.0,0.0,0.0,0.0,0.0,0.0,0.0,0.0,0.0,0.0,0.0,0.0,0.0,0.0,0.0,0.0,0.0,0.0,-2.4646,-2.5604,-2.6199,-2.6562,-2.6968,0.0,0.0,0.0,0.0,0.0,0.0,-2.9377,-3.0176,-3.0829,-3.1324,-3.1932,-3.2338,-3.2498,-3.2991,-3.3572,-3.4196,-3.4047,-3.4367,-3.5089,-3.4904,-3.4994,-3.5277,-3.5395,-3.5354,-3.505,-3.2712,-3.1639,-3.1432,-3.1293,-3.089,0.0,-3.0161,-2.9822,-2.9409,-2.9215,-2.9147,-2.9147,-2.9147,0.0,-2.9215,-2.9215,0.0,0.0,0.0,0.0,-3.0597,-3.0767,0.0,-3.268,-3.268,-3.3062,-3.3467,-3.3682,-3.3339,-3.2387,0.0,-2.9905,-2.9979,-3.049,0.0,0.0,0.0,0.0,-3.3468,-3.4502,-3.5091,-3.5695,-3.6454,-3.6402,-3.6373,-3.6548,-3.5892,-3.5258,-3.4743,-3.4109,-3.305,-3.1422,-3.119,-3.0335,-2.8724,0.0,0.0,0.0,0.0,0.0,0.0,0.0,0.0,0.0,0.0,0.0,0.0,0.0,0.0,0.0,0.0,0.0,0.0,0.0,0.0,0.0,0.0,0.0,0.0,0.0,0.0,0.0,0.0,0.0,-2.7521,-2.8667,0.0,0.0,0.0,0.0,-3.0409,-3.0974,-3.1306,-3.135,-3.2617,-3.3329,-3.3358,-3.3935,-3.4559,-3.5203,-3.5247,-3.5581,-3.617,-3.617,-3.6078,-3.5921,-3.574,-3.5587,-3.5526,-3.5883,-3.6061,-3.5967,-3.5064,-3.4251,-3.3555,-3.3555,-3.3182,-3.2607,-3.2393,-3.2307,-3.228,-3.2064,-3.1992,-3.1992,-3.1992,-3.2136,-3.228,-3.228,-3.2423,0.0,0.0,-3.303,-3.35,-3.35,-3.4117,-3.4752,-3.4752,-3.4929,-3.5127,-3.5325,-3.5334,-3.4731,0.0,-3.1794,-3.1415,-3.1429,0.0,-3.2075,-3.3314,-3.3851,-3.4565,-3.5755,-3.6086,-3.6519,-3.7186,-3.6693,-3.6562,-3.7201,-3.6245,-3.559,-3.5526,-3.4556,-3.3652,-3.2899,-3.1736,-3.0763,-3.001,-2.8783,0.0,0.0,0.0,0.0,0.0,0.0,0.0,0.0,0.0,0.0,0.0,0.0,0.0,0.0,0.0,0.0,0.0,0.0,0.0,0.0,0.0,0.0,0.0,0.0,0.0,0.0,0.0,0.0,-2.9479,-3.0321,0.0,0.0,-3.2063,-3.2472,-3.2472,-3.3021,-3.3558,-3.4012,-3.4462,-3.4913,-3.5285,-3.5517,-3.5749,-3.5967,-3.5967,-3.6301,-3.6954,-3.7346,-3.7626,-3.7872,-3.8184,-3.8153,-3.7884,-3.8017,-3.8037,-3.7889,-3.7585,-3.6741,-3.5628,-3.5512,-3.5297,-3.5103,-3.5027,-3.5027,-3.4934,-3.4472,-3.4334,-3.4279,-3.3881,-3.3794,-3.3831,-3.3831,-3.3905,-3.4025,-3.4412,-3.4802,-3.5127,-3.5516,-3.6227,-3.6883,-3.7067,-3.7455,-3.7816,-3.8037,-3.7762,-3.7149,-3.5977,-3.4932,-3.4285,-3.4285,-3.4305,-3.4518,-3.5053,-3.5267,-3.5725,-3.6729,-3.6918,-3.7186,-3.781,-3.7665,-3.7622,-3.7868,-3.7266,-3.6687,-3.6277,-3.5701,-3.4907,-3.3811,-3.3061,-3.2139,-3.1023,-3.0144,-2.9369,0.0,0.0,0.0,0.0,0.0,0.0,0.0,0.0,0.0,0.0,0.0,0.0,0.0,0.0,0.0,0.0,0.0,0.0,0.0,0.0,0.0,0.0,0.0,0.0,0.0,0.0,-3.0776,-3.1623,-3.2232,-3.2856,-3.3511,-3.4084,-3.4428,-3.4428,-3.482,-3.5328,-3.6017,-3.6249,-3.662,-3.7259,-3.7476,-3.7593,-3.7593,-3.7593,-3.781,-3.826,-3.8652,-3.8996,-3.9314,-3.9668,-3.9656,-3.9404,-3.9455,-3.9431,-3.9322,-3.9436,-3.8946,-3.7999,-3.7459,-3.7252,-3.7212,-3.7118,-3.7118,-3.7023,-3.6595,-3.6417,-3.6348,-3.5947,-3.5848,-3.5925,-3.5925,-3.5964,-3.6139,-3.6543,-3.6733,-3.6948,-3.7433,-3.792,-3.839,-3.8658,-3.901,-3.9349,-3.9576,-3.9287,-3.8896,-3.8529,-3.7166,-3.6047,-3.5833,-3.5826,-3.5956,-3.6302,-3.6382,-3.6722,-3.7483,-3.7607,-3.7767,-3.8159,-3.8202,-3.8202,-3.8202,-3.7879,-3.7395,-3.6714,-3.6462,-3.5699,-3.4358,-3.3991,-3.3215,-3.1854,-3.0971,-3.0193,-2.9606,0.0,0.0,0.0,0.0,0.0,0.0,0.0,0.0,0.0,0.0,0.0,0.0,0.0,0.0,0.0,0.0,0.0,0.0,0.0,0.0,0.0,0.0,0.0,-3.1176,-3.1751,-3.2667,-3.392,-3.4494,-3.5039,-3.5683,-3.6137,-3.6373,-3.6402,-3.6417,-3.6707,-3.736,-3.7941,-3.8565,-3.9218,-3.9799,-4.0104,-4.0104,-4.0104,-4.0104,-4.0104,-4.0118,-4.0133,-4.0133,-3.9939,-3.9873,-3.9862,-4.0087,-4.0151,-4.0151,-4.0548,-4.0702,-4.0618,-3.9436,-3.8972,-3.8917,-3.867,-3.8573,-3.8518,-3.8297,-3.8256,-3.82,-3.82,-3.8339,-3.8518,-3.8518,-3.8669,-3.8916,-3.893,-3.8944,-3.8985,-3.9203,-3.9258,-3.9339,-3.9513,-3.9579,-3.9619,-3.9833,-3.9873,-3.9899,-4.0093,-3.8347,-3.6648,-3.6055,-3.6035,-3.6345,-3.6993,-3.7265,0.0,-3.8159,-3.8217,-3.8202,-3.8202,-3.8202,-3.8202,-3.8202,-3.8004,-3.7538,-3.689,-3.6648,-3.5956,-3.4623,-3.4533,-3.3858,-3.2572,-3.124,-3.0253,-2.9666,0.0,0.0,0.0,0.0,0.0,0.0,0.0,0.0,0.0,0.0,0.0,0.0,0.0,0.0,0.0,0.0,0.0,0.0,0.0,0.0,0.0,0.0,-3.3724,-3.2698,-3.3509,-3.4528,-3.5337,-3.5967,-3.6566,-3.7243,-3.766,-3.8105,-3.8573,-3.8873,-3.9146,-3.932,-3.9479,-3.9654,-3.9842,-4.0002,-4.0104,-4.0104,-4.0104,-4.0104,-4.0104,-4.0583,-4.0829,-4.0844,-4.1282,-4.1377,-4.1184,-4.1247,-4.1166,-4.1069,-4.1156,-4.1227,-4.1142,-4.0464,-4.0196,-4.0196,-4.0139,-3.9817,-3.9438,-3.9396,-3.9075,-3.8697,-3.8697,-3.8738,-3.8806,-3.8806,-3.8861,-3.9,-3.9616,-3.9785,-3.9939,-4.0601,-4.0798,-4.084,-4.106,-4.1101,-4.1143,-4.1418,-4.1473,-4.1328,-4.0916,-4.0329,-3.9685,-3.902,-3.8943,-3.904,-3.9214,0.0,0.0,-3.8899,-3.8507,-3.8202,-3.8202,-3.8202,-3.824,-3.8404,-3.8488,-3.8288,-3.7795,-3.7386,-3.6791,-3.5968,-3.5028,-3.4114,-3.3245,-3.2392,-3.1644,0.0,0.0,0.0,0.0,0.0,0.0,0.0,0.0,0.0,0.0,0.0,0.0,0.0,0.0,0.0,0.0,0.0,0.0,0.0,0.0,0.0,0.0,-3.4569,-3.5728,-3.5737,-3.6119,-3.6669,-3.7352,-3.792,-3.85,-3.918,-3.9318,-3.9496,-3.9914,-4.0018,-4.022,-4.0495,-4.0525,-4.0641,-4.0931,-4.0931,-4.0931,-4.0931,-4.0931,-4.0931,-4.0945,-4.1323,-4.1512,-4.1526,-4.1918,-4.1995,0.0,-4.1744,-4.1777,-4.1923,-4.181,-4.1924,0.0,0.0,0.0,0.0,0.0,-4.093,-4.0322,-4.0322,-3.9999,-3.9676,-3.9745,-3.997,-4.0223,-4.0307,-4.0533,-4.0816,-4.1312,-4.1454,-4.1582,-4.2153,-4.2324,-4.2381,-4.2593,-4.2678,-4.2735,-4.2848,-4.289,-4.2687,-4.202,0.0,0.0,-4.1047,-4.0466,-4.0104,-4.0104,-3.9799,-3.9581,0.0,-3.9233,-3.8899,-3.8652,-3.8623,-3.8583,-3.8508,-3.8686,0.0,0.0,0.0,-3.7419,-3.6522,-3.5222,0.0,0.0,0.0,-3.2811,0.0,0.0,0.0,0.0,-3.0657,-3.0731,0.0,0.0,0.0,0.0,0.0,0.0,0.0,0.0,0.0,0.0,0.0,0.0,0.0,0.0,0.0,0.0,-3.6342,-3.7449,-3.9275,-3.9125,-3.9035,-3.9574,-3.9995,-4.0494,-4.1177,-4.0905,-4.07,-4.0734,-4.0508,-4.0622,-4.1178,0.0,0.0,0.0,0.0,-4.2092,-4.2092,-4.2092,-4.2092,-4.2092,-4.2092,-4.2092,-4.2092,-4.2165,-4.2194,-4.2194,-4.2029,-4.2292,-4.2839,-4.2582,-4.2825,-4.324,-4.2081,-4.1924,-4.2424,-4.2424,-4.1896,0.0,0.0,0.0,0.0,-4.1227,-4.1653,-4.2164,-4.2352,-4.2839,-4.3297,-4.3341,-4.3341,-4.3384,-4.3589,-4.3632,-4.3719,-4.3936,-4.3993,-4.3993,-4.4037,-4.4022,-4.3862,-4.3294,-4.3193,-4.2989,-4.2378,-4.1189,-4.0321,-4.0321,-4.0263,0.0,-4.0205,-4.0147,-3.9886,-3.9363,0.0,0.0,-3.8676,-3.873,-3.8656,-3.8273,-3.8331,-3.7853,-3.6641,-3.5402,-3.4728,-3.476,-3.4179,-3.3834,-3.3666,-3.3773,-3.3728,-3.3605,-3.2332,-3.2123,0.0,0.0,0.0,0.0,0.0,0.0,0.0,0.0,0.0,0.0,0.0,0.0,0.0,0.0,0.0,-3.6836,-3.8063,-3.917,-4.0083,-4.1048,-4.1482,-4.1055,-4.1077,-4.1406,-4.2064,-4.1891,-4.1863,-4.225,-4.2093,-4.1948,-4.1903,-4.1903,0.0,-4.2092,-4.2092,-4.2092,-4.2092,-4.2092,-4.2092,-4.2092,0.0,0.0,-4.2107,-4.26,-4.2818,-4.2847,-4.3341,-4.3646,-4.3762,-4.3704,-4.3733,-4.3777,-4.3184,-4.3011,-4.3125,-4.3125,-4.2995,-4.2852,-4.2852,-4.2852,-4.2808,-4.2852,-4.2923,-4.3081,-4.3067,-4.3211,0.0,-4.3501,-4.3531,-4.3589,-4.3835,-4.3936,-4.3936,-4.3993,-4.3993,-4.4022,-4.4223,-4.4223,-4.4279,-4.4374,-4.4387,-4.4181,-4.3505,-4.2456,-4.17,-4.17,-4.125,-4.0902,-4.0902,-4.0423,-4.006,-3.9944,-3.9494,-3.9299,-3.9547,-3.9106,-3.8884,-3.9122,-3.8671,-3.8048,-3.727,-3.6507,-3.6154,-3.627,-3.5113,-3.4589,-3.4728,-3.4106,-3.403,-3.4466,-3.3531,-3.3769,0.0,0.0,0.0,0.0,0.0,0.0,0.0,0.0,0.0,0.0,0.0,-3.4109,0.0,0.0,-3.7674,-3.8317,-3.9529,-4.0621,-4.1294,-4.1991,-4.2276,-4.1946,-4.2162,-4.2491,-4.2821,-4.2624,-4.256,-4.2699,-4.2808,-4.275,-4.2542,-4.2861,-4.305,-4.305,-4.305,-4.305,-4.305,-4.305,-4.305,-4.305,-4.305,-4.305,-4.305,-4.3355,-4.3485,-4.3515,-4.3848,-4.4153,-4.4458,-4.4806,-4.4937,-4.4937,-4.4701,-4.4223,-4.3704,-4.4007,-4.3818,-4.3458,-4.3458,-4.3384,-4.3311,-4.3428,-4.3687,-4.396,-4.4078,-4.4353,-4.4612,-4.4731,-4.4775,-4.4775,-4.4937,-4.4937,-4.4981,-4.5055,-4.5098,-4.5186,-4.5405,-4.5448,-4.5389,-4.5194,-4.5163,-4.4971,-4.4322,-4.3745,-4.3153,-4.2386,-4.1966,-4.1706,-4.1599,-4.1308,-4.0974,-4.0641,-4.0321,-4.0173,-4.0277,-3.9854,-3.9534,-3.9403,-3.8766,-3.8242,-3.7913,-3.7402,-3.7124,-3.7176,-3.6758,-3.6506,-3.6506,-3.6187,-3.6091,-3.62,-3.5786,-3.5767,0.0,0.0,0.0,0.0,0.0,0.0,0.0,0.0,-3.3257,-3.4457,-3.531,-3.6118,-3.6911,-3.8347,-3.9544,-3.9933,-4.0876,-4.1841,-4.25,-4.259,-4.259,-4.259,-4.3015,-4.329,-4.329,-4.3155,-4.3015,-4.292,-4.3175,-4.3317,-4.3181,-4.3703,-4.3993,-4.3993,-4.3993,-4.3993,-4.3993,-4.3993,-4.3993,-4.3993,-4.3993,-4.3993,-4.3993,-4.411,-4.4168,-4.4168,-4.4298,-4.4632,-4.5126,-4.5663,-4.588,-4.588,-4.588,-4.5256,-4.4414,-4.4908,-4.466,-4.4036,-4.4036,-4.3919,-4.3845,-4.3992,-4.4397,-4.4889,-4.5038,-4.5459,-4.588,-4.588,-4.588,-4.588,-4.588,-4.5925,-4.6015,-4.6165,-4.6254,-4.6358,-4.658,-4.6683,-4.652,-4.6017,-4.5914,-4.5707,-4.5143,-4.5025,-4.4455,-4.2896,-4.265,-4.2538,-4.2189,-4.2175,-4.193,-4.1352,-4.1204,-4.1069,-4.087,-4.0703,-4.0307,-3.9649,-3.9095,-3.8721,-3.8601,-3.8146,-3.7903,-3.7937,-3.8187,-3.8226,-3.8095,-3.8193,-3.8059,-3.7756,-3.7809,-3.7481,-3.3171,-3.3156,0.0,-3.311,-3.314,-3.317,0.0,0.0,-3.5173,-3.5355,-3.6357,-3.7584,-3.8856,-3.9275,-3.9993,-4.1782,-4.2186,-4.2515,-4.3095,-4.3185,-4.3185,-4.3185,-4.3245,-4.329,-4.329,-4.329,-4.3343,-4.3584,-4.362,-4.3705,-4.3891,-4.395,-4.3993,-4.3993,-4.3993,-4.3993,-4.3993,-4.3993,-4.3993,-4.3993,-4.3993,-4.3993,-4.4008,-4.4545,-4.4792,-4.4821,-4.5416,-4.5706,-4.5779,-4.5851,-4.588,-4.588,-4.588,-4.5793,-4.5692,-4.575,-4.5735,-4.5618,-4.5618,-4.5618,-4.5618,-4.5618,-4.5676,-4.5779,-4.5779,-4.5822,-4.588,-4.588,-4.588,-4.588,-4.588,-4.6046,-4.6165,-4.621,-4.6358,-4.6624,-4.6844,-4.6887,-4.6901,-4.7075,-4.7103,-4.6894,-4.6237,-4.6132,-4.5543,-4.3791,-4.3558,-4.3269,-4.2465,-4.2351,-4.2254,-4.2032,-4.1601,-4.1292,-4.1062,-4.1211,-4.0995,-4.0337,-4.0217,-3.9918,-3.9334,-3.8838,-3.8666,-3.8853,-3.8479,-3.8358,-3.8442,-3.8159,-3.8007,-3.7989,-3.8206,-3.8277,-3.3864,0.0,0.0,0.0,-3.4665,-3.5057,-3.545,-3.6265,-3.7065,-3.7443,-3.7869,-3.8582,-3.992,-4.0381,-4.095,0.0,-4.2671,-4.3015,-4.3245,-4.329,-4.329,-4.329,-4.3633,-4.3858,-4.3858,-4.3858,-4.3979,-4.4234,-4.4604,-4.4715,-4.4545,-4.4879,-4.5097,-4.5097,-4.5097,-4.5097,-4.5097,-4.5097,-4.5097,-4.5097,-4.5097,-4.5097,-4.5097,-4.5358,-4.5459,-4.5488,-4.5764,-4.588,-4.588,-4.588,-4.588,-4.588,-4.588,-4.588,-4.588,-4.588,-4.588,-4.588,-4.588,-4.588,-4.588,-4.588,-4.588,-4.588,-4.588,-4.588,-4.588,-4.588,-4.597,-4.609,-4.609,-4.6269,-4.6447,-4.6565,-4.6712,-4.6844,-4.7077,-4.7121,-4.7164,-4.7266,-4.7309,-4.7219,-4.6935,-4.689,-4.6491,-4.5367,-4.4454,-4.3696,-4.321,-4.2816,-4.2541,-4.2474,-4.2357,-4.2129,-4.165,-4.1822,-4.1707,-4.101,-4.0965,-4.0846,-4.0576,-4.0224,-4.0092,-4.0163,-3.9772,-3.9625,-3.9644,-3.9436,-3.928,-3.9176,-3.9139,-3.9292,-3.4623,0.0,0.0,-3.5443,-3.6066,-3.6689,-3.7175,-3.7798,-3.8405,-3.8892,-3.9011,-3.9451,-4.0758,-4.1242,-4.1745,-4.253,-4.3015,-4.329,-4.329,-4.329,-4.329,-4.329,-4.3873,-4.4392,-4.4571,-4.4586,-4.4649,-4.484,-4.5313,-4.5478,-4.5199,-4.5619,-4.588,-4.588,-4.588,-4.588,-4.588,-4.588,-4.588,-4.588,-4.588,-4.588,-4.588,-4.588,-4.588,-4.588,-4.588,-4.588,-4.588,-4.588,-4.588,-4.588,-4.588,-4.588,-4.588,-4.588,-4.588,-4.588,-4.588,-4.588,-4.588,-4.588,-4.588,-4.588,-4.588,-4.5925,-4.597,-4.597,-4.6135,-4.6314,-4.6314,-4.6491,-4.6712,-4.6887,-4.6975,-4.7062,-4.7251,-4.7309,-4.7309,-4.7309,-4.7309,-4.7309,-4.7309,-4.7309,-4.7145,-4.6666,-4.5451,-4.4481,-4.4122,-4.3393,-4.2935,-4.2784,-4.2915,-4.2842,-4.2406,-4.2548,-4.2381,-4.1737,-4.1692,-4.1602,-4.1384,-4.1308,-4.1271,-4.1271,-4.1143,-4.0981,-4.0782,-4.0771,-4.0593,-4.0284,-4.02,-4.0349,0.0,0.0,-3.6917,-3.6932,-3.7433,-3.795,-3.7965,-3.8481,-3.8967,-3.8998,-3.9495,-4.0304,-4.1467,-4.1701,-4.2062,-4.309,-4.329,-4.329,-4.329,-4.329,-4.329,-4.329,-4.3873,-4.4571,0.0,-4.5274,-4.5335,-4.5548,-4.5578,-4.5683,-4.5867,-4.588,-4.588,-4.588,-4.588,-4.588,-4.588,-4.588,-4.588,-4.588,-4.588,-4.588,-4.588,-4.588,-4.588,-4.588,-4.588,-4.588,-4.588,-4.588,-4.588,-4.588,-4.588,-4.588,-4.588,-4.588,-4.588,-4.588,-4.588,-4.588,-4.588,-4.588,-4.588,-4.588,-4.588,-4.606,-4.621,-4.621,-4.6358,-4.6594,-4.6594,-4.6756,-4.6873,-4.6916,-4.7121,-4.7309,-4.7309,-4.7309,-4.7309,-4.7309,-4.7309,-4.7309,-4.7309,-4.7309,-4.7294,-4.7279,-4.6696,-4.5896,-4.5087,-4.4196,-4.3504,-4.3055,-4.2981,-4.3061,-4.326,-4.326,-4.303,-4.241,-4.2366,-4.2081,-4.1452,-4.1783,-4.1969,-4.1969,-4.2322,-4.2232,-4.1571,-4.1803,-4.1605,-4.0982,-4.1212,-4.1377,-3.6935,0.0,-3.7439,-3.7883,-3.8512,-3.9002,-3.9002,-3.9523,-4.0014,-4.0014,-4.0109,-4.0431,-4.1243,-4.1533,-4.1949,-4.273,-4.3084,-4.329,-4.329,-4.329,-4.3454,-4.3888,-4.4571,0.0,0.0,0.0,0.0,-4.627,-4.627,-4.6138,-4.5911,-4.588,-4.588,-4.588,-4.588,-4.588,-4.588,-4.588,-4.588,-4.588,-4.588,-4.588,-4.588,-4.588,-4.588,-4.588,-4.588,-4.588,-4.588,-4.588,-4.588,-4.588,-4.588,-4.588,-4.588,-4.588,-4.588,-4.588,-4.588,-4.588,-4.588,-4.588,-4.588,-4.5925,-4.6046,-4.6135,-4.6254,-4.6403,-4.6624,-4.68,-4.68,-4.6975,-4.7164,-4.7164,-4.7207,-4.7309,-4.7309,-4.7309,-4.7309,-4.7309,-4.7309,-4.7309,-4.7309,-4.7309,-4.7309,-4.7309,-4.6741,-4.6025,-4.5311,-4.4944,-4.4542,-4.3926,-4.3852,-4.3713,-4.3334,-4.329,-4.32,-4.3015,-4.3015,-4.291,-4.2686,-4.2651,-4.2652,-4.2652,-4.2613,-4.2494,-4.2263,-4.2077,-4.1878,-4.1665,-4.1468,-4.1647,-3.7384,-3.7861,-3.8323,-3.8769,-3.9351,-3.9844,-3.9844,-4.0182,-4.0489,-4.0489,-4.0436,-4.053,-4.1102,-4.1374,-4.176,-4.25,-4.2842,-4.3099,-4.326,-4.329,-4.3544,-4.4242,-4.4885,-4.5559,0.0,0.0,0.0,-4.6609,-4.6594,-4.6417,-4.5925,-4.588,-4.588,-4.588,-4.588,-4.588,-4.588,-4.588,-4.588,-4.588,-4.588,-4.588,-4.588,-4.588,-4.588,-4.588,-4.588,-4.588,-4.588,-4.588,-4.588,-4.588,-4.588,-4.588,-4.588,-4.588,-4.588,-4.588,-4.588,-4.588,-4.588,-4.588,-4.5925,-4.6046,-4.6165,-4.6299,-4.6491,-4.6668,-4.6887,-4.7019,-4.7019,-4.7164,-4.7309,-4.7309,-4.7309,-4.7309,-4.7309,-4.7309,-4.7309,-4.7309,-4.7309,-4.7309,-4.7309,-4.7309,-4.7309,-4.7309,-4.695,-4.6441,-4.5753,-4.5663,-4.5409,-4.4736,-4.4661,-4.4407,-4.3693,-4.3648,-4.3544,-4.3305,-4.329,-4.329,-4.329,-4.3253,-4.3273,-4.335,-4.328,-4.3076,-4.2846,-4.2779,-4.2538,-4.2221,-4.2121,-4.2297,-3.7538,-3.8508,-3.949,-3.9521,-4.0013,-4.0489,-4.0489,-4.0459,-4.0443,-4.0443,-4.0413,-4.0547,0.0,0.0,-4.1462,-4.2372,-4.2552,-4.2745,-4.3195,-4.3275,-4.3544,0.0,0.0,0.0,0.0,0.0,0.0,-4.6639,0.0,-4.6417,-4.5925,-4.5925,-4.588,-4.588,-4.588,-4.588,-4.588,-4.588,-4.588,-4.588,-4.588,-4.588,-4.588,-4.588,-4.588,-4.588,-4.588,-4.588,-4.588,-4.588,-4.588,-4.588,-4.588,-4.588,-4.588,-4.588,-4.588,-4.588,-4.588,-4.588,-4.588,-4.5925,-4.6046,-4.621,-4.621,-4.6565,-4.6916,-4.6916,-4.7121,-4.7309,-4.7309,-4.7309,-4.7309,-4.7309,-4.7339,-4.7354,-4.7354,-4.7354,-4.7354,-4.7354,-4.7324,-4.7309,-4.7309,-4.7309,-4.7309,-4.7309,-4.7309,-4.7085,-4.6414,-4.6324,-4.6112,-4.5424,-4.5349,-4.508,-4.4421,-4.4362,-4.4092,-4.3379,-4.3349,-4.3334,-4.329,-4.3557,-4.3808,-4.3988,-4.4166,-4.396,-4.3334,-4.3784,-4.3538,-4.2672,-4.3124,-4.329,-3.8123,-3.8877,-3.9613,-4.0105,-4.0366,-4.0489,-4.0489,-4.0105,-3.9736,-3.9736,-3.9351,-3.9198,0.0,0.0,0.0,-4.131,-4.2093,0.0,-4.262,-4.303,0.0,-4.4915,0.0,-4.5753,-4.6935,-4.7204,0.0,0.0,-4.6668,-4.6462,-4.6135,-4.597,-4.588,-4.588,-4.588,-4.588,-4.588,-4.588,-4.588,-4.588,-4.588,-4.579,-4.5595,-4.579,-4.579,-4.5595,-4.579,-4.588,-4.588,-4.588,-4.588,-4.588,-4.588,-4.588,-4.588,-4.588,-4.588,-4.588,-4.588,-4.588,-4.5925,-4.609,-4.618,-4.6269,-4.6624,-4.68,-4.6931,-4.7164,-4.7251,-4.7309,-4.7309,-4.7309,-4.7309,-4.7309,-4.7683,-4.8042,-4.8042,-4.8042,-4.8042,-4.8042,-4.7638,-4.7309,-4.7309,-4.7309,-4.7309,-4.7309,-4.7309,-4.7249,-4.707,-4.7055,-4.68,-4.6142,-4.6067,-4.5783,-4.511,-4.505,-4.4766,-4.4107,-4.4062,-4.3798,-4.3319,-4.3557,-4.3729,-4.3769,-4.3988,-4.3974,-4.3807,-4.3795,-4.3663,-4.3434,-4.3349,-4.321,-3.8415,-3.9216,-4.0013,-4.0397,-4.0274,-4.0043,-4.0043,-3.9521,-3.9077,-3.9077,-3.8769,0.0,-3.9,0.0,0.0,0.0,0.0,0.0,-4.2359,-4.2671,-4.3494,0.0,-4.5289,0.0,-4.7174,-4.7309,-4.7251,0.0,-4.6771,-4.6491,-4.621,-4.6001,-4.588,-4.588,-4.588,-4.588,-4.588,-4.588,-4.588,-4.588,-4.579,-4.564,-4.5504,-4.5549,-4.5549,-4.5504,0.0,-4.579,-4.588,-4.588,-4.588,-4.588,-4.588,-4.588,-4.588,-4.588,-4.588,-4.588,-4.588,-4.588,-4.5925,-4.6135,-4.6269,-4.6447,-4.6785,-4.6975,-4.7121,-4.7251,-4.7309,-4.7309,-4.7309,-4.7519,-4.7743,-4.7743,-4.8237,-4.876,-4.876,-4.8491,-4.8192,-4.7908,-4.7563,-4.7309,-4.7309,-4.7309,-4.7309,-4.7309,-4.7309,-4.7309,-4.7309,-4.7309,-4.716,-4.68,-4.6756,-4.6486,-4.5798,-4.5738,-4.5454,-4.4781,-4.4751,-4.4451,-4.3753,-4.3898,-4.3897,-4.369,-4.3793,-4.3871,-4.3871,-4.3769,-4.3636,-4.3518,-4.3384,-4.321,-3.8492,-3.9398,-4.0366,-4.0366,-3.992,-3.9459,-3.9367,-3.8862,-3.8369,-3.8369,0.0,-3.8262,-3.8354,-3.8665,-3.9123,-3.9692,0.0,-4.0971,-4.2119,-4.2351,-4.3129,-4.5065,-4.5289,-4.5828,-4.7174,-4.7309,-4.7309,-4.7251,-4.6858,-4.6506,-4.6269,-4.6015,-4.588,-4.588,-4.588,-4.588,-4.588,-4.588,-4.588,-4.588,-4.564,-4.5504,-4.5458,-4.5216,-4.5273,-4.5588,0.0,0.0,-4.6011,-4.6011,-4.5953,-4.588,-4.588,-4.588,-4.588,-4.588,-4.588,-4.588,-4.588,-4.588,-4.5925,-4.618,-4.6403,-4.6639,-4.6887,-4.7121,-4.7309,-4.7309,-4.7369,-4.7429,-4.7429,-4.7923,-4.8416,-4.8416,-4.8955,-4.9434,-4.9434,-4.888,-4.8192,-4.7459,-4.7309,-4.7309,-4.7309,-4.7309,-4.7309,-4.7309,-4.7309,-4.7309,-4.7309,-4.7309,-4.7309,-4.7309,-4.7309,-4.707,-4.6459,-4.6414,-4.6157,-4.5484,-4.5424,-4.5125,-4.4466,-4.4362,-4.4143,-4.3786,-4.3681,-4.3651,-4.3651,-4.3651,-4.3518,-4.329,-4.329,-4.317,-3.8354,-3.9059,-3.9659,-3.9659,-3.9582,-3.9336,-3.8816,-3.8154,0.0,0.0,-3.723,-3.7015,-3.7569,-3.7592,-3.7903,-3.8963,0.0,0.0,0.0,0.0,-4.3129,0.0,0.0,0.0,0.0,0.0,0.0,0.0,0.0,0.0,-4.655,-4.615,-4.588,-4.588,-4.588,-4.588,-4.588,-4.588,-4.588,-4.588,-4.564,-4.5367,-4.517,-4.5124,-4.5424,-4.6031,0.0,0.0,-4.6664,-4.6664,-4.6359,-4.588,-4.588,-4.588,-4.588,-4.588,-4.588,-4.588,-4.588,-4.588,-4.597,-4.6373,-4.655,-4.6683,-4.7077,-4.7251,-4.7309,-4.7309,-4.7698,-4.8117,-4.8117,-4.8596,-4.9149,-4.9149,-4.9598,-5.0016,-5.0016,-4.9553,-4.8745,-4.7534,-4.7309,-4.7309,-4.7309,-4.7309,-4.7309,-4.7309,-4.7309,-4.7309,-4.7309,-4.7309,-4.7309,-4.7309,-4.7309,-4.7249,-4.7145,-4.713,-4.686,-4.6187,-4.6142,-4.5843,-4.5155,-4.4601,-4.4257,-4.4193,-4.3653,-4.3384,-4.3384,-4.3384,-4.3344,-4.329,-4.329,-4.309,-3.7892,-3.8477,-3.8985,-3.8985,-3.8723,-3.8385,-3.8061,0.0,0.0,0.0,-3.5953,-3.5645,-3.6183,0.0,0.0,0.0,0.0,0.0,0.0,0.0,0.0,0.0,0.0,0.0,0.0,0.0,0.0,0.0,0.0,0.0,0.0,-4.6105,-4.588,-4.588,-4.588,-4.588,-4.588,-4.588,-4.588,-4.588,-4.5504,-4.5402,-4.5592,-4.5344,-4.5652,-4.6391,0.0,0.0,-4.7084,-4.6877,-4.665,-4.6345,-4.6011,-4.588,-4.588,-4.588,-4.588,-4.588,-4.588,-4.588,-4.597,-4.6269,-4.6506,-4.6683,-4.7179,-4.7534,-4.7818,-4.7818,-4.8282,-4.879,-4.879,-4.9284,-4.9778,-4.9778,-5.0272,-5.0556,-4.9883,-4.9479,-4.8925,-4.7563,-4.7309,-4.7309,-4.7309,-4.7309,-4.7309,-4.7309,-4.7309,-4.7309,-4.7309,-4.7309,-4.7309,-4.7309,-4.7309,-4.7309,-4.7309,-4.7309,-4.7174,-4.686,-4.683,-4.6531,-4.5858,-4.5185,-4.4661,-4.4332,-4.3618,-4.329,-4.329,-4.329,-4.329,-4.329,-4.321,-4.2955,-3.7461,-3.7892,-3.8292,-3.8292,-3.7892,-3.7415,-3.7138,-3.6245,0.0,0.0,-3.4845,-3.4555,-3.4927,0.0,-3.5846,0.0,-3.7432,0.0,0.0,0.0,0.0,0.0,0.0,0.0,0.0,0.0,0.0,0.0,0.0,0.0,0.0,-4.597,-4.588,-4.588,-4.588,-4.588,-4.588,-4.588,-4.588,-4.5895,-4.5496,-4.561,-4.6109,-4.5717,-4.6017,-4.6838,0.0,0.0,0.0,-4.7308,-4.7024,-4.6734,-4.6287,-4.5996,-4.588,-4.588,-4.588,-4.588,-4.588,-4.588,-4.5925,-4.6135,-4.6358,-4.6712,-4.7241,-4.7834,-4.8312,-4.8461,-4.897,-4.9479,-4.9479,-4.9957,-5.0405,-5.0405,-5.084,-5.0855,-4.9599,-4.9314,-4.8925,-4.7563,-4.7309,-4.7309,-4.7309,-4.7309,-4.7309,-4.7309,-4.7309,-4.7309,-4.7309,-4.7309,-4.7309,-4.7309,-4.7309,-4.7309,-4.7309,-4.7309,-4.7309,-4.7309,-4.7309,-4.707,-4.6561,-4.5738,-4.505,-4.4526,-4.3693,-4.329,-4.329,-4.329,-4.329,-4.325,-4.3076,-4.2875,-3.7338,-3.7538,-3.7584,-3.7584,-3.7554,-3.7169,-3.5953,0.0,0.0,-3.472,-3.4418,-3.4253,-3.427,-3.4592,-3.5041,-3.5672,-3.6727,-3.7943,0.0,0.0,0.0,0.0,0.0,0.0,0.0,0.0,0.0,0.0,0.0,0.0,0.0,-4.5925,-4.588,-4.588,-4.588,-4.588,-4.588,-4.588,-4.588,-4.5895,-4.597,-4.6052,-4.6077,-4.6183,-4.6679,-4.7524,0.0,0.0,0.0,-4.8422,-4.7822,-4.6778,-4.672,-4.6388,-4.588,-4.588,-4.588,-4.588,-4.588,-4.588,-4.5925,-4.6135,-4.6358,-4.6757,-4.7585,-4.8045,-4.8416,-4.906,-4.9643,-5.0106,-5.0106,-5.0584,-5.1124,-5.1124,-5.1169,-5.0855,-4.9599,-4.9314,-4.8925,-4.7563,-4.7309,-4.7309,-4.7309,-4.7309,-4.7309,-4.7309,-4.7309,-4.7309,-4.7309,-4.7309,-4.7309,-4.7309,-4.7309,-4.7309,-4.7309,-4.7309,-4.7309,-4.7309,-4.7309,-4.7279,-4.7219,-4.5978,-4.5274,-4.5214,-4.3932,-4.329,-4.329,-4.329,-4.321,-4.3036,-4.3036,-4.2795,-3.6707,-3.6892,-3.6892,-3.6892,-3.6584,-3.6153,-3.5599,0.0,-3.4123,-3.3775,-3.3334,-3.305,-3.3257,-3.3426,-3.3834,-3.4808,-3.6049,0.0,-3.8078,0.0,0.0,0.0,0.0,0.0,0.0,0.0,0.0,0.0,0.0,0.0,0.0,0.0,-4.588,-4.588,-4.588,-4.588,-4.588,-4.588,-4.6069,-4.6461,-4.6214,-4.6495,-4.7161,-4.696,-4.7228,0.0,0.0,0.0,0.0,-4.8692,-4.8373,-4.7851,-4.7082,-4.6633,-4.6417,-4.6026,-4.588,-4.588,-4.588,-4.588,-4.5925,-4.6015,-4.618,-4.6564,-4.7614,-4.8373,-4.9015,-4.9658,-5.0331,-5.0779,-5.0779,-5.102,-5.1214,-5.1214,-5.1214,-5.0975,-5.0047,-4.9553,-4.9045,-4.8072,-4.7578,-4.7309,-4.7309,-4.7309,-4.7309,-4.7309,-4.7309,-4.7309,-4.7309,-4.7309,-4.7309,-4.7309,-4.7309,-4.7309,-4.7309,-4.7309,-4.7309,-4.7309,-4.7309,-4.7309,-4.7309,-4.6007,-4.5289,-4.5289,-4.3962,-4.325,-4.3115,-4.3115,-4.3036,-4.2795,-4.2703,-4.2541,-3.6061,-3.6338,-3.6445,-3.6245,-3.583,-3.5368,0.0,0.0,-3.3266,-3.2968,-3.2471,-3.2146,-3.2386,-3.2539,-3.2976,-3.4024,-3.5325,-3.6477,-3.73,-3.9529,0.0,0.0,0.0,0.0,0.0,0.0,0.0,0.0,0.0,0.0,0.0,0.0,-4.588,-4.588,-4.588,-4.5982,-4.6156,-4.6171,-4.649,-4.7068,-4.6788,-4.7095,-4.7875,-4.7624,-4.7712,0.0,0.0,0.0,0.0,-4.8947,-4.8899,-4.859,-4.7691,-4.7111,-4.6734,-4.633,-4.604,-4.588,-4.588,-4.588,-4.588,-4.588,-4.606,-4.6416,-4.7481,-4.8462,-4.9298,-5.0001,-5.0659,-5.1214,-5.1214,-5.1214,-5.1214,-5.1214,-5.1214,-5.1035,-5.033,-4.9883,-4.9359,-4.8701,-4.8192,-4.7878,-4.7878,-4.7728,-4.7593,-4.7593,-4.7429,-4.7309,-4.7309,-4.7309,-4.7309,-4.7309,-4.7309,-4.7309,-4.7309,-4.7309,-4.7309,-4.7309,-4.7309,-4.7309,-4.7309,-4.6175,-4.543,-4.5221,-4.405,-4.3259,-4.2915,-4.2915,-4.2809,-4.2622,-4.2664,-4.2704,-3.5521,-3.5984,-3.6322,-3.5691,-3.5521,-3.5152,0.0,0.0,-3.3001,-3.2344,-3.1996,-3.1799,-3.1799,-3.221,-3.2721,-3.3395,-3.4637,-3.5953,-3.7225,-3.914,0.0,0.0,0.0,0.0,0.0,0.0,0.0,0.0,0.0,0.0,0.0,0.0,-4.588,-4.588,-4.588,-4.6185,-4.6763,-4.6778,-4.7143,-4.7782,-4.7851,-4.7909,-4.7889,-4.8012,0.0,0.0,0.0,0.0,0.0,-4.9473,-4.9291,-4.8677,-4.8663,-4.7894,-4.6778,-4.6778,-4.6417,-4.588,-4.588,-4.588,-4.588,-4.588,-4.606,-4.6386,-4.7316,-4.8222,-4.9102,-4.9955,-5.0659,-5.1214,-5.1214,-5.1214,-5.1214,-5.1214,-5.1214,-5.1035,-5.033,-5.0196,-4.9986,-4.9434,-4.9299,-4.9284,-4.9284,-4.8745,-4.8282,-4.8282,-4.7713,-4.7309,-4.7309,-4.7309,-4.7309,-4.7309,-4.7309,-4.7309,-4.7309,-4.7309,-4.7309,-4.7309,-4.7309,-4.7309,-4.7309,-4.6466,-4.5684,-4.5,-4.414,-4.3366,-4.2688,-4.2688,-4.2622,-4.2407,-4.2994,-4.3383,-3.4497,-3.4877,-3.509,-3.4874,-3.437,-3.3807,-3.3378,0.0,-3.2296,-3.1985,-3.187,-3.1756,-3.1626,-3.1719,-3.2183,-3.332,-3.4233,-3.5415,-3.7165,0.0,0.0,0.0,0.0,0.0,0.0,0.0,0.0,0.0,0.0,0.0,0.0,0.0,0.0,-4.588,-4.6301,-4.6635,-4.6778,-4.7259,-4.7796,-4.842,-4.8225,-4.8313,-4.8595,0.0,0.0,0.0,0.0,0.0,0.0,-4.9488,-4.9553,-4.9335,-4.8899,-4.8217,-4.7433,-4.6952,-4.6432,-4.588,-4.588,-4.588,-4.588,-4.588,-4.5925,-4.6089,-4.6518,-4.7376,-4.8476,-4.9836,-5.0659,-5.1214,-5.1214,-5.1214,-5.1214,-5.1214,-5.1214,-5.1154,-5.0945,-5.051,-5.0121,-4.9972,-4.9568,-4.9314,-4.9314,-4.9134,-4.9,-4.9,-4.8253,-4.7732,-4.7732,-4.7169,-4.6815,-4.6815,-4.6815,-4.6902,-4.7019,-4.7019,-4.6975,-4.6815,-4.6815,-4.6815,-4.6815,-4.6106,-4.5619,-4.5398,-4.4706,-4.4137,-4.3778,-4.3778,-4.3609,-4.3199,-4.3214,-4.3427,0.0,-3.4025,-3.4267,-3.4006,-3.3536,0.0,0.0,0.0,0.0,-3.1813,-3.1727,-3.167,-3.1511,-3.1705,-3.2228,-3.332,-3.4262,-3.5459,-3.7165,0.0,0.0,0.0,0.0,0.0,0.0,0.0,0.0,0.0,0.0,0.0,0.0,0.0,0.0,-4.6243,-4.6621,-4.701,-4.7488,-4.7941,-4.8464,-4.9088,-4.8798,-4.8804,-4.9058,0.0,0.0,0.0,0.0,0.0,0.0,-4.9537,-4.9717,-4.964,-4.9233,-4.8696,-4.8058,-4.7433,-4.6795,-4.6214,-4.5967,-4.588,-4.588,-4.588,-4.597,-4.606,-4.6165,-4.7022,-4.8164,-4.9477,-5.0346,-5.0808,-5.0808,-5.0988,-5.1214,-5.1214,-5.1214,-5.1214,-5.1214,-5.0853,-5.0554,-5.0461,-5.0133,-4.985,-4.9788,-4.9518,-4.94,-4.94,-4.8653,-4.8133,-4.8133,-4.7436,-4.6963,-4.6963,-4.6742,-4.6624,-4.6609,-4.6712,-4.6712,-4.6594,-4.6594,-4.6594,-4.6594,-4.6109,-4.5741,-4.5491,-4.4979,-4.4485,-4.4051,-4.3907,-4.3863,-4.3845,-4.3565,-4.3624,0.0,-3.3378,-3.3696,-3.3074,-3.2922,0.0,0.0,0.0,0.0,0.0,0.0,0.0,-3.1511,-3.2049,-3.2736,-3.338,-3.4622,-3.592,0.0,0.0,0.0,0.0,0.0,0.0,0.0,0.0,0.0,0.0,0.0,0.0,0.0,0.0,0.0,0.0,-4.6894,-4.7488,-4.8663,-4.8769,-4.9088,-4.9717,-4.9453,-4.932,-4.9305,0.0,0.0,0.0,0.0,0.0,0.0,-4.9585,-4.9717,-4.9717,-4.9717,-4.9291,-4.8653,-4.8014,-4.7375,-4.6691,-4.6113,-4.588,-4.588,-4.588,-4.6015,-4.6165,-4.6225,-4.6977,-4.8075,-4.8925,-4.9628,-5.009,-5.0135,-5.0598,-5.1107,-5.1167,-5.1167,-5.1167,-5.1167,-5.1167,-5.1073,-5.0822,-5.076,-5.0728,-5.0534,-4.997,-4.9557,-4.9557,-4.8997,-4.8538,-4.8538,-4.7933,-4.7506,-4.7477,-4.6933,-4.6506,-4.6225,-4.6403,-4.655,-4.655,-4.655,-4.655,-4.655,-4.6314,-4.5888,-4.5347,-4.5054,-4.45,-4.3718,-4.344,-4.3651,-4.4222,-4.3936,-4.4019,-3.1632,0.0,-3.2421,-3.227,-3.2154,-3.2038,0.0,0.0,0.0,0.0,0.0,0.0,0.0,0.0,-3.2736,-3.338,-3.4494,-3.5707,-3.7,0.0,0.0,0.0,0.0,0.0,0.0,0.0,0.0,0.0,0.0,0.0,0.0,0.0,0.0,0.0,-4.8029,-4.8373,-4.8677,-4.9204,-4.9524,-4.9717,-4.9634,-4.9488,0.0,0.0,0.0,0.0,0.0,0.0,0.0,-4.9585,-4.9717,-4.9717,-4.9717,-4.9291,-4.8653,-4.8014,-4.7375,-4.6691,-4.6113,-4.588,-4.588,-4.588,-4.5925,-4.6015,-4.6165,-4.6888,-4.7732,-4.7925,-4.8488,-4.9095,-4.9538,-4.9789,-5.0041,-5.0558,-5.0677,-5.0677,-5.0677,-5.0677,-5.0629,-5.0581,-5.0581,-5.0534,-5.0501,-5.0368,-5.0265,-5.0265,-4.9534,-4.8952,-4.8952,-4.8223,-4.75,-4.702,-4.6831,-4.6539,-4.6014,-4.618,-4.6225,-4.606,-4.606,-4.606,-4.606,-4.6015,-4.5808,-4.5468,-4.5168,-4.496,-4.4741,-4.4527,-4.4507,-4.4663,-4.4186,-4.3975,-3.119,-3.1438,-3.1697,-3.1769,-3.1712,-3.167,-3.167,0.0,0.0,0.0,0.0,0.0,0.0,0.0,0.0,-3.3626,-3.4999,0.0,0.0,0.0,0.0,0.0,0.0,0.0,0.0,0.0,0.0,0.0,0.0,0.0,0.0,0.0,0.0,0.0,0.0,-4.9161,-4.9161,-4.9494,-4.9634,-4.9537,-4.9634,-4.9537,0.0,0.0,0.0,0.0,0.0,0.0,-4.9488,-4.9634,-4.9717,-4.9717,-4.9717,-4.9465,-4.9045,-4.8116,-4.7564,-4.7143,-4.62,-4.588,-4.588,-4.588,-4.588,-4.5925,-4.6015,-4.6428,-4.6841,-4.7066,-4.7627,-4.8276,-4.8879,-4.9262,-4.966,-5.0338,-5.0501,-5.0501,-5.0501,-5.0501,-5.0453,-5.0342,-5.0342,-5.0294,-5.0135,-5.0135,-5.0135,-5.0135,-4.9716,-4.9387,-4.9387,-4.869,-4.8072,-4.7691,-4.7126,-4.6647,-4.6345,-4.604,-4.5866,-4.588,-4.588,-4.5835,-4.5745,-4.5745,-4.5595,-4.5307,-4.5092,-4.4954,-4.4954,-4.4597,-4.4411,-4.4411,-4.4021,-4.3784,-3.1043,-3.1161,-3.1263,-3.1409,-3.1498,-3.1573,-3.1573,0.0,0.0,0.0,0.0,0.0,0.0,0.0,0.0,0.0,0.0,0.0,0.0,0.0,0.0,0.0,0.0,0.0,0.0,0.0,0.0,0.0,0.0,0.0,0.0,0.0,0.0,0.0,0.0,0.0,-4.9717,-4.9683,-4.9537,-4.9305,-4.9488,-4.9488,-4.932,-4.9551,0.0,0.0,0.0,0.0,-4.9634,-4.9571,-4.9585,-4.9571,-4.962,-4.9634,-4.9475,-4.8246,-4.7782,-4.7608,-4.633,-4.588,-4.588,-4.588,-4.588,-4.588,-4.588,-4.588,-4.597,-4.6373,-4.6903,-4.7492,-4.8181,-4.883,-4.9434,-5.0213,-5.039,-5.039,-5.039,-5.039,-5.0294,-5.0086,-5.0038,-4.999,-4.9732,-4.9717,-4.9717,-4.9717,-4.9717,-4.9717,-4.9717,-4.9204,-4.8827,-4.8692,-4.7666,-4.6894,-4.6746,-4.597,-4.5595,-4.579,-4.579,-4.57,-4.5458,-4.5413,-4.5276,-4.5032,-4.4876,-4.4705,-4.469,-4.4223,-4.3988,-4.3926,-4.3662,-4.3471,-3.0821,-3.0851,-3.091,-3.1102,-3.1545,-3.1928,-3.1928,0.0,0.0,0.0,0.0,0.0,0.0,0.0,0.0,0.0,0.0,0.0,0.0,0.0,0.0,0.0,0.0,0.0,0.0,0.0,0.0,0.0,0.0,0.0,0.0,0.0,0.0,0.0,0.0,0.0,0.0,-4.9488,-4.9355,-4.9305,-4.9108,-4.9108,-4.9305,-4.9355,-4.9502,0.0,0.0,0.0,-4.9355,-4.9108,-4.9044,-4.9044,-4.9256,-4.9355,-4.9245,-4.8213,-4.7782,-4.7608,-4.633,-4.588,-4.588,-4.588,-4.588,-4.588,-4.588,-4.588,-4.5925,-4.597,-4.6088,-4.6437,-4.7617,-4.7995,-4.8359,-4.9553,-4.9829,-4.9829,-4.9829,-4.9829,-4.9829,-4.9781,-4.9781,-4.9732,-4.9717,-4.9717,-4.9717,-4.9717,-4.9717,-4.9717,-4.9717,-4.9596,-4.932,-4.8783,-4.8072,-4.734,-4.6633,-4.5878,-4.5413,-4.5216,-4.5216,-4.5216,-4.517,-4.5014,-4.489,-4.483,-4.4597,-4.4364,-4.4129,-4.4035,-4.3879,-4.3662,-4.3437,-4.3307,-3.0507,-3.0859,-3.1212,-3.1273,-3.1658,-3.2104,-3.2457,0.0,0.0,0.0,0.0,0.0,0.0,0.0,0.0,0.0,0.0,0.0,0.0,0.0,0.0,0.0,0.0,0.0,0.0,0.0,0.0,0.0,0.0,0.0,0.0,0.0,0.0,0.0,0.0,0.0,0.0,-4.9231,-4.9207,-4.9058,-4.8959,-4.8959,-4.9108,-4.9207,-4.9355,0.0,0.0,-4.9207,-4.9058,-4.8945,-4.8895,-4.8895,-4.9058,-4.9157,-4.9161,-4.8151,-4.7346,-4.6679,-4.6084,-4.588,-4.588,-4.588,-4.588,-4.588,-4.588,-4.588,-4.588,-4.588,-4.588,-4.6171,-4.7448,-4.7782,-4.8101,-4.9427,-4.9717,-4.9717,-4.9717,-4.9717,-4.9717,-4.9717,-4.9717,-4.9717,-4.9717,-4.9717,-4.9717,-4.9717,-4.9717,-4.9717,-4.9717,-4.9717,-4.9422,-4.8798,-4.8003,-4.7286,-4.6555,-4.5662,-4.5138,-4.5124,-4.5,-4.4968,-4.4968,-4.469,-4.4597,-4.4597,-4.4317,-4.4129,-4.3988,-4.3751,-4.3546,-4.3437,-4.3211,-4.308,-3.0266,-3.0848,-3.1507,-3.1652,-3.203,-3.2496,-3.2996,0.0,0.0,0.0,0.0,0.0,0.0,0.0,0.0,0.0,0.0,0.0,0.0,0.0,0.0,0.0,0.0,0.0,0.0,0.0,0.0,0.0,0.0,0.0,0.0,0.0,0.0,0.0,0.0,0.0,0.0,-4.8711,-4.8919,-4.9009,-4.8945,-4.8945,-4.9009,-4.9157,-4.9256,-4.9305,-4.9157,-4.9009,-4.8795,-4.876,-4.871,-4.8695,-4.8638,-4.8608,-4.8542,-4.7833,-4.6853,-4.588,-4.588,-4.588,-4.588,-4.588,-4.588,-4.588,-4.588,-4.588,-4.588,-4.588,-4.5996,-4.6359,-4.7491,-4.7883,-4.829,-4.9407,-4.9717,-4.9717,-4.9717,-4.9717,-4.9717,-4.9717,-4.9717,-4.9717,-4.9717,-4.9717,-4.9717,-4.9717,-4.9717,-4.9611,-4.948,-4.9451,-4.9204,-4.858,-4.7691,-4.6882,-4.6171,-4.5253,-4.4783,-4.494,-4.4783,-4.4705,-4.4705,-4.4504,-4.4364,-4.4317,-4.4082,-4.394,-4.3846,-4.3465,-4.3273,-4.3225,-4.2984,-4.2887,-3.0111,-3.0692,-3.1449,-3.2104,-3.2825,0.0,-3.3449,-3.3881,0.0,-3.4302,0.0,0.0,0.0,0.0,0.0,0.0,0.0,0.0,0.0,0.0,0.0,0.0,0.0,0.0,0.0,0.0,0.0,0.0,0.0,0.0,0.0,0.0,0.0,0.0,0.0,0.0,0.0,0.0,-4.8105,-4.9256,-4.9009,-4.9058,-4.9256,-4.9058,-4.9058,-4.9256,-4.8745,-4.8545,-4.8495,-4.8272,-4.817,-4.8114,-4.7822,-4.7275,-4.6731,-4.6848,-4.6475,-4.588,-4.588,-4.588,-4.588,-4.588,-4.588,-4.588,-4.588,-4.588,-4.588,-4.588,-4.6301,-4.6925,-4.7608,-4.8217,-4.8827,-4.9509,-4.9717,-4.9717,-4.9717,-4.9717,-4.9717,-4.9717,-4.9717,-4.9717,-4.9717,-4.9717,-4.9717,-4.9717,-4.9717,-4.9465,-4.887,-4.8798,-4.8551,-4.7912,-4.7055,-4.611,-4.5018,-4.4626,-4.4411,-4.4457,-4.4457,-4.4411,-4.4411,-4.4411,-4.427,-4.4035,-4.4035,-4.3798,-4.3369,-4.3321,-4.3177,-4.2935,-4.2887,-4.2887,-3.0427,-3.1122,-3.1911,-3.2673,0.0,0.0,0.0,0.0,0.0,-3.5503,-3.5778,0.0,0.0,0.0,0.0,0.0,0.0,0.0,0.0,0.0,0.0,0.0,0.0,0.0,0.0,0.0,0.0,0.0,0.0,0.0,0.0,0.0,0.0,0.0,0.0,0.0,0.0,0.0,-4.7887,-4.8364,-4.7932,-4.7849,-4.8105,-4.7994,-4.7932,-4.7855,-4.7661,-4.7382,-4.7116,-4.7031,-4.6982,-4.7017,-4.7176,-4.6838,-4.6297,-4.6654,-4.6432,-4.588,-4.588,-4.588,-4.588,-4.588,-4.588,-4.588,-4.588,-4.588,-4.588,-4.588,-4.633,-4.6969,-4.7622,-4.8246,-4.8885,-4.9524,-4.9717,-4.9717,-4.9717,-4.9717,-4.9717,-4.9717,-4.9717,-4.9553,-4.9146,-4.9088,-4.8957,-4.8551,-4.8493,-4.8406,-4.8174,-4.813,-4.7898,-4.7259,-4.6238,-4.5363,-4.4612,-4.4457,-4.4411,-4.4411,-4.4411,-4.4411,-4.4411,-4.4411,-4.427,-4.4035,-4.3818,-4.358,-4.3321,-4.3128,-4.2793,-4.2344,-4.2344,-4.2141,-3.0552,-3.1304,-3.2107,0.0,0.0,0.0,0.0,0.0,0.0,0.0,0.0,0.0,0.0,0.0,0.0,0.0,0.0,0.0,0.0,0.0,0.0,0.0,0.0,0.0,0.0,0.0,0.0,0.0,0.0,0.0,0.0,0.0,0.0,0.0,0.0,0.0,0.0,0.0,-4.7187,-4.7187,-4.6814,-4.6983,-4.7514,-4.7433,-4.7262,-4.6995,-4.6899,-4.6639,-4.6293,-4.6293,-4.623,-4.6129,-4.6581,-4.6385,-4.5981,-4.635,-4.6258,-4.588,-4.588,-4.588,-4.588,-4.588,-4.588,-4.588,-4.588,-4.588,-4.588,-4.588,-4.633,-4.6925,-4.7375,-4.8101,-4.8885,-4.9524,-4.9717,-4.9717,-4.9717,-4.9717,-4.9717,-4.9717,-4.9509,-4.9233,-4.8798,-4.8551,-4.829,-4.784,-4.7782,-4.7709,-4.7506,-4.7477,-4.7184,-4.6362,-4.558,-4.4894,-4.4457,-4.4411,-4.4411,-4.4411,-4.4411,-4.4411,-4.4411,-4.4411,-4.427,-4.4035,-4.3757,-4.3436,-4.3033,-4.276,-4.2304,-4.1734,-4.1734,-4.1503,-3.0329,-3.1077,0.0,0.0,0.0,0.0,0.0,0.0,0.0,0.0,0.0,0.0,0.0,0.0,0.0,0.0,0.0,0.0,0.0,0.0,0.0,0.0,0.0,0.0,0.0,0.0,0.0,0.0,0.0,0.0,0.0,0.0,0.0,0.0,0.0,0.0,0.0,0.0,-4.588,-4.588,-4.588,-4.6548,-4.7767,-4.7499,-4.7248,-4.6967,-4.6707,-4.6494,-4.6279,-4.6279,-4.6045,-4.5704,-4.6001,-4.5849,-4.5549,-4.579,-4.588,-4.588,-4.588,-4.588,-4.588,-4.588,-4.588,-4.588,-4.588,-4.588,-4.588,-4.588,-4.633,-4.6778,-4.6778,-4.772,-4.887,-4.9509,-4.9717,-4.9717,-4.9717,-4.9717,-4.9717,-4.9717,-4.9146,-4.8677,-4.8663,-4.8188,-4.7767,-4.7753,-4.7753,-4.7535,-4.6865,-4.6778,-4.6348,-4.5241,-4.5124,-4.4894,-4.4457,-4.4411,-4.4411,-4.4411,-4.4397,-4.4397,-4.4411,-4.4397,-4.427,-4.3974,-4.3743,-4.3216,-4.2369,-4.2134,-4.1693,-4.111,-4.111,-4.111,-3.0909,0.0,0.0,0.0,0.0,0.0,0.0,0.0,0.0,0.0,0.0,0.0,0.0,0.0,0.0,0.0,0.0,0.0,0.0,0.0,0.0,0.0,0.0,0.0,0.0,0.0,0.0,0.0,0.0,0.0,0.0,0.0,0.0,0.0,0.0,0.0,0.0,0.0,0.0,-4.588,-4.588,-4.6084,-4.6446,-4.637,-4.6218,-4.5913,-4.5881,-4.5695,-4.5462,-4.5462,-4.5395,-4.5317,-4.5562,-4.5631,-4.5549,-4.579,-4.588,-4.588,-4.588,-4.588,-4.588,-4.588,-4.588,-4.588,-4.588,-4.588,-4.588,-4.588,-4.6026,-4.6258,-4.6662,-4.7068,-4.7619,-4.8754,-4.9016,-4.9132,-4.9582,-4.9717,-4.9538,-4.9088,-4.8856,-4.8402,-4.7503,-4.7245,-4.6954,-4.6519,-4.6446,-4.6374,-4.6185,-4.6171,-4.5902,-4.5184,-4.5124,-4.4894,-4.4457,-4.4411,-4.4411,-4.4411,-4.4003,-4.3961,-4.4397,-4.3989,-4.3626,-4.3394,-4.287,-4.232,-4.1712,-4.162,-4.1181,-4.0472,-4.0472,-4.0241,0.0,0.0,0.0,0.0,0.0,0.0,0.0,0.0,0.0,0.0,0.0,0.0,0.0,0.0,0.0,0.0,0.0,0.0,0.0,0.0,0.0,0.0,0.0,0.0,0.0,0.0,0.0,0.0,0.0,0.0,0.0,0.0,0.0,0.0,0.0,0.0,0.0,0.0,0.0,0.0,-4.5745,-4.5745,-4.5745,-4.5835,-4.5745,-4.5504,-4.5413,-4.5261,-4.5124,-4.5124,-4.517,-4.5261,-4.5458,-4.5549,-4.57,-4.5835,-4.588,-4.588,-4.588,-4.588,-4.588,-4.588,-4.588,-4.588,-4.588,-4.588,-4.588,-4.588,-4.588,-4.5967,-4.6359,-4.6446,-4.678,-4.8043,-4.8348,-4.8449,-4.8841,-4.8976,-4.8812,-4.842,-4.8145,-4.7677,-4.6923,-4.6621,-4.633,-4.5938,-4.588,-4.588,-4.588,-4.588,-4.57,-4.517,-4.5124,-4.4894,-4.4457,-4.4411,-4.4312,-4.4059,-4.3694,-4.3554,-4.368,-4.3329,-4.3087,-4.2904,-4.245,-4.1904,-4.1369,-4.1187,-4.0704,-3.9996,-3.9893,-3.9644,0.0,0.0,0.0,0.0,0.0,0.0,0.0,0.0,0.0,0.0,0.0,0.0,0.0,0.0,0.0,0.0,0.0,0.0,0.0,0.0,0.0,0.0,0.0,0.0,0.0,0.0,0.0,0.0,0.0,0.0,0.0,0.0,0.0,0.0,0.0,0.0,0.0,0.0,0.0,0.0,0.0,-4.5286,-4.5286,-4.5687,-4.5745,-4.5504,-4.5216,-4.517,-4.517,-4.517,-4.5307,-4.5549,-4.5549,-4.57,-4.588,-4.588,-4.588,-4.588,-4.588,-4.588,-4.588,-4.588,-4.588,-4.588,-4.588,-4.588,-4.588,-4.588,-4.5835,-4.5835,-4.5835,-4.5835,-4.6125,-4.7285,-4.7651,-4.7709,-4.7767,-4.7782,-4.7767,-4.7709,-4.723,-4.6763,-4.6705,-4.6258,-4.588,-4.588,-4.588,-4.588,-4.588,-4.588,-4.57,-4.517,-4.5124,-4.4894,-4.4457,-4.4355,-4.4088,-4.3526,-4.3385,-4.3076,-4.2514,-4.25,-4.25,-4.25,-4.2206,-4.1778,-4.1221,-4.0776,-4.0278,-3.9744,-3.9496,-3.9349,0.0,0.0,0.0,0.0,0.0,0.0,0.0,0.0,0.0,0.0,0.0,0.0,0.0,0.0,0.0,0.0,0.0,0.0,0.0,0.0,0.0,0.0,0.0,0.0,0.0,0.0,0.0,0.0,0.0,0.0,0.0,0.0,0.0,0.0,0.0,0.0,0.0,0.0,0.0,0.0,-4.3756,-4.3756,-4.3829,-4.5043,-4.5549,-4.5504,-4.5458,-4.5549,-4.5745,-4.5745,-4.5745,-4.579,-4.579,-4.5835,-4.588,-4.588,-4.588,-4.588,-4.588,-4.588,-4.588,-4.588,-4.588,-4.588,-4.588,-4.588,-4.5835,-4.564,-4.5595,-4.5549,-4.5307,-4.5261,-4.5333,-4.5605,-4.6374,-4.7172,-4.768,-4.7782,-4.7637,-4.7129,-4.6879,-4.6633,-4.6185,-4.5982,-4.588,-4.588,-4.588,-4.588,-4.588,-4.588,-4.57,-4.517,-4.5124,-4.4894,-4.4457,-4.3975,-4.3638,-4.3512,-4.257,-4.1966,-4.1826,-4.1826,-4.1826,-4.1826,-4.1304,-4.0879,-4.0594,-4.0507,-4.0249,-3.9922,-3.9878,-3.9865,0.0,0.0,0.0,0.0,0.0,0.0,0.0,0.0,0.0,0.0,0.0,0.0,0.0,0.0,0.0,0.0,0.0,0.0,0.0,0.0,0.0,0.0,0.0,0.0,0.0,0.0,0.0,0.0,0.0,0.0,0.0,0.0,0.0,0.0,0.0,0.0,-4.2958,-4.2958,-4.3002,-4.312,-4.312,-4.312,-4.3149,-4.4028,-4.4463,-4.4463,-4.4463,-4.4597,-4.4819,-4.4819,-4.4863,-4.501,-4.53,-4.5401,-4.5445,-4.5764,-4.588,-4.588,-4.588,-4.588,-4.588,-4.588,-4.588,-4.588,-4.588,-4.579,-4.57,-4.5549,-4.5413,-4.5261,-4.5124,-4.5124,-4.5124,-4.5124,-4.5565,-4.6126,-4.661,-4.6683,-4.6628,-4.6401,-4.6374,-4.6272,-4.5938,-4.588,-4.588,-4.588,-4.588,-4.588,-4.588,-4.588,-4.57,-4.517,-4.5124,-4.4894,-4.4457,-4.3849,-4.3371,-4.3076,-4.2149,-4.1474,-4.1193,-4.1179,-4.1179,-4.1179,-4.0856,-4.0659,-4.0544,-4.0442,-4.0342,-4.0198,-4.0053,-3.9996,0.0,0.0,0.0,0.0,0.0,0.0,0.0,0.0,0.0,0.0,0.0,0.0,0.0,0.0,0.0,0.0,0.0,0.0,0.0,0.0,0.0,0.0,0.0,0.0,0.0,0.0,0.0,0.0,0.0,0.0,0.0,0.0,0.0,0.0,0.0,0.0,-4.2261,-4.2261,-4.238,-4.2529,-4.2529,-4.2529,-4.2529,-4.2763,-4.3009,-4.3209,-4.3209,-4.3341,-4.3545,-4.3574,-4.3719,-4.3994,-4.4531,-4.4734,-4.4792,-4.5358,-4.5634,-4.5706,-4.5706,-4.5779,-4.588,-4.588,-4.588,-4.588,-4.588,-4.57,-4.5504,-4.5458,-4.5276,-4.5032,-4.4986,-4.4986,-4.4986,-4.4986,-4.4986,-4.5078,-4.5367,-4.5458,-4.5549,-4.579,-4.588,-4.588,-4.588,-4.588,-4.588,-4.588,-4.588,-4.588,-4.588,-4.588,-4.57,-4.517,-4.5124,-4.4894,-4.4457,-4.375,-4.3118,-4.2612,-4.1868,-4.1221,-4.0716,-4.0702,-4.0702,-4.0702,-4.0702,-4.0702,-4.0702,-4.0544,-4.0428,-4.0428,-4.0227,-4.0126,0.0,0.0,0.0,0.0,0.0,0.0,0.0,0.0,0.0,0.0,0.0,0.0,0.0,0.0,0.0,0.0,0.0,0.0,0.0,0.0,0.0,0.0,0.0,0.0,0.0,0.0,0.0,0.0,0.0,0.0,0.0,0.0,0.0,0.0,0.0,0.0,-4.094,-4.094,-4.0998,-4.0984,-4.0984,-4.0984,-4.0984,-4.1027,-4.1749,-4.2943,-4.2943,-4.312,-4.3341,-4.3545,-4.3618,-4.3676,-4.3979,-4.411,-4.4124,-4.4211,-4.4574,-4.5024,-4.5024,-4.5401,-4.588,-4.588,-4.588,-4.588,-4.588,-4.57,-4.5458,-4.5216,-4.5,-4.4783,-4.4551,-4.449,-4.449,-4.449,-4.449,-4.4583,-4.5078,-4.5353,-4.5504,-4.5549,-4.5745,-4.588,-4.588,-4.588,-4.588,-4.588,-4.588,-4.588,-4.588,-4.588,-4.57,-4.517,-4.5124,-4.4894,-4.4457,-4.3357,-4.2669,-4.2584,-4.1474,-4.0786,-4.0702,-4.0702,-4.0702,-4.0702,-4.0702,-4.0702,-4.0702,-4.0659,-4.0659,-4.0659,-4.0616,-4.0616,0.0,0.0,0.0,0.0,0.0,0.0,0.0,0.0,0.0,0.0,0.0,0.0,0.0,0.0,0.0,0.0,0.0,0.0,0.0,0.0,0.0,0.0,0.0,0.0,0.0,0.0,0.0,0.0,0.0,0.0,0.0,-4.0702,-4.0702,-4.0702,-4.0702,0.0,-4.0702,-4.0702,-4.0702,-4.0702,-4.0702,-4.0702,-4.0702,-4.0702,-4.104,-4.1691,-4.1691,-4.1807,-4.2009,-4.2124,-4.2224,-4.241,-4.2883,-4.3128,-4.3314,-4.3661,-4.4052,-4.4385,-4.4385,-4.4574,-4.4879,-4.5213,-4.5329,-4.5401,-4.5629,-4.5504,-4.523,-4.5,-4.4783,-4.4551,-4.4411,-4.4411,-4.4411,-4.4411,-4.4411,-4.4457,-4.4676,-4.4922,-4.5198,-4.5458,-4.5745,-4.588,-4.588,-4.588,-4.588,-4.588,-4.588,-4.588,-4.588,-4.588,-4.5745,-4.5367,-4.5307,-4.517,-4.4815,-4.3681,-4.3002,-4.3002,-4.178,-4.1086,-4.1086,-4.0944,-4.0887,-4.0887,-4.0773,-4.0702,-4.0702,-4.0702,-4.0702,-4.0702,-4.0702,-4.0702,0.0,0.0,0.0,0.0,0.0,0.0,0.0,0.0,0.0,0.0,0.0,0.0,0.0,0.0,0.0,0.0,0.0,0.0,0.0,0.0,0.0,0.0,0.0,0.0,0.0,0.0,0.0,0.0,0.0,0.0,0.0,-4.0702,-4.0702,-4.0702,-4.0702,-4.0702,-4.0702,-4.0702,-4.0702,-4.0702,-4.0702,-4.0702,-4.0702,-4.0702,-4.0702,-4.0702,-4.0702,-4.0773,-4.093,-4.1001,-4.11,-4.134,-4.1881,-4.2195,-4.2409,-4.2855,-4.3257,-4.3603,-4.3661,-4.3762,-4.4008,-4.4501,-4.4661,-4.4704,-4.496,-4.4834,-4.4607,-4.4393,-4.4132,-4.3947,-4.3947,-4.3947,-4.3947,-4.3947,-4.4059,-4.4214,-4.4476,-4.4644,-4.4922,-4.5413,-4.564,-4.5835,-4.588,-4.588,-4.588,-4.588,-4.588,-4.588,-4.588,-4.588,-4.579,-4.5549,-4.5504,-4.5413,-4.5124,-4.4124,-4.3468,-4.3311,-4.2224,-4.1553,-4.141,-4.1198,-4.11,-4.11,-4.0944,-4.083,-4.0702,-4.0702,-4.0702,-4.0702,-4.0702,-4.0702,0.0,0.0,0.0,0.0,0.0,0.0,0.0,0.0,0.0,0.0,0.0,0.0,0.0,0.0,0.0,0.0,0.0,0.0,0.0,0.0,0.0,0.0,0.0,0.0,0.0,0.0,0.0,0.0,0.0,0.0,-4.0702,-4.0702,-4.0702,-4.0702,-4.0702,-4.0702,-4.0702,-4.0702,-4.0702,-4.0702,-4.0702,-4.0702,-4.0702,-4.0702,-4.0702,-4.0702,-4.0702,-4.0702,-4.073,-4.0916,-4.1001,-4.1043,-4.134,-4.1453,-4.1453,-4.1481,-4.1895,-4.2424,-4.2682,-4.3142,-4.3676,-4.3965,-4.4037,-4.3994,-4.3762,-4.3558,-4.3353,-4.3087,-4.2834,-4.2669,-4.2669,-4.2669,-4.2669,-4.2669,-4.3118,-4.3786,-4.4624,-4.4797,-4.4922,-4.5413,-4.5504,-4.5595,-4.5835,-4.588,-4.588,-4.588,-4.588,-4.588,-4.588,-4.588,-4.579,-4.5549,-4.5504,-4.5413,-4.5124,-4.4524,-4.3895,-4.3339,-4.2653,-4.1981,-4.1424,-4.1396,-4.1396,-4.1396,-4.1354,-4.1128,-4.0702,-4.0702,-4.0702,-4.0702,-4.0702,-4.0702,-2.7894,0.0,0.0,0.0,0.0,0.0,0.0,0.0,0.0,0.0,0.0,0.0,0.0,0.0,0.0,0.0,0.0,0.0,0.0,0.0,0.0,0.0,0.0,0.0,0.0,0.0,0.0,0.0,0.0,0.0,-4.0702,-4.0702,-4.0702,-4.0702,-4.0702,-4.0702,-4.0702,-4.0702,-4.0702,-4.0702,-4.0702,-4.0702,-4.0702,-4.0702,-4.0702,-4.0702,-4.0702,-4.0702,-4.0702,-4.0773,-4.0816,-4.0816,-4.0915,-4.1029,-4.1142,-4.1142,-4.1383,-4.1767,-4.1809,-4.1995,-4.2281,-4.2768,-4.2898,-4.2926,-4.311,-4.3106,-4.2988,-4.278,-4.266,-4.2584,-4.2584,-4.2584,-4.2584,-4.2584,-4.2753,-4.3121,-4.3832,-4.4422,-4.4876,-4.5184,-4.5367,-4.5595,-4.5835,-4.588,-4.588,-4.588,-4.588,-4.588,-4.588,-4.588,-4.5835,-4.579,-4.5745,-4.5745,-4.5595,-4.5003,-4.4571,-4.4355,-4.3748,-4.33,-4.3098,-4.2883,-4.2653,-4.2223,-4.2067,-4.1682,-4.1142,-4.1142,-4.1142,-4.1142,-4.1142,-4.1142,-2.7542,0.0,0.0,0.0,0.0,0.0,0.0,0.0,0.0,0.0,0.0,0.0,0.0,0.0,0.0,0.0,0.0,0.0,0.0,0.0,0.0,0.0,0.0,0.0,0.0,0.0,0.0,0.0,0.0,0.0,-4.0702,-4.0702,-4.0702,-4.0702,-4.0702,-4.0702,-4.0702,-4.0491,-4.0393,-4.0393,-4.0182,-4.0083,-4.0083,-4.0308,-4.0393,-4.0407,-4.0603,-4.0702,-4.0702,-4.0702,-4.0702,-4.0702,-4.0702,-4.0773,-4.0887,-4.0887,-4.1029,-4.117,-4.1255,-4.1255,-4.1354,-4.1853,-4.1981,-4.201,-4.2221,-4.2261,-4.2218,-4.2026,-4.1952,-4.1952,-4.1952,-4.1952,-4.1994,-4.2205,-4.2261,-4.243,-4.3048,-4.3804,-4.4496,-4.4989,-4.5216,-4.5504,-4.5835,-4.588,-4.588,-4.588,-4.588,-4.588,-4.588,-4.588,-4.588,-4.588,-4.588,-4.588,-4.588,-4.5474,-4.5126,-4.4893,-4.4516,-4.4197,-4.4008,-4.3835,-4.3546,-4.3141,-4.2984,-4.2682,-4.2294,-4.1694,-4.1396,-4.1396,-4.1396,-4.1438,0.0,0.0,0.0,0.0,0.0,0.0,0.0,0.0,0.0,0.0,0.0,0.0,0.0,0.0,0.0,0.0,0.0,0.0,0.0,0.0,0.0,0.0,0.0,0.0,0.0,0.0,0.0,0.0,0.0,0.0,-4.0702,-4.0702,-4.0688,-4.0674,-4.0674,-4.0659,-4.0645,-4.0055,-3.9746,-3.9746,-3.9197,-3.8902,-3.893,-3.9535,-3.9746,-3.9788,-4.0378,-4.0645,-4.0645,-4.0688,-4.0702,-4.0702,-4.0702,-4.0702,-4.0702,-4.0702,-4.0702,-4.073,-4.0916,-4.1001,-4.1043,-4.1297,-4.1396,-4.1354,-4.1057,-4.1001,-4.0958,-4.073,-4.0702,-4.0702,-4.0702,-4.0702,-4.0856,-4.1446,-4.1587,-4.1769,-4.2416,-4.302,-4.3762,-4.4875,-4.511,-4.5261,-4.579,-4.588,-4.588,-4.588,-4.588,-4.588,-4.588,-4.588,-4.588,-4.588,-4.588,-4.588,-4.588,-4.588,-4.5605,-4.4951,-4.4922,-4.4661,-4.4066,-4.4052,-4.4037,-4.4023,-4.4023,-4.4008,-4.3993,-4.2308,-4.1495,-4.1495,-4.1481,-4.1536,-2.7855,0.0,0.0,0.0,0.0,0.0,0.0,0.0,0.0,0.0,0.0,0.0,0.0,0.0,0.0,0.0,0.0,0.0,0.0,0.0,0.0,0.0,0.0,0.0,0.0,0.0,0.0,0.0,0.0,-4.0702,-4.0702,-4.0702,-4.0491,-4.0041,-4.0041,-3.9816,-3.9422,-3.924,-3.9169,-3.9169,-3.8986,-3.8902,-3.8916,-3.9085,-3.9169,-3.9169,-3.9352,-3.9422,-3.9493,-4.0336,-4.0702,-4.0702,-4.0702,-4.0702,-4.0702,-4.0702,-4.0702,-4.0702,-4.0773,-4.0773,-4.0816,-4.0873,-4.0873,-4.0873,-4.0816,-4.0773,-4.0773,-4.0702,-4.0702,-4.0702,-4.0702,-4.0702,-4.0744,-4.0912,-4.0955,-4.1123,-4.1741,-4.2155,-4.2814,-4.4193,-4.481,-4.5261,-4.579,-4.588,-4.588,-4.588,-4.588,-4.588,-4.588,-4.588,-4.588,-4.588,-4.588,-4.588,-4.588,-4.588,-4.5808,-4.5619,-4.5605,-4.5532,-4.5372,-4.5358,-4.514,-4.4647,-4.4632,-4.4429,-4.3993,-4.3502,-4.3285,-4.3271,-4.2794,-4.2605,-2.8384,-2.8602,-2.893,-2.9465,0.0,0.0,0.0,0.0,0.0,0.0,0.0,0.0,0.0,0.0,0.0,0.0,0.0,0.0,0.0,0.0,0.0,0.0,0.0,0.0,0.0,0.0,0.0,0.0,-3.9929,-3.9929,-3.9929,-3.9929,-3.9774,-3.9465,-3.9436,-3.9282,-3.8902,-3.8635,-3.8454,-3.8454,-3.8241,-3.8128,-3.8128,-3.8382,-3.8454,-3.8482,-3.879,-3.8902,-3.8958,-3.9634,-4.0083,-4.0336,-4.0603,-4.0702,-4.0702,-4.0702,-4.0702,-4.0702,-4.0702,-4.0702,-4.0702,-4.0702,-4.0702,-4.0702,-4.0702,-4.0702,-4.0702,-4.0702,-4.0702,-4.0702,-4.0702,-4.0702,-4.0702,-4.0702,-4.0702,-4.08,-4.1151,-4.1606,-4.2349,-4.361,-4.44,-4.501,-4.5415,-4.5692,-4.588,-4.588,-4.588,-4.588,-4.588,-4.588,-4.588,-4.588,-4.588,-4.588,-4.588,-4.588,-4.588,-4.588,-4.588,-4.588,-4.588,-4.588,-4.5706,-4.53,-4.53,-4.5126,-4.4777,-4.4255,-4.3993,-4.3979,-4.3587,-4.3413,-2.901,-2.9004,-2.8981,-2.9501,-3.0017,0.0,-3.1045,-3.167,0.0,0.0,0.0,0.0,0.0,0.0,0.0,0.0,0.0,0.0,0.0,0.0,0.0,0.0,0.0,0.0,0.0,0.0,0.0,-3.8902,-3.8902,-3.8902,-3.8902,-3.8902,-3.8874,-3.8804,-3.8804,-3.8775,-3.8705,-3.8088,-3.7793,-3.7793,-3.7245,-3.6978,-3.7007,-3.7555,-3.7793,-3.7835,-3.8452,-3.8705,-3.8705,-3.8775,-3.9169,-3.9732,-4.028,-4.0491,-4.0491,-4.0491,-4.0491,-4.0491,-4.0491,-4.0533,-4.0603,-4.0603,-4.0645,-4.0702,-4.0702,-4.0702,-4.0702,-4.0702,-4.0702,-4.0702,-4.0702,-4.0702,-4.0702,-4.0702,-4.0702,-4.0702,-4.073,-4.1396,-4.2165,-4.2982,-4.3845,-4.457,-4.4835,-4.5372,-4.5793,-4.588,-4.588,-4.588,-4.588,-4.588,-4.588,-4.588,-4.588,-4.588,-4.588,-4.588,-4.588,-4.588,-4.588,-4.588,-4.588,-4.588,-4.588,-4.588,-4.588,-4.588,-4.588,-4.4748,-4.4197,-4.4197,-4.4124,-4.4138,-2.9355,-2.932,-2.9285,-2.9251,-2.9637,0.0,-3.0243,-3.1096,0.0,0.0,0.0,0.0,0.0,0.0,0.0,0.0,0.0,0.0,0.0,0.0,0.0,0.0,0.0,0.0,0.0,0.0,0.0,-3.8902,-3.8902,-3.8902,-3.8902,-3.8902,-3.8663,-3.8102,-3.8088,-3.785,-3.7358,-3.7217,-3.7161,-3.7161,-3.7049,-3.6978,-3.6978,-3.7105,-3.7161,-3.7161,-3.7302,-3.7358,-3.7386,-3.7892,-3.8468,-3.9099,-3.9226,-3.9268,-3.9268,-3.9268,-3.9268,-3.9268,-3.9268,-3.9591,-3.9971,-3.9971,-4.0294,-4.0702,-4.0702,-4.0702,-4.0702,-4.0702,-4.0702,-4.0702,-4.0702,-4.0702,-4.0702,-4.0702,-4.0702,-4.073,-4.093,-4.1256,-4.161,-4.1964,-4.297,-4.4051,-4.4762,-4.4995,-4.5271,-4.5808,-4.588,-4.588,-4.588,-4.588,-4.588,-4.588,-4.588,-4.588,-4.588,-4.588,-4.588,-4.588,-4.588,-4.588,-4.588,-4.588,-4.588,-4.588,-4.588,-4.588,-4.588,-4.5634,-4.5518,-4.5503,-4.4966,-4.4851,-3.0479,-3.0145,-2.983,-2.9702,-2.9841,0.0,0.0,-3.0701,0.0,0.0,0.0,0.0,0.0,0.0,0.0,0.0,0.0,0.0,0.0,0.0,0.0,0.0,0.0,0.0,0.0,0.0,-3.796,-3.796,-3.796,-3.796,-3.796,-3.796,-3.7819,-3.7456,-3.7442,-3.7302,-3.6978,-3.6978,-3.6978,-3.6978,-3.6978,-3.6978,-3.6978,-3.6978,-3.6978,-3.6978,-3.6978,-3.6978,-3.7007,-3.7316,-3.7639,-3.803,-3.8663,-3.8902,-3.8902,-3.8902,-3.8902,-3.8902,-3.8902,-3.9113,-3.9366,-3.9366,-3.9577,-3.9788,-3.9788,-3.9788,-3.9788,-3.9788,-3.9788,-3.9788,-3.9788,-3.9788,-3.9788,-3.9788,-4.0111,-4.0449,-4.0519,-4.1069,-4.1577,-4.1702,-4.2319,-4.3097,-4.3834,-4.4211,-4.4661,-4.53,-4.5387,-4.5503,-4.5837,-4.588,-4.588,-4.588,-4.588,-4.588,-4.588,-4.588,-4.588,-4.588,-4.588,-4.588,-4.588,-4.588,-4.588,-4.588,-4.588,-4.588,-4.588,-4.6015,-4.6015,-4.588,-4.5666,-4.5639,-3.1485,-3.104,-3.0536,-3.0536,-3.0322,-3.0095,0.0,0.0,0.0,0.0,0.0,0.0,0.0,0.0,0.0,0.0,0.0,0.0,0.0,0.0,0.0,0.0,0.0,0.0,0.0,0.0,0.0,-3.6666,-3.6778,-3.681,-3.681,-3.6922,-3.6978,-3.6978,-3.6978,-3.6978,-3.6978,-3.6978,-3.6978,-3.6978,-3.6978,-3.6978,-3.6978,-3.6978,-3.6978,-3.6978,-3.6978,-3.6978,-3.6978,-3.6978,-3.6978,-3.7091,-3.8143,-3.8536,-3.8536,-3.8536,-3.8536,-3.8536,-3.8536,-3.8621,-3.8719,-3.8719,-3.8804,-3.8902,-3.8902,-3.8902,-3.8902,-3.8902,-3.8902,-3.8902,-3.8902,-3.8902,-3.8902,-3.8957,-3.9447,-3.9981,-4.0177,-4.0936,-4.1558,-4.1729,-4.1939,-4.2281,-4.289,-4.3442,-4.4008,-4.4618,-4.4806,-4.5082,-4.5619,-4.5808,-4.588,-4.588,-4.588,-4.588,-4.588,-4.588,-4.588,-4.588,-4.588,-4.588,-4.588,-4.588,-4.588,-4.588,-4.5925,-4.597,-4.597,-4.618,-4.618,-4.597,-4.618,-4.6314,-3.1485,-3.1429,-3.134,-3.134,-3.0886,-3.0419,0.0,0.0,0.0,0.0,0.0,0.0,0.0,0.0,0.0,0.0,0.0,0.0,0.0,0.0,0.0,0.0,0.0,0.0,0.0,0.0,0.0,0.0,-3.5906,-3.6216,-3.6216,-3.6722,-3.6978,-3.6978,-3.6978,-3.6978,-3.6978,-3.6978,-3.6978,-3.6978,-3.6978,-3.6978,-3.6978,-3.6978,-3.6978,-3.6978,-3.6978,-3.6978,-3.6978,-3.6978,-3.6978,-3.6993,-3.7147,-3.7242,-3.7242,-3.7242,-3.7242,-3.7242,-3.7242,-3.7555,-3.8004,-3.8004,-3.8438,-3.8902,-3.8902,-3.8902,-3.8902,-3.8902,-3.8902,-3.8902,-3.8902,-3.8902,-3.8943,-3.912,-3.9258,-3.9579,-4.0517,-4.0826,-4.1124,-4.1893,-4.2092,-4.2281,-4.289,-4.305,-4.3326,-4.3993,-4.4545,-4.4908,-4.498,-4.5518,-4.588,-4.588,-4.588,-4.588,-4.588,-4.588,-4.588,-4.588,-4.588,-4.588,-4.588,-4.588,-4.588,-4.588,-4.609,-4.618,-4.6165,-4.6417,-4.6403,-4.6165,-4.6447,-4.6624,-3.2553,-3.23,0.0,0.0,0.0,0.0,-3.0498,0.0,-2.9996,0.0,0.0,0.0,0.0,0.0,0.0,0.0,0.0,0.0,0.0,0.0,0.0,0.0,0.0,0.0,0.0,0.0,0.0,0.0,0.0,-3.5583,-3.5583,-3.5822,-3.5963,-3.5963,-3.5963,-3.5963,-3.5963,-3.5963,-3.5963,-3.5963,-3.5963,-3.5963,-3.5963,-3.5963,-3.5963,-3.5991,-3.6342,-3.6497,-3.6511,-3.6838,-3.6978,-3.6978,-3.6978,-3.6978,-3.6978,-3.6978,-3.6978,-3.6978,-3.6978,-3.7161,-3.7372,-3.7372,-3.7555,-3.7819,-3.7819,-3.7819,-3.7819,-3.7819,-3.7819,-3.7819,-3.7819,-3.7898,-3.7978,-3.8057,-3.8578,-3.9158,-3.9589,-4.0383,-4.1071,-4.1468,-4.1831,-4.2179,-4.2426,-4.2469,-4.2687,-4.3311,-4.3631,-4.4052,-4.4792,-4.514,-4.5459,-4.5837,-4.588,-4.588,-4.588,-4.588,-4.588,-4.588,-4.588,-4.597,-4.609,-4.609,-4.6135,-4.6284,-4.6373,-4.6447,-4.6447,-4.6668,-4.6712,-4.6609,-4.6712,-4.68,-3.329,0.0,0.0,0.0,0.0,0.0,0.0,0.0,0.0,0.0,0.0,0.0,0.0,0.0,-3.0231,-3.0231,0.0,0.0,0.0,0.0,0.0,0.0,0.0,0.0,0.0,0.0,0.0,0.0,0.0,0.0,-3.4936,-3.5105,-3.5189,-3.5189,-3.5189,-3.5189,-3.5189,-3.5189,-3.5189,-3.5189,-3.5189,-3.5189,-3.5189,-3.5189,-3.5189,-3.5217,-3.5653,-3.585,-3.5892,-3.6342,-3.661,-3.6764,-3.6764,-3.6838,-3.6978,-3.6978,-3.6978,-3.6978,-3.6978,-3.6978,-3.6978,-3.6978,-3.6978,-3.6978,-3.6978,-3.6978,-3.6978,-3.6978,-3.6978,-3.7017,-3.707,-3.7187,-3.7341,-3.7419,-3.8045,-3.8702,-3.8929,-3.9836,-4.0684,-4.1033,-4.1482,-4.1874,-4.2063,-4.2092,-4.2237,-4.2687,-4.289,-4.3326,-4.4255,-4.4676,-4.5082,-4.5561,-4.5779,-4.588,-4.588,-4.597,-4.6015,-4.6105,-4.6105,-4.615,-4.6314,-4.6314,-4.6403,-4.6594,-4.6639,-4.6668,-4.6668,-4.6887,-4.7019,-4.7019,-4.7019,-4.7019,0.0,0.0,0.0,-3.3262,0.0,0.0,0.0,0.0,-3.0301,0.0,0.0,-2.9602,-2.9602,-2.9631,-2.9645,-2.9645,-2.9659,0.0,0.0,0.0,0.0,0.0,0.0,0.0,0.0,0.0,0.0,0.0,-3.3045,0.0,-3.4189,-3.4829,-3.5189,-3.5189,-3.5189,-3.5189,-3.5189,-3.5189,-3.5189,-3.5189,-3.5189,-3.5189,-3.5189,-3.5189,-3.5189,-3.5189,-3.5217,-3.5217,-3.5217,-3.5245,-3.5597,-3.6131,-3.6131,-3.6511,-3.6978,-3.6978,-3.6978,-3.6978,-3.6978,-3.6978,-3.6978,-3.6978,-3.6978,-3.6978,-3.6978,-3.6978,-3.6978,-3.6978,-3.6978,-3.7017,-3.7226,-3.7303,-3.738,-3.7777,-3.7906,-3.8169,-3.9035,-3.9233,-3.9625,-4.0858,-4.112,-4.1337,-4.199,-4.2092,-4.2107,-4.2121,-4.2629,-4.3007,-4.305,-4.4124,-4.4893,-4.4922,-4.5503,-4.588,-4.588,-4.609,-4.6314,-4.655,-4.6594,-4.6594,-4.6594,-4.6594,-4.6594,-4.6594,-4.68,-4.6873,-4.6873,-4.7164,-4.7309,-4.7309,-4.7309,-4.7309,0.0,0.0,-3.329,-3.329,0.0,0.0,0.0,0.0,0.0,0.0,0.0,0.0,-2.9602,-2.9602,-2.9602,-2.9602,-2.9265,-2.8998,0.0,-2.8647,0.0,0.0,0.0,0.0,0.0,0.0,0.0,-3.178,-3.1991,0.0,0.0,-3.3002,-3.334,-3.334,-3.3733,-3.3944,-3.3944,-3.3944,-3.3944,-3.3944,-3.3944,-3.3944,-3.3944,-3.3944,-3.3944,-3.3958,-3.4365,-3.4548,-3.4576,-3.502,-3.5316,-3.5498,-3.5498,-3.5625,-3.592,-3.6722,-3.6978,-3.6978,-3.6978,-3.6978,-3.6978,-3.6978,-3.6978,-3.6978,-3.6978,-3.6978,-3.6978,-3.6978,-3.6978,-3.707,-3.7264,-3.738,-3.7586,-3.7853,-3.7991,-3.8162,-3.8455,-3.8884,-3.9334,-3.9755,-4.0525,-4.1163,-4.1395,-4.1802,-4.2092,-4.2092,-4.2266,-4.2542,-4.2934,-4.3369,-4.395,-4.4792,-4.5082,-4.549,-4.6061,-4.6314,-4.6506,-4.6594,-4.6594,-4.6683,-4.68,-4.68,-4.6887,-4.7077,-4.7121,-4.7164,-4.7164,-4.7251,-4.7309,-4.7309,-4.7309,-4.7309,-3.329,-3.329,0.0,-3.329,-3.3031,0.0,-3.2455,0.0,0.0,0.0,0.0,0.0,-2.9645,-2.9602,-2.9532,-2.9307,-2.8942,-2.8619,0.0,-2.8058,0.0,0.0,0.0,0.0,0.0,0.0,-3.0586,-3.0797,-3.1021,-3.1279,0.0,0.0,-3.2162,-3.223,-3.2591,-3.2788,-3.2788,-3.2788,-3.2901,-3.3162,-3.3092,-3.317,-3.3396,-3.3326,-3.329,-3.3304,-3.3697,-3.388,-3.3908,-3.4337,-3.4669,-3.4829,-3.4829,-3.4992,-3.5316,-3.6314,-3.6796,-3.6978,-3.6978,-3.6978,-3.6978,-3.6978,-3.6978,-3.6978,-3.6978,-3.6978,-3.6978,-3.6978,-3.707,-3.7148,-3.7341,-3.7572,-3.7777,-3.7967,-3.8104,-3.8202,-3.8202,-3.8551,-3.8913,-3.916,-3.9857,-4.0568,-4.1018,-4.1453,-4.1816,-4.2063,-4.2092,-4.2237,-4.2629,-4.2861,-4.3297,-4.4124,-4.4429,-4.4953,-4.5903,-4.6241,-4.6534,-4.6844,-4.6858,-4.6902,-4.7019,-4.7019,-4.7121,-4.7309,-4.7309,-4.7309,-4.7309,-4.7309,-4.7309,-4.7309,-4.7309,-4.7309]}]]